     2              OBSERVATION DATA    GPS                 RINEX VERSION / TYPE
ASRINEXO V2.8.2 VM                                          PGM / RUN BY / DATE
                                                            COMMENT
Original Marker Name: 0504                                  COMMENT
Campaign Name: HPGN 1991                                    COMMENT
4-Character Station Name: 0504                              COMMENT
6-Character Antenna Code: ASHL12                            COMMENT
Vertical Measurement Point: BAS                             COMMENT
Vertical Offset to Rinex Ref. Point: 0.0000                 COMMENT
Radial Measurement Point: RRP                               COMMENT
Radial Offset to Rinex Ref. Point: 0.0000                   COMMENT
Antenna Height from Field Measurement: 2.2200 m             COMMENT
Original XYZ: 6378137.0000 0.0000 0.0000                    COMMENT
New XYZ position is based on association with SCEC monument COMMENT
E1E9P8F6+0011. Position of that monument is believed to be  COMMENT
valid to within 1 m horizontally; vertical accuracy         COMMENT
should be no worse than 3-times this value.                 COMMENT
                                                            COMMENT
Revised Rinex header created by UCSD GPS archive for        COMMENT
GSAC on 19-Apr-1999 (1999:109) 07:02:31 GMT                 COMMENT
For assistance contact dagnew@ucsd.edu or hjohnson@ucsd.edu COMMENT
                                                            COMMENT
HPGN-CALIF STA 05-04                                        MARKER NAME
WGV CALIF DEPT TRANSPORTATION                               OBSERVER / AGENCY
577 ASHTECH L-XII3 6A                                       REC # / TYPE / VERS
631 ASHTECH GEODETIC L                                      ANT # / TYPE
 -2602485.0000 -4537278.0000  3638445.0000                  APPROX POSITION XYZ
        2.2200        0.0000        0.0000                  ANTENNA: DELTA H/E/N
     1     2     0                                          WAVELENGTH FACT L1/2
     3    C1    L1    L2                                    # / TYPES OF OBSERV
     0                                                      INTERVAL
  1991     4    29    19    28   15.000000                  TIME OF FIRST OBS
  1991     4    30     1    34    0.000000                  TIME OF LAST OBS
     0                                                      # OF SATELLITES
                                                            END OF HEADER
 91  4 29 19 28 15.0000000  0  1 02
  32653818.434           0.308 2         0.275 1
 91  4 29 19 28 30.0000000  0  1 02
  32645272.251      -44885.220 2    -34975.359 1
 91  4 29 19 28 45.0000000  0  4 18 02 19 11
  25320698.549           0.941 4         0.212 3
  28439645.740          52.781 2        41.039 1
  25479983.377           0.666 3         0.008 3
  28573833.744           0.882 2         0.296 1
 91  4 29 19 29  0.0000000  0  4 18 02 19 11
  25324723.555       21141.450 4     16473.318 3
  28431144.229      -44624.224 2    -34772.149 1
  25480255.888        1400.743 3      1090.976 3
  28568194.654      -29659.597 2    -23111.736 1
 91  4 29 19 29 15.0000000  0  4 18 02 19 11
  20831905.173         404.893 4       314.785 3
  23925776.227         327.580 2       255.174 1
  20983657.719         278.967 3       217.012 3
  24065686.672         361.959 2       281.837 1
 91  4 29 19 29 45.0000000  0  4 18 02 19 11
  20840178.548       43884.189 4     34194.740 3
  23908944.383      -88148.925 2    -68687.418 1
  20984358.328        3957.049 3      3083.056 3
  24054611.743      -57859.787 2    -45085.648 1
 91  4 29 19 30  0.0000000  0  4 18 02 19 11
  20844393.927       66032.574 4     51453.208 3
  23900580.773     -132074.308 2   -102914.883 1
  20984772.945        6108.548 3      4759.541 3
  24049146.823      -86590.586 2    -67473.232 1
 91  4 29 19 30 15.0010000  0  4 18 02 19 11
  20848665.970       88481.108 4     68945.557 3
  23892269.927     -175767.590 2   -136961.538 1
  20985222.335        8494.615 3      6618.816 3
  24043732.573     -115043.283 2    -89644.166 1
 91  4 29 19 30 30.0010000  0  4 18 02 19 11
  20852998.266      111246.230 4     86684.603 3
  23884001.351     -219203.507 2   -170807.608 1
  20985727.781       11134.184 3      8675.620 3
  24038368.682     -143194.363 2   -111580.046 1
 91  4 29 19 30 45.0010000  0  4 18 02 19 11
  20857390.826      134335.181 4    104675.982 3
  23875787.036     -262378.811 2   -204450.602 1
  20986277.000       14033.486 3     10934.823 3
  24033077.950     -171039.287 2   -133277.315 1
 91  4 29 19 31  0.0010000  0  4 18 02 19 11
  20861845.448      157743.442 4    122916.175 3
  23867616.495     -305297.829 2   -237893.907 1
  20986878.090       17187.950 3     13392.854 3
  24027832.781     -198582.316 2   -154739.410 1
 91  4 29 19 31 15.0010000  0  4 18 02 19 11
  20866360.020      181476.710 4    141409.615 3
  23859496.019     -347954.573 2   -271132.859 1
  20987525.642       20603.380 3     16054.219 3
  24022652.963     -225817.177 2   -175961.342 1
 91  4 29 19 31 30.0010000  0  4 18 02 19 11
  20870939.053      205531.038 4    160153.234 3
  23851434.594     -390352.910 2   -304170.465 1
  20988228.650       24275.584 3     18915.678 3
  24017527.416     -252747.530 2   -196946.007 1
 91  4 29 19 31 45.0010000  0  4 18 02 19 11
  20875582.835      229929.123 4    179164.723 3
  23843419.343     -432469.881 2   -336988.797 1
  20988976.034       28227.236 3     21994.891 3
  24012472.009     -279350.393 2   -217675.448 1
 91  4 29 19 32  0.0010000  0  4 18 02 19 11
  20880287.780      254663.369 4    198438.152 3
  23835454.156     -474312.674 2   -369593.464 1
  20989782.775       32450.888 3     25286.060 3
  24007467.574     -305632.861 2   -238155.262 1
 91  4 29 19 32 15.0010000  0  4 18 02 19 11
  20885054.177      279709.005 4    217954.222 3
  23827544.435     -515906.008 2   -402003.794 1
  20990633.587       36921.821 3     28769.892 3
  24002520.699     -331619.225 2   -258404.344 1
 91  4 29 19 32 30.0010000  0  4 18 02 19 11
  20889882.032      305068.708 4    237715.018 3
  23819674.282     -557247.169 2   -434217.592 1
  20991531.461       41642.533 3     32448.370 3
  23997632.885     -357306.531 2   -278420.416 1
 91  4 29 19 32 45.0010000  0  4 18 02 19 11
  20894764.455      330732.916 4    257713.091 3
  23811851.497     -598345.172 2   -466241.958 1
  20992473.415       46603.900 3     36314.370 3
  23992797.831     -382703.704 2   -298210.351 1
 91  4 29 19 33  0.0010000  0  4 18 02 19 11
  20899706.234      356702.788 4    277949.345 3
  23804082.076     -639198.734 2   -498075.784 1
  20993465.129       51806.882 3     40368.647 3
  23988016.445     -407809.350 2   -317773.150 1
 91  4 29 19 33 15.0010000  0  4 18 02 19 11
  20904706.472      382977.668 4    298423.266 3
  23796347.729     -679808.581 2   -529719.754 1
  20994501.209       57250.673 3     44610.563 3
  23983297.409     -432623.859 2   -337109.101 1
 91  4 29 19 33 30.0010000  0  4 18 02 19 11
  20909763.676      409548.771 4    319128.001 3
  23788666.152     -720183.115 2   -561180.330 1
  20995581.657       62926.480 3     49033.263 3
  23978629.345     -457155.545 2   -356224.669 1
 91  4 29 19 33 45.0010000  0  4 18 02 19 11
  20914873.938      436418.330 4    340065.311 3
  23781031.333     -760319.653 2   -592455.489 1
  20996705.582       68836.840 3     53638.740 3
  23974014.931     -481401.533 2   -375117.609 1
 91  4 29 19 34  0.0010000  0  4 18 02 19 11
  20920042.657      463575.011 4    361226.353 3
  23773433.395     -800229.697 2   -623554.144 1
  20997870.576       74970.048 3     58417.866 3
  23969452.694     -505372.996 2   -393796.640 1
 91  4 29 19 34 15.0010000  0  5 16 18 02 19 11
  24554955.758           0.564 2         0.374 1
  20925266.240      491023.200 4    382614.535 3
  23765885.818     -839908.779 2   -654472.830 1
  20999083.837       81330.501 3     63374.066 3
  23964948.313     -529065.258 2   -412258.058 1
 91  4 29 19 34 30.0010000  0  5 16 18 02 19 11
  24550203.147      -24975.396 2    -19461.372 1
  20930547.086      518766.559 4    404232.731 3
  23758378.115     -879352.846 2   -685208.356 1
  21000339.372       87921.771 3     68510.112 3
  23960488.901     -552474.097 2   -430498.717 1
 91  4 29 19 34 45.0010000  0  5 16 18 02 19 11
  24545503.001      -49664.601 2    -38699.717 1
  20935880.693      546796.477 4    426074.203 3
  23750916.585     -918570.025 2   -715767.130 1
  21001632.974       94735.576 3     73819.566 3
  23956086.447     -575607.621 2   -448524.805 1
 91  4 29 19 35  0.0010000  0  5 16 18 02 19 11
  24540851.418      -74078.011 2    -57723.170 1
  20941264.068      575101.816 4    448130.298 3
  23743492.520     -957571.385 2   -746157.725 1
  21002969.748      101760.746 3     79293.723 3
  23951737.957     -598476.695 2   -466344.769 1
 91  4 29 19 35 15.0010000  0  5 16 18 02 19 11
  24536264.001      -98221.309 2    -76536.124 1
  20946704.400      603676.729 4    470396.455 3
  23736113.731     -996362.586 2   -776384.554 1
  21004346.692      108991.438 3     84928.038 3
  23947428.137     -621086.785 2   -483963.051 1
 91  4 29 19 35 30.0010000  0  5 16 18 02 19 11
  24531715.846     -122092.597 2    -95137.123 1
  20952193.898      632522.887 4    492873.964 3
  23728770.313    -1034941.629 2   -806446.060 1
  21005764.409      116429.394 3     90723.836 3
  23943177.386     -643435.729 2   -501377.722 1
 91  4 29 19 35 45.0010000  0  5 16 18 02 19 11
  24527234.246     -145691.784 2   -113526.070 1
  20957734.962      661639.821 4    515562.470 3
  23721472.466    -1073308.896 2   -836342.553 1
  21007216.005      124074.183 3     96680.811 3
  23938979.387     -665523.416 2   -518588.880 1
 91  4 29 19 36  0.0010000  0  5 16 18 02 19 11
  24522789.230     -169025.619 2   -131708.314 1
  20963323.691      691020.481 4    538456.477 3
  23714206.693    -1111470.948 2   -866079.152 1
  21008711.672      131918.970 3    102793.634 3
  23934821.271     -687356.434 2   -535601.599 1
 91  4 29 19 36 15.0010000  0  5 16 18 02 19 11
  24518396.068     -192089.399 2   -149680.138 1
  20968968.487      720669.576 4    561559.660 3
  23706988.297    -1149423.199 2   -895652.238 1
  21010240.913      139968.261 3    109065.810 3
  23930715.313     -708930.025 2   -552412.166 1
 91  4 29 19 36 30.0010000  0  5 16 18 02 19 11
  24514064.069     -214888.208 2   -167445.429 1
  20974658.846      750581.697 4    584867.794 3
  23699804.670    -1187170.811 2   -925065.898 1
  21011812.427      148216.656 3    115493.131 3
  23926659.115     -730249.181 2   -569024.409 1
 91  4 29 19 36 45.0010000  0  5 16 18 02 19 11
  24509774.640     -237425.880 2   -185007.233 1
  20980398.676      780753.005 4    608377.890 3
  23692655.813    -1224717.729 2   -954323.164 1
  21013419.610      156660.008 3    122072.361 3
  23922647.598     -751317.625 2   -585441.386 1
 91  4 29 19 37  0.0010000  0  5 16 18 02 19 11
  24505531.672     -259701.374 2   -202364.770 1
  20986191.861      811183.873 4    632090.240 3
  23685555.529    -1262062.725 2   -983423.060 1
  21015063.673      165299.211 3    128804.212 3
  23918691.232     -772134.044 2   -601661.966 1
 91  4 29 19 37 15.0010000  0  5 16 18 02 19 11
  24501339.379     -281716.795 2   -219519.655 1
  20992031.820      841871.918 4    656002.986 3
  23678478.035    -1299208.190 2  -1012367.522 1
  21016745.211      174131.666 3    135686.645 3
  23914777.148     -792700.671 2   -617687.857 1
 91  4 29 19 37 30.0010000  0  5 16 18 02 19 11
  24497194.743     -303475.951 2   -236474.813 1
  20997917.648      872813.289 4    680113.140 3
  23671447.900    -1336157.809 2  -1041159.349 1
  21018460.925      183153.813 3    142716.895 3
  23910908.025     -813020.832 2   -633521.705 1
 91  4 29 19 37 45.0010000  0  5 16 18 02 19 11
  24493119.367     -324979.798 2   -253231.088 1
  21003854.430      904006.901 4    704419.833 3
  23664460.336    -1372912.628 2  -1069799.389 1
  21020210.510      192364.259 3    149893.856 3
  23907094.367     -833095.366 2   -649164.139 1
 91  4 29 19 38  0.0010000  0  5 16 18 02 19 11
  24489066.772     -346232.448 2   -269791.586 1
  21009837.089      935447.941 4    728919.325 3
  23657497.952    -1409477.087 2  -1098291.117 1
  21022002.971      201758.273 3    157213.875 3
  23903314.283     -852928.523 2   -664618.568 1
 91  4 29 19 38 15.0010000  0  5 16 18 02 19 11
  24485072.033     -367233.898 2   -286156.392 1
  21015868.015      967136.007 4    753611.312 3
  23650571.847    -1445851.182 2  -1126634.471 2
  21023822.112      211335.775 3    164676.871 3
  23899586.062     -872520.149 2   -679884.738 1
 91  4 29 19 38 30.0010000  0  5 16 18 02 19 11
  24481126.766     -387988.289 2   -302328.663 1
  21021944.512      999066.840 4    778492.475 3
  23643686.218    -1482039.189 2  -1154832.856 1
  21025676.329      221092.488 3    172279.502 3
  23895906.108     -891874.274 2   -694965.858 1
 91  4 29 19 38 45.0010000  0  5 16 18 02 19 11
  24477223.771     -408495.384 2   -318308.189 1
  21028066.572     1031240.114 4    803562.546 3
  23636836.859    -1518040.803 2  -1182885.977 1
  21027567.121      231028.006 3    180021.461 3
  23892262.432     -910990.613 2   -709861.663 1
 91  4 29 19 39  0.0010000  0  5 16 18 02 19 11
  24473360.948     -428753.862 2   -334094.053 1
  21034235.102     1063657.373 4    828822.732 3
  23630023.178    -1553854.688 2  -1210792.816 1
  21029492.988      241143.730 3    187903.847 3
  23888671.221     -929867.538 2   -724570.913 1
 91  4 29 19 39 15.0010000  0  5 16 18 02 19 11
  24469566.468     -448767.302 2   -349688.911 1
  21040449.500     1096314.772 4    854270.038 3
  23623243.070    -1589484.235 2  -1238556.035 1
  21031455.125      251436.045 3    195923.835 3
  23885123.173     -948508.314 2   -739096.176 1
 91  4 29 19 39 30.0010000  0  5 16 18 02 19 11
  24465790.886     -468536.093 2   -365093.210 1
  21046712.461     1129211.801 4    879904.071 3
  23616500.733    -1624930.014 2  -1266176.041 1
  21033443.351      261904.273 3    204080.893 3
  23881627.589     -966913.312 2   -753437.699 1
 91  4 29 19 39 45.0010000  0  5 16 18 02 19 11
  24462081.258     -488058.337 2   -380305.311 1
  21053015.000     1162349.596 4    905725.722 3
  23609790.479    -1660190.369 2  -1293651.581 1
  21035470.848      272549.902 3    212376.183 3
  23878169.785     -985080.712 2   -767594.072 1
 91  4 29 19 40  0.0010000  0  5 16 18 02 19 11
  24458408.798     -507336.418 2   -395327.311 1
  21059367.002     1195725.463 4    931732.868 3
  23603111.408    -1695267.704 2  -1320984.476 1
  21037528.019      283370.319 3    220807.680 3
  23874753.050    -1003012.756 2   -781567.083 1
 91  4 29 19 40 15.0010000  0  5 16 18 02 19 11
  24454795.696     -526370.884 2   -410159.257 1
  21065763.379     1229338.813 4    957925.069 3
  23596469.201    -1730162.620 2  -1348175.262 1
  21039622.072      294364.808 3    229374.810 3
  23871394.476    -1020709.735 2   -795356.891 1
 91  4 29 19 40 30.0010000  0  5 16 18 02 19 11
  24451213.777     -545171.377 2   -424809.096 1
  21072202.614     1263179.957 4    984294.776 3
  23589857.279    -1764884.850 2  -1375231.459 1
  21041748.799      305523.405 3    238069.821 3
  23868064.983    -1038181.166 2   -808970.934 1
 91  4 29 19 40 45.0010000  0  5 16 18 02 19 11
  24447674.724     -563734.962 2   -439274.135 1
  21078684.733     1297251.194 4   1010843.782 3
  23583298.126    -1799431.640 2  -1402150.963 1
  21043901.013      316848.735 3    246894.750 3
  23864780.756    -1055424.072 2   -822406.921 1
 91  4 29 19 41  0.0010000  0  5 16 18 02 19 11
  24444190.841     -582062.871 2   -453555.664 1
  21085213.313     1331550.865 4   1037570.783 3
  23576748.256    -1833804.260 2  -1428934.766 1
  21046091.897      328339.303 3    255848.444 2
  23861545.093    -1072439.803 2   -835665.850 1
 91  4 29 19 41 15.0010000  0  5 16 18 02 19 11
  24440758.217     -600155.011 2   -467653.440 1
  21091785.065     1366079.323 4   1064476.057 3
  23570239.159    -1868002.163 2  -1455582.416 1
  21048304.061      339995.455 3    264931.156 3
  23858349.906    -1089227.474 2   -848747.141 1
 91  4 29 19 41 30.0010000  0  5 16 18 02 19 11
  24437346.281     -618017.087 2   -481571.814 1
  21098398.480     1400830.571 4   1091554.935 3
  23563771.140    -1902031.044 2  -1482098.357 1
  21050557.006      351811.229 3    274138.253 2
  23855193.990    -1105792.637 2   -861655.017 1
 91  4 29 19 41 45.0010000  0  5 16 18 02 19 11
  24433988.301     -635647.289 2   -495309.774 1
  21105054.472     1435805.656 4   1118808.235 3
  23557326.199    -1935889.616 2  -1508481.602 1
  21052831.232      363787.805 3    283470.651 3
  23852080.348    -1122133.941 2   -874388.422 1
 91  4 29 19 42  0.0010000  0  5 16 18 02 19 11
  24430684.285     -653043.419 2   -508865.168 1
  21111750.941     1471006.789 4   1146237.675 3
  23550910.644    -1969575.479 2  -1534730.259 1
  21055142.330      375927.375 3    292930.045 3
  23849017.669    -1138248.877 2   -886945.509 1
 91  4 29 19 42 15.0010000  0  5 16 18 02 19 11
  24427408.757     -670210.639 2   -522242.241 1
  21118493.574     1506428.333 4   1173838.863 3
  23544538.557    -2003094.192 2  -1560848.663 1
  21057479.508      388224.241 3    302512.021 3
  23845993.066    -1154142.563 2   -899330.153 1
 91  4 29 19 42 30.0010000  0  5 16 18 02 19 11
  24424198.283     -687150.679 2   -535442.278 1
  21125274.581     1542068.246 4   1201610.207 3
  23538187.454    -2036447.595 2  -1586838.255 1
  21059853.863      400676.643 3    312215.190 3
  23843013.128    -1169816.602 2   -911543.653 1
 91  4 29 19 42 45.0010000  0  6 16 06 18 02 19 11
  24421009.684     -703864.992 2   -548466.412 1
  24949573.167           0.117 2         0.362 1
  21132099.352     1577925.106 4   1229550.600 3
  23531869.629    -2069636.930 2  -1612700.010 1
  21062252.203      413282.897 3    322038.247 3
  23840074.860    -1185272.216 2   -923586.951 1
 91  4 29 19 43  0.0010000  0  6 16 06 18 02 19 11
  24417871.157     -720351.312 2   -561312.863 1
  24945225.279      -22901.685 2    -17845.274 1
  21138962.200     1614000.835 4   1257661.541 3
  23525586.879    -2102659.751 2  -1638432.006 1
  21064681.727      426045.194 3    331982.891 3
  23837171.973    -1200506.910 2   -935458.104 1
 91  4 29 19 43 15.0010000  0  6 16 06 18 02 19 11
  24414773.107     -736622.025 2   -573991.344 1
  24940887.583      -45685.609 2    -35599.100 1
  21145867.321     1650282.656 4   1285933.078 3
  23519328.411    -2135528.826 2  -1664044.205 1
  21067137.924      438950.797 3    342039.211 3
  23834312.248    -1215533.121 2   -947166.803 1
 91  4 29 19 43 30.0010000  0  6 16 06 18 02 19 11
  24411717.923     -752673.179 2   -586498.754 1
  24936576.271      -68347.564 2    -53257.601 1
  21152811.417     1686774.321 4   1314368.113 3
  23513105.916    -2168240.006 2  -1689533.375 1
  21069619.005      452003.807 3    352210.379 3
  23831494.797    -1230346.371 2   -958709.540 1
 91  4 29 19 43 45.0010000  0  6 16 06 18 02 19 11
  24408713.998     -768506.163 2   -598836.086 1
  24932278.439      -90889.396 2    -70822.836
  21159795.980     1723474.264 4   1342965.454 3
  23506915.504    -2200794.854 2  -1714900.704 2
  21072130.963      465202.244 3    362494.873 3
  23828711.828    -1244948.179 2   -970087.518 1
 91  4 29 19 44  0.0010000  0  6 16 06 18 02 19 11
  24405740.054     -784119.877 2   -611002.662 1
  24928027.383     -113310.196 2    -88293.361 1
  21166818.619     1760383.280 4   1371725.718 3
  23500758.063    -2233192.111 2  -1740145.253 1
  21074673.809      478547.259 3    372893.572 3
  23825982.213    -1259337.291 2   -981299.800 1
 91  4 29 19 44 15.0010000  0  6 16 06 18 02 19 11
  24402808.391     -799516.470 2   -622999.994 1
  24923783.822     -135612.310 2   -105671.522 1
  21173881.429     1797499.086 4   1400647.107 3
  23494616.817    -2265433.903 2  -1765268.669 2
  21077237.333      492036.451 3    383404.640 3
  23823277.490    -1273515.539 2   -992347.747 1
 91  4 29 19 44 30.0010000  0  6 16 06 18 02 19 11
  24399924.385     -814697.466 2   -634829.319 1
  24919557.047     -157797.455 1   -122958.535 1
  21180983.511     1834819.744 4   1429728.122 3
  23488507.042    -2297522.021 2  -1790272.327 1
  21079829.938      505668.016 3    394026.638 3
  23820623.128    -1287484.419 2  -1003232.614 1
 91  4 29 19 44 45.0010000  0  6 16 06 18 02 19 11
  24397068.561     -829665.560 2   -646492.803 1
  24915356.658     -179869.029 2   -140157.039 1
  21188121.269     1872341.820 4   1458966.081 3
  23482430.248    -2329459.373 2  -1815158.480 1
  21082452.820      519438.743 3    404757.075 3
  23818000.544    -1301246.987 2  -1013956.671 1
 91  4 29 19 45  0.0010000  0  6 16 06 18 02 19 11
  24394265.803     -844419.058 2   -657988.980 1
  24911173.954     -201825.419 1   -157265.769 1
  21195300.699     1910067.032 4   1488362.331 3
  23476373.243    -2361244.316 2  -1839925.930 1
  21085100.585      533350.283 3    415597.229 3
  23815417.528    -1314801.245 2  -1024518.362 1
 91  4 29 19 45 15.0010000  0  6 16 06 18 02 19 11
  24391503.512     -858958.887 2   -669318.765 1
  24907010.733     -223667.518 1   -174285.381 1
  21202518.798     1947994.226 4   1517915.977 3
  23470360.604    -2392877.554 2  -1864575.152 1
  21087770.241      547401.584 3    426546.298 3
  23812881.584    -1328147.769 2  -1034918.247 1
 91  4 29 19 45 30.0010000  0  5 16 18 02 19 11
  24388767.012     -873292.344 2   -680487.653 1
  21209773.779     1986115.818 4   1547621.097 3
  23464365.661    -2424366.454 2  -1889111.875 1
  21090471.674      561585.068 3    437598.362 3
  23810386.115    -1341293.732 2  -1045161.787 1
 91  4 29 19 45 45.0010000  0  5 16 18 02 19 11
  24386083.867     -887414.737 2   -691492.141 1
  21217065.631     2024436.184 4   1577481.096 3
  23458400.391    -2455706.533 2  -1913532.641 1
  21093197.381      575905.210 3    448756.905 3
  23807920.618    -1354234.317 2  -1055245.350 1
 91  4 29 19 46  0.0010000  0  5 16 18 02 19 11
  24383442.698     -901326.701 2   -702332.607 1
  21224396.154     2062954.530 4   1607495.380 3
  23452471.688    -2486898.425 2  -1937837.949 1
  21095947.082      590361.315 3    460021.397 3
  23805494.095    -1366970.175 2  -1065169.385 1
 91  4 29 19 46 15.0010000  0  5 16 18 02 19 11
  24380830.906     -915026.996 2   -713008.135 1
  21231764.159     2101671.755 4   1637664.624 3
  23446561.587    -2517941.024 2  -1962026.911 2
  21098727.355      604954.309 3    471392.556 3
  23803109.846    -1379499.889 2  -1074932.783 1
 91  4 29 19 46 30.0010000  0  5 16 18 02 19 11
  24378262.880     -928518.215 2   -723520.765 1
  21239166.934     2140585.350 4   1667986.887 3
  23440685.951    -2548836.651 2  -1986101.362 1
  21101526.815      619681.610 3    482868.375 3
  23800763.376    -1391825.681 2  -1084537.261 1
 91  4 29 19 46 45.0010000  0  5 16 18 02 19 11
  24375727.232     -941801.929 2   -733871.720 1
  21246612.279     2179693.247 4   1698460.559 3
  23434835.198    -2579586.882 2  -2010062.533 1
  21104356.254      634541.447 3    494447.471 3
  23798456.169    -1403948.996 2  -1093983.973 1
 91  4 29 19 47  0.0010000  0  5 16 18 02 19 11
  24373246.152     -954881.007 2   -744063.228 1
  21254089.697     2218992.022 4   1729082.956 3
  23429007.837    -2610194.774 2  -2033912.758 1
  21107206.983      649530.571 3    506127.299 3
  23796188.540    -1415872.664 2  -1103275.121 1
 91  4 29 19 47 15.0010000  0  5 16 18 02 19 11
  24370793.846     -967755.940 2   -754095.623 1
  21261603.997     2258480.992 4   1759853.563 3
  23423210.151    -2640660.878 2  -2057652.531 1
  21110085.894      664648.303 3    517907.346 3
  23793958.986    -1427597.126 2  -1112411.028 1
 91  4 29 19 47 30.0010000  0  5 16 18 02 19 11
  24368381.720     -980434.685 2   -763975.139 1
  21269151.870     2298152.317 4   1790766.275 3
  23417436.450    -2670992.979 2  -2081287.855 1
  21112983.686      679886.729 3    529781.444 3
  23791766.899    -1439130.064 2  -1121397.734 1
 91  4 29 19 47 45.0010000  0  5 16 18 02 19 11
  24366010.960     -992915.583 2   -773700.507 1
  21276735.726     2338007.105 4   1821821.934 3
  23411693.618    -2701189.542 2  -2104817.586 1
  21115908.464      695247.148 3    541750.589 3
  23789607.801    -1450469.873 2  -1130233.908 1
 91  4 29 19 48  0.0010000  0  6 16 06 18 02 19 11
  24363669.882    -1005192.775 2   -783267.143 1
  24862639.053      108009.94412     84164.661 1
  21284354.945     2378051.068 4   1853025.002 3
  23405970.583    -2731244.896 2  -2128237.272 1
  21118856.024      710735.262 3    553819.248 3
  23787478.970    -1461610.488 2  -1138914.873 1
 91  4 29 19 48 15.0010000  0  6 16 06 18 02 19 11
  24361373.172    -1017261.636 2   -792671.449 1
  24858724.061       87425.476 2     68124.867 1
  21292013.444     2418288.234 4   1884378.617 3
  23400275.722    -2761154.634 2  -2151543.522 1
  21121826.967      726355.218 3    565990.646 3
  23785402.909    -1472547.342 2  -1147437.079 1
 91  4 29 19 48 30.0010000  0  6 16 06 18 02 19 11
  24359116.039    -1029128.895 2   -801918.660 1
  24854817.464       66939.813 2     52162.169 1
  21299703.720     2458711.672 4   1915877.392 3
  23394609.645    -2790925.439 2  -2174741.475 1
  21124825.185      742100.112 3    578259.389 3
  23783364.619    -1483287.101 2  -1155805.710 1
 91  4 29 19 48 45.0010000  0  6 16 06 18 02 19 11
  24356895.176    -1040796.150 2   -811010.026 1
  24850940.854       46551.194 2     36275.043 1
  21307431.776     2499319.617 4   1947519.926 3
  23388976.846    -2820558.816 2  -2197832.360 1
  21127844.099      757968.404 3    590624.292 3
  23781354.214    -1493831.017 2  -1164021.709 1
 91  4 29 19 49  0.0010000  0  6 16 06 18 02 19 11
  24354719.875    -1052261.447 2   -819943.988 1
  24847081.023       26261.603 2     20465.043 1
  21315195.195     2540114.004 4   1979307.736 3
  23383362.936    -2850052.492 2  -2220814.372 1
  21130888.787      773962.029 3    603086.847 3
  23779384.573    -1504176.721 2  -1172083.271 1
 91  4 29 19 49 15.0010000  0  6 16 06 18 02 19 11
  24352569.171    -1063530.048 2   -828724.751 1
  24843239.480        6065.297 2      4727.759 1
  21322992.502     2581088.832 4   2011236.149 3
  23377776.598    -2879412.177 2  -2243691.998 1
  21133950.271      790075.121 3    615642.495 3
  23777451.813    -1514329.711 2  -1179994.687 1
 91  4 29 19 49 30.0010000  0  6 16 06 18 02 19 11
  24350461.324    -1074600.281 2   -837350.894 1
  24839415.631      -14036.295 2    -10935.667 1
  21330824.281     2622245.578 4   2043306.333 3
  23372214.254    -2908636.316 2  -2266463.980 1
  21137043.226      806309.370 3    628292.564 2
  23775551.127    -1524288.169 2  -1187754.519 1
 91  4 29 19 49 45.0010000  0  6 16 06 18 02 19 11
  24348397.556    -1085477.023 2   -845826.283 1
  24835602.270      -34048.139 2    -26529.250 1
  21338690.831     2663579.433 4   2075514.513 3
  23366678.286    -2937729.714 2  -2289134.122 2
  21140152.977      822659.782 3    641033.146 3
  23773696.910    -1534056.588 2  -1195366.223 1
 91  4 29 19 50  0.0010000  0  6 16 06 18 02 19 11
  24346360.165    -1096158.411 2   -854149.430 1
  24831813.793      -53968.732 2    -42051.694 1
  21346590.065     2705091.765 4   2107861.764 3
  23361164.200    -2966690.609 2  -2311700.996 1
  21143287.908      839127.868 3    653865.417 3
  23771881.372    -1543633.340 2  -1202828.618 1
 91  4 29 19 50 15.0010000  0  6 16 06 18 02 19 11
  24344367.446    -1106647.834 2   -862322.975 1
  24828038.804      -73801.602 2    -57505.780 1
  21354522.873     2746778.843 4   2140345.183 3
  23355679.798    -2995522.063 2  -2334166.993 1
  21146439.924      855710.353 3    666786.824 3
  23770090.413    -1553021.388 2  -1210143.957 1
 91  4 29 19 50 30.0010000  0  6 16 06 18 02 19 11
  24342406.199    -1116948.924 2   -870349.806 1
  24824279.111      -93550.660 2    -72894.590 1
  21362488.356     2788636.905 4   2172961.826 3
  23350218.176    -3024227.966 2  -2356535.190 2
  21149624.021      872403.294 3    679794.306 2
  23768340.217    -1562224.277 2  -1217315.014 1
 91  4 29 19 50 45.0010000  0  6 16 06 18 02 19 11
  24340482.731    -1127062.336 2   -878230.398 1
  24820538.596     -113216.588 2    -88218.596 1
  21370485.922     2830665.223 4   2205711.155 3
  23344777.547    -3052808.757 2  -2378805.866 1
  21152817.106      889206.123 3    692887.417 3
  23766622.112    -1571242.413 2  -1224342.075 1
 91  4 29 19 51  0.0010000  0  6 16 06 18 02 19 11
  24338596.738    -1136986.337 2   -885963.363 1
  24816815.479     -132797.913 2   -103476.666 1
  21378517.960     2872865.121 4   2238594.175 3
  23339360.895    -3081262.821 2  -2400977.807 1
  21156035.982      906120.235 3    706067.242 3
  23764945.670    -1580073.900 2  -1231223.778 1
 91  4 29 19 51 15.0010000  0  6 16 06 18 02 19 11
  24336736.527    -1146719.625 2   -893547.730 1
  24813097.151     -152293.923 2   -118668.253 1
  21386577.282     2915237.463 4   2271611.570 3
  23333969.729    -3109589.104 2  -2423050.169 1
  21159275.841      923146.505 3    719334.452 3
  23763301.606    -1588717.741 2  -1237959.216 1
 91  4 29 19 51 30.0010000  0  6 16 06 18 02 19 11
  24334928.780    -1156267.209 2   -900987.421 1
  24809404.310     -171709.693 2   -133797.310 1
  21394674.672     2957776.896 4   2304759.162 3
  23328608.236    -3137792.688 2  -2445026.925 1
  21162534.286      940279.753 3    732685.039 2
  23761688.124    -1597178.681 2  -1244552.138 1
 91  4 29 19 51 45.0010000  0  6 16 06 18 02 19 11
  24333141.119    -1165626.362 2   -908280.254 1
  24805725.551     -191042.782 2   -148861.989 1
  21402800.846     3000485.879 4   2338038.873 2
  23323264.439    -3165870.812 2  -2466905.943 2
  21165817.911      957522.631 3    746121.042 3
  23760108.818    -1605453.905 2  -1251000.310 1
 91  4 29 19 52  0.0010000  0  6 16 06 18 02 19 11
  24331397.825    -1174800.462 2   -915428.919 1
  24802065.691     -210296.367 2   -163864.596 1
  21410959.398     3043361.071 4   2371448.104 3
  23317943.422    -3193826.439 2  -2488689.490 1
  21169116.229      974871.885 3    759639.935 3
  23758572.981    -1613546.355 2  -1257306.125 1
 91  4 29 19 52 15.0010000  0  6 16 06 18 02 19 11
  24329678.516    -1183792.146 2   -922435.402 1
  24798416.309     -229473.537 2   -178807.814 1
  21419150.033     3086399.331 4   2404984.382 3
  23312649.986    -3221662.551 2  -2510379.909 2
  21172441.228      992324.387 3    773239.278 3
  23757063.825    -1621458.761 2  -1263471.613 1
 91  4 29 19 52 30.0010000  0  6 16 06 18 02 19 11
  24328003.278    -1192602.246 2   -929300.414 1
  24794785.225     -248575.408 2   -193692.339 1
  21427371.241     3129599.586 4   2438646.891 3
  23307373.939    -3249380.025 2  -2531977.885 2
  21175777.012     1009879.338 3    786918.460 3
  23755591.550    -1629191.695 2  -1269497.250 1
 91  4 29 19 52 45.0010000  0  6 16 06 18 02 19 11
  24326361.613    -1201230.077 2   -936023.403 1
  24791156.242     -267601.579 2   -208517.852 1
  21435625.429     3172962.230 4   2472435.951 3
  23302122.776    -3276978.237 2  -2553482.925 2
  21179137.086     1027537.111 3    800677.762 3
  23754160.039    -1636744.442 2  -1275382.507 1
 91  4 29 19 53  0.0010000  0  6 16 06 18 02 19 11
  24324755.024    -1209677.419 2   -942605.741 1
  24787553.933     -286553.831 2   -223285.736 1
  21443905.392     3216485.488 4   2506350.164 3
  23296891.995    -3304458.779 2  -2574896.274 2
  21182525.046     1045295.786 3    814515.689 3
  23752756.108    -1644118.623 2  -1281128.599 1
 91  4 29 19 53 15.0010000  0  6 16 06 18 02 19 11
  24323185.613    -1217946.699 2   -949049.360 1
  24783959.720     -305434.653 2   -237997.945 1
  21452216.538     3260166.774 4   2540387.505 3
  23291685.199    -3331823.974 2  -2596219.753 2
  21185917.499     1063153.059 3    828430.433 3
  23751386.955    -1651316.426 2  -1286737.252 1
 91  4 29 19 53 30.0010000  0  6 16 06 18 02 19 11
  24321643.476    -1226039.892 2   -955355.722 1
  24780379.904     -324246.646 2   -252656.560 1
  21460560.360     3304003.264 4   2574545.785 3
  23286501.786    -3359076.221 2  -2617455.212 2
  21189338.125     1081106.491 3    842420.119 2
  23750046.281    -1658339.999 2  -1292210.149 1
 91  4 29 19 53 45.0010000  0  6 16 06 18 02 19 11
  24320140.620    -1233954.657 2   -961523.083 1
  24776811.771     -342987.710 2   -267259.984 1
  21468931.465     3347997.280 4   2608826.818 2
  23281334.864    -3386213.219 2  -2638600.883 2
  21192767.154     1099158.298 3    856486.465 2
  23748750.585    -1665186.794 2  -1297545.330 1
 91  4 29 19 54  0.0010000  0  6 16 06 18 02 19 11
  24318665.640    -1241696.625 2   -967555.780 1
  24773264.630     -361663.311 2   -281812.209 1
  21477332.854     3392143.158 4   2643226.189 3
  23276188.925    -3413240.236 2  -2659660.844 2
  21196227.061     1117302.883 3    870625.102 3
  23747470.472    -1671862.053 2  -1302746.799 1
 91  4 29 19 54 15.0010000  0  6 16 06 18 02 19 11
  24317221.242    -1249264.754 2   -973453.069 1
  24769724.976     -380272.877 2   -296313.119 1
  21485761.214     3436441.338 4   2677744.236 3
  23271069.075    -3440156.563 2  -2680634.532 1
  21199692.055     1135540.816 3    884836.466 3
  23746239.822    -1678364.823 2  -1307813.847 2
 91  4 29 19 54 30.0010000  0  6 16 06 18 02 19 11
  24315813.114    -1256659.298 2   -979215.019 1
  24766179.030     -398816.768 1   -310762.815 1
  21494221.664     3480891.394 4   2712380.614 3
  23265971.107    -3466962.345 2  -2701522.099 1
  21203183.146     1153872.049 3    899120.542 2
  23745039.151    -1684694.921 2  -1312746.385 1
 91  4 29 19 54 45.0010000  0  6 16 06 18 02 19 11
  24314443.359    -1263882.074 2   -984843.146 1
  24762675.053     -417296.830 2   -325162.775 1
  21502707.583     3525491.387 4   2747133.838 3
  23260885.721    -3493659.391 2  -2722324.946 1
  21206686.512     1172294.459 3    913475.670 2
  23743860.668    -1690854.147 2  -1317545.770 1
 91  4 29 19 55  0.0010000  0  6 16 06 18 02 19 11
  24313091.299    -1270930.741 2   -990335.643 1
  24759174.077     -435710.853 2   -339511.241 1
  21511225.592     3570243.468 4   2782005.572 3
  23255829.128    -3520245.276 2  -2743041.162 2
  21210215.374     1190810.516 3    927903.762 3
  23742725.653    -1696839.913 2  -1322210.015 1
 91  4 29 19 55 15.0010000  0  6 16 06 18 02 19 11
  24311791.100    -1277805.082 2   -995692.266 1
  24755677.001     -454059.215 2   -353808.631 1
  21519769.969     3615147.389 4   2816995.608 3
  23250789.017    -3546720.125 2  -2763670.856 1
  21213749.026     1209419.915 3    942404.582 3
  23741616.125    -1702652.267 2  -1326739.072 1
 91  4 29 19 55 30.0010000  0  6 16 06 18 02 19 11
  24310513.378    -1284504.516 2  -1000912.644 1
  24752192.812     -472341.687 1   -368054.585 1
  21528342.842     3660203.312 4   2852104.103 3
  23245775.281    -3573083.383 2  -2784213.609 2
  21217312.063     1228122.945 3    956978.361 3
  23740544.664    -1708290.567 2  -1331132.532 1
 91  4 29 19 55 45.0010000  0  6 16 06 18 02 19 11
  24309271.638    -1291030.136 2  -1005997.501 1
  24748733.507     -490559.064 2   -382249.815 1
  21536945.084     3705410.144 4   2887330.181 3
  23240778.944    -3599335.789 2  -2804669.982 2
  21220885.283     1246918.898 3    971624.554 2
  23739506.481    -1713755.470 2  -1335390.872 1
 91  4 29 19 56  0.0010000  0  6 16 06 18 02 19 11
  24308061.081    -1297389.490 2  -1010952.892 1
  24745264.011     -508719.277 1   -396400.614 1
  21545574.313     3750760.047 4   2922667.738 3
  23235804.192    -3625485.007 2  -2825045.946 1
  21224480.700     1265799.926 3    986337.042 2
  23738495.284    -1719054.285 2  -1339519.825 1
 91  4 29 19 56 15.0010000  0  5 16 18 02 19 11
  24306884.090    -1303576.811 2  -1015774.153 1
  21554232.317     3796258.461 4   2958121.031 3
  23230852.815    -3651525.370 2  -2845337.085 1
  21228089.300     1284771.440 3   1001120.037 3
  23737521.553    -1724181.275 2  -1343514.852 1
 91  4 29 19 56 30.0010000  0  5 16 18 02 19 11
  24305747.279    -1309592.340 2  -1020461.568 1
  21562920.300     3841904.842 4   2993689.622 3
  23225913.138    -3677457.269 2  -2865543.721 2
  21231723.081     1303832.988 3   1015973.184 3
  23736579.608    -1729136.651 2  -1347376.181 1
 91  4 29 19 56 45.0010000  0  5 16 18 02 19 11
  24304627.254    -1315440.638 2  -1025018.766 1
  21571633.465     3887694.255 4   3029369.659 3
  23220996.836    -3703285.079 2  -2885669.229 2
  21235359.567     1322980.059 3   1030892.968 2
  23735662.547    -1733924.751 2  -1351107.171 1
 91  4 29 19 57  0.0010000  0  5 16 18 02 19 11
  24303550.104    -1321121.655 2  -1029445.502 1
  21580373.921     3933626.776 4   3065161.204 3
  23216104.528    -3729008.586 2  -2905713.480 2
  21239022.734     1342212.828 3   1045879.547 3
  23734786.249    -1738545.162 2  -1354707.428 1
 91  4 29 19 57 15.0010000  0  5 16 18 02 19 11
  24302498.729    -1326632.155 2  -1033739.405 1
  21589143.449     3979705.433 3   3101066.625 3
  23211227.506    -3754624.548 2  -2925673.915 1
  21242697.288     1361534.374 3   1060935.293 3
  23733937.235    -1742994.597 2  -1358174.523 1
 91  4 29 19 57 30.0010000  0  5 16 18 02 19 11
  24301488.727    -1331973.283 2  -1037901.339 1
  21597936.658     4025928.669 3   3137084.715 2
  23206373.265    -3780134.345 2  -2945551.638 2
  21246392.528     1380942.983 3   1076058.871 3
  23733122.100    -1747274.260 2  -1361509.303 1
 91  4 29 19 57 45.0010000  0  5 16 18 02 19 11
  24300503.907    -1337152.523 2  -1041937.097 1
  21606758.057     4072288.662 4   3173209.369 3
  23201533.709    -3805545.519 2  -2965352.497 2
  21250098.859     1400431.127 3   1091244.435 3
  23732340.540    -1751391.579 2  -1364717.606 1
 91  4 29 19 58  0.0010000  0  5 16 18 02 19 11
  24299550.575    -1342164.377 2  -1045842.480 1
  21615607.324     4118790.794 3   3209444.776 3
  23196729.542    -3830852.353 2  -2985072.042 1
  21253824.986     1420004.329 3   1106496.279 3
  23731587.162    -1755340.858 2  -1367794.973 2
 91  4 29 19 58 15.0010000  0  5 16 18 02 19 11
  24298625.408    -1347005.525 2  -1049614.784 1
  21624485.079     4165438.079 3   3245793.279 3
  23191926.265    -3856051.537 2  -3004707.755 2
  21257565.196     1439666.004 3   1121817.050 3
  23730867.663    -1759118.446 2  -1370738.512 1
 91  4 29 19 58 30.0010000  0  6 16 06 18 02 19 11
  24297735.631    -1351684.954 2  -1053261.128 1
  24711339.496      109040.62812     84970.647 1
  21633388.616     4212220.961 3   3282247.451 2
  23187147.872    -3881152.461 2  -3024266.867 2
  21261323.991     1459406.470 3   1137199.225 3
  23730181.433    -1762733.564 2  -1373555.460 1
 91  4 29 19 58 45.0010000  0  6 16 06 18 02 19 11
  24296874.619    -1356199.063 2  -1056778.590 1
  24708003.704       91512.687 2     71312.633 1
  21642316.435     4259143.069 3   3318810.112 2
  23182394.659    -3906151.158 2  -3043746.325 1
  21265092.382     1479229.504 3   1152645.743 3
  23729525.794    -1766182.158 2  -1376242.680 1
 91  4 29 19 59  0.0010000  0  6 16 06 18 02 19 11
  24296049.896    -1360546.469 2  -1060166.201 1
  24704670.616       74040.036 2     57697.672 1
  21651271.835     4306205.531 3   3355482.137 2
  23177654.639    -3931046.358 2  -3063145.134 1
  21268882.962     1499136.246 3   1168157.483 2
  23728906.119    -1769462.861 2  -1378799.069 1
 91  4 29 19 59 15.0010000  0  6 16 06 18 02 19 11
  24295251.548    -1364730.556 2  -1063426.556 1
  24701366.601       56618.794 2     44122.753 1
  21660254.814     4353404.379 3   3392260.435 3
  23172933.212    -3955841.749 2  -3082466.171 1
  21272686.124     1519123.028 3   1183731.586 3
  23728309.836    -1772579.267 2  -1381227.402 1
 91  4 29 19 59 30.0010000  0  6 16 06 18 02 19 11
  24294491.277    -1368747.364 2  -1066556.544 1
  24698059.592       39253.137 2     30591.056 1
  21669263.585     4400743.567 3   3429148.080 3
  23168238.458    -3980533.127 2  -3101706.171 1
  21276507.277     1539194.044 3   1199371.333 2
  23727749.824    -1775526.981 2  -1383524.303 1
 91  4 29 19 59 45.0010000  0  6 16 06 18 02 19 11
  24293760.384    -1372600.415 2  -1069558.914 1
  24694757.374       21939.510 2     17100.076 1
  21678298.130     4448219.397 3   3466142.209 2
  23163556.905    -4005123.819 3  -3120867.706 1
  21280341.028     1559345.870 3   1215074.045 3
  23727217.086    -1778309.142 2  -1385692.215 1
 91  4 29 20  0  0.0010000  0  6 16 06 18 02 19 11
  24293055.569    -1376288.509 2  -1072432.780 1
  24691483.338        4678.706 2      3650.145 1
  21687356.651     4495832.770 3   3503243.515 2
  23158893.334    -4029612.813 2  -3139949.996 2
  21284190.363     1579579.234 3   1230840.296 2
  23726722.730    -1780924.623 2  -1387730.248 1
 91  4 29 20  0 15.0010000  0  6 16 06 18 02 19 11
  24292382.837    -1379814.569 2  -1075180.425 1
  24688203.910      -12532.123 2     -9760.790 1
  21696443.660     4543580.790 3   3540449.743 3
  23154259.141    -4054002.560 3  -3158954.956 1
  21288054.382     1599891.381 3   1246667.938 3
  23726256.556    -1783375.977 2  -1389640.392 1
 91  4 29 20  0 30.0010000  0  6 16 06 18 02 19 11
  24291740.076    -1383178.411 2  -1077801.528 1
  24684935.877      -29693.346 2    -23133.164 1
  21705556.757     4591462.893 3   3577760.445 3
  23149638.140    -4078293.280 3  -3177882.743 1
  21291937.597     1620282.232 3   1262556.901 3
  23725818.861    -1785663.263 2  -1391422.664 1
 91  4 29 20  0 45.0010000  0  6 16 06 18 02 19 11
  24291136.892    -1386387.092 2  -1080301.821 1
  24681680.129      -46811.840 2    -36472.110 1
  21714691.135     4639472.164 3   3615170.240 3
  23145031.527    -4102491.864 3  -3196738.738 2
  21295827.407     1640744.591 3   1278501.595 3
  23725412.036    -1787793.054 2  -1393082.222 1
 91  4 29 20  1  0.0010000  0  6 16 06 18 02 19 11
  24290553.802    -1389424.872 2  -1082668.935 1
  24678437.276      -63872.186 2    -49765.788 1
  21723854.890     4687623.983 3   3652691.113 2
  23140445.304    -4126582.685 3  -3215510.778 2
  21299737.896     1661294.031 3   1294514.131 2
  23725038.496    -1789749.589 2  -1394606.802 1
 91  4 29 20  1 15.0010000  0  6 16 06 18 02 19 11
  24290003.980    -1392299.166 2  -1084908.677 1
  24675198.917      -80882.160 2    -63020.303 1
  21733041.130     4735910.391 3   3690316.869 3
  23135878.268    -4150573.452 3  -3234204.836 2
  21303665.783     1681923.142 3   1310588.766 2
  23724700.032    -1791540.305 2  -1396002.147 1
 91  4 29 20  1 30.0010000  0  6 16 06 18 02 19 11
  24289496.728    -1395009.067 2  -1087020.310 1
  24671970.147      -97840.921 2    -76234.860 1
  21742256.747     4784332.234 3   3728048.150 3
  23131335.209    -4174462.980 3  -3252820.025 2
  21307605.353     1702632.516 3   1326725.927 3
  23724392.149    -1793164.186 2  -1397267.479 1
 91  4 29 20  1 45.0010000  0  6 16 06 18 02 19 11
  24289008.672    -1397557.787 2  -1089006.307 1
  24668750.076     -114751.894 2    -89412.172 1
  21751498.155     4832886.112 3   3765882.313 2
  23126803.850    -4198254.414 3  -3271358.763 2
  21311563.211     1723418.943 3   1342923.127 3
  23724114.534    -1794624.400 2  -1398405.311 1
 91  4 29 20  2  0.0010000  0  6 16 06 18 02 19 11
  24288550.586    -1399941.822 2  -1090863.994 1
  24665537.203     -131611.804 2   -102549.690 1
  21760764.133     4881574.879 3   3803821.588 2
  23122297.968    -4221944.367 3  -3289818.422 2
  21315532.167     1744285.714 3   1359182.944 3
  23723865.405    -1795917.322 2  -1399412.785 1
 91  4 29 20  2 15.0010000  0  6 16 06 18 02 19 11
  24288128.780    -1402162.623 2  -1092594.508 1
  24662347.416     -148422.238 2   -115648.657 1
  21770052.308     4930397.179 3   3841864.917 2
  23117806.779    -4245534.535 3  -3308200.323 2
  21319517.605     1765231.356 3   1375504.216 2
  23723654.956    -1797044.092 2  -1400290.744 1
 91  4 29 20  2 30.0010000  0  6 16 06 18 02 19 11
  24287739.945    -1404223.975 2  -1094200.759 1
  24659155.519     -165186.998 2   -128711.957 1
  21779367.758     4979349.144 3   3880009.277 3
  23113337.473    -4269028.386 3  -3326507.192 2
  21323519.236     1786252.094 3   1391884.007 3
  23723475.079    -1798008.354 2  -1401042.137 1
 91  4 29 20  2 45.0010000  0  6 16 06 18 02 19 11
  24287380.200    -1406125.569 2  -1095682.528 1
  24655969.327     -181905.654 2   -141739.459 1
  21788709.593     5028430.733 3   3918254.639 2
  23108888.252    -4292425.252 3  -3344738.474 2
  21327531.661     1807348.468 3   1408322.727 3
  23723319.790    -1798809.399 2  -1401666.317 1
 91  4 29 20  3  0.0010000  0  6 16 06 18 02 19 11
  24287044.432    -1407862.442 2  -1097035.913 1
  24652801.423     -198573.880 2   -154727.641 1
  21798074.208     5077646.616 3   3956604.649 2
  23104451.918    -4315720.629 3  -3362890.687 2
  21331564.162     1828524.775 3   1424823.739 3
  23723199.872    -1799442.643 2  -1402159.760 1
 91  4 29 20  3 15.0010000  0  6 16 06 18 02 19 11
  24286744.637    -1409440.928 2  -1098265.914 1
  24649637.411     -215198.005 2   -167681.426 1
  21807463.106     5126990.302 3   3995054.244 2
  23100039.875    -4338920.787 3  -3380968.682 2
  21335605.065     1849774.762 3   1441382.155 3
  23723110.230    -1799914.115 2  -1402527.125 1
 91  4 29 20  3 30.0010000  0  6 16 06 18 02 19 11
  24286477.221    -1410862.067 2  -1099373.318 1
  24646480.893     -231779.057 2   -180601.651 1
  21816876.888     5176460.370 3   4033602.327 2
  23095643.415    -4362026.445 3  -3398973.043 1
  21339666.359     1871097.459 3   1457997.240 2
  23723047.872    -1800224.469 2  -1402768.933 1
 91  4 29 20  3 45.0010000  0  6 16 06 18 02 19 11
  24286234.689    -1412125.034 2  -1100357.472 1
  24643332.473     -248316.416 2   -193487.774 1
  21826315.554     5226057.589 3   4072249.491 2
  23091260.452    -4385036.843 3  -3416903.185 2
  21343732.740     1892493.538 3   1474669.502 3
  23723016.400    -1800372.854 2  -1402884.559 1
 91  4 29 20  4  0.0010000  0  6 16 06 18 02 19 11
  24286024.536    -1413233.072 2  -1101220.884 1
  24640189.156     -264813.678 2   -206342.763 1
  21835778.807     5275778.021 3   4110992.647 2
  23086901.772    -4407955.410 3  -3434761.771 2
  21347820.410     1913959.553 3   1491396.257 3
  23723025.692    -1800362.672 2  -1402876.598 1
 91  4 29 20  4 15.0010000  0  6 16 06 18 02 19 11
  24285843.761    -1414182.697 2  -1101960.853 1
  24637060.515     -281267.416 2   -219163.801 1
  21845261.543     5325625.076 3   4149834.479 2
  23082558.674    -4430778.468 3  -3452545.923 2
  21351916.176     1935498.985 3   1508180.221 3
  23723051.170    -1800190.164 2  -1402742.177 1
 91  4 29 20  4 30.0020000  0  6 16 06 18 02 19 11
  24285689.967    -1414980.640 2  -1102582.644 1
  24633935.778     -297685.558 2   -231957.088 1
  21854770.955     5375595.371 3   4188772.340 2
  23078233.571    -4453514.299 3  -3470262.117 2
  21356031.430     1957106.601 3   1525017.317 2
  23723119.822    -1799861.769 2  -1402486.316 1
 91  4 29 20  4 45.0020000  0  6 16 06 18 02 19 11
  24285566.751    -1415627.260 2  -1103086.480 1
  24630829.334     -314066.634 2   -244721.492 1
  21864304.960     5425681.166 3   4227800.210 2
  23073924.955    -4476160.411 3  -3487908.387 2
  21360156.268     1978778.928 3   1541904.844 3
  23723207.064    -1799377.954 2  -1402109.302 1
 91  4 29 20  5  0.0020000  0  6 16 06 18 02 19 11
  24285474.116    -1416122.137 2  -1103472.103 1
  24627706.992     -330411.466 2   -257457.642 1
  21873854.845     5475886.181 3   4266920.973 2
  23069629.829    -4498717.801 3  -3505485.538 2
  21364289.510     2000517.621 3   1558844.068 3
  23723332.078    -1798738.268 2  -1401610.837 1
 91  4 29 20  5 15.0020000  0  6 16 06 18 02 19 11
  24285409.960    -1416466.414 2  -1103740.387 1
  24624599.048     -346721.050 2   -270166.334 1
  21883432.013     5526209.160 3   4306133.658 3
  23065357.186    -4521187.496 3  -3522994.361 2
  21368441.937     2022321.613 3   1575834.178 2
  23723478.380    -1797943.539 2  -1400991.552 1
 91  4 29 20  5 30.0020000  0  6 16 06 18 02 19 11
  24285370.392    -1416660.694 2  -1103891.809 1
  24621506.686     -362996.155 2   -282848.150 1
  21893029.275     5576649.387 3   4345437.698 3
  23061090.538    -4543570.044 3  -3540435.271 2
  21372607.854     2044190.444 3   1592874.821 2
  23723660.953    -1796994.133 2  -1400251.769 1
 91  4 29 20  5 45.0020000  0  6 16 06 18 02 19 11
  24285360.192    -1416706.537 2  -1103927.504 1
  24618422.421     -379238.525 2   -295504.479 1
  21902651.107     5627205.001 3   4384831.653 3
  23056856.269    -4565867.030 3  -3557809.496 1
  21376774.669     2066122.251 3   1609964.533 3
  23723874.701    -1795891.600 2  -1399392.617 1
 91  4 29 20  6  0.0020000  0  6 16 06 18 02 19 11
  24285383.279    -1416599.657 2  -1103844.222 1
  24615330.661     -395444.086 2   -308132.175 1
  21912295.135     5677879.985 3   4424318.630 2
  23052623.204    -4588074.188 3  -3575113.743 2
  21380967.564     2088121.079 3   1627106.472 3
  23724113.036    -1794631.449 2  -1398410.691 1
 91  4 29 20  6 15.0020000  0  6 16 06 18 02 19 11
  24285435.141    -1416341.720 2  -1103643.251 1
  24612255.688     -411614.621 2   -320732.455 1
  21921960.444     5728672.230 3   4463896.978 2
  23048416.210    -4610193.204 3  -3592349.302 2
  21385161.663     2110185.437 3   1644299.462 3
  23724381.054    -1793215.224 2  -1397307.142 1
 91  4 29 20  6 30.0020000  0  6 16 06 18 02 19 11
  24285510.395    -1415928.160 2  -1103320.977 1
  24609190.610     -427745.787 2   -333302.138 1
  21931648.535     5779586.223 3   4503570.182 3
  23044227.512    -4632219.451 3  -3609512.577 2
  21389380.637     2132319.544 3   1661546.807 3
  23724676.949    -1791638.359 2  -1396078.410 1
 91  4 29 20  6 45.0020000  0  6 16 06 18 02 19 11
  24285622.216    -1415358.910 2  -1102877.408 1
  24606127.931     -443837.532 2   -345841.092 1
  21941357.915     5830621.968 3   4543338.260 2
  23040049.904    -4654152.734 3  -3626603.420 2
  21393597.517     2154523.664 3   1678848.718 2
  23725012.717    -1789900.468 2  -1394724.206 1
 91  4 29 20  7  0.0020000  0  6 16 06 18 02 19 11
  24285763.415    -1414629.623 2  -1102309.136 1
  24603077.240     -459885.825 2   -358346.211 1
  21951096.070     5881783.260 3   4583204.176 2
  23035898.680    -4675988.779 3  -3643618.468 2
  21397840.781     2176801.937 3   1696208.403 3
  23725371.563    -1787997.220 2  -1393241.139 1
 91  4 29 20  7 15.0020000  0  6 16 06 18 02 19 11
  24285925.004    -1413737.365 2  -1101613.868 1
  24600019.064     -475887.607 2   -370815.086 1
  21960855.514     5933073.140 3   4623170.285 2
  23031762.141    -4697724.441 3  -3660555.304 2
  21402091.541     2199157.337 3   1713628.188 3
  23725772.386    -1785925.363 2  -1391626.694 1
 91  4 29 20  7 30.0020000  0  6 16 06 18 02 19 11
  24286127.967    -1412677.722 2  -1100788.196 1
  24596987.856     -491838.648 2   -383244.360 1
  21970640.741     5984495.474 3   4663239.608 3
  23027646.891    -4719355.352 3  -3677410.525 2
  21406367.185     2221594.326 3   1731111.544 3
  23726198.398    -1783680.330 2  -1389877.332 1
 91  4 29 20  7 45.0020000  0  6 16 06 18 02 19 11
  24286365.997    -1411456.514 2  -1099836.575 1
  24593961.456     -507745.201 2   -395639.011 1
  21980451.149     6036043.834 3   4703407.124 2
  23023550.225    -4740887.756 3  -3694188.990 2
  21410643.422     2244106.664 3   1748653.620 3
  23726661.571    -1781268.297 2  -1387997.796 1
 91  4 29 20  8  0.0020000  0  6 16 06 18 02 19 11
  24286624.120    -1410072.361 2  -1098758.024 1
  24590956.633     -523605.892 2   -407997.911 1
  21990285.838     6087719.849 3   4743674.114 2
  23019467.956    -4762319.911 3  -3710889.330 2
  21414949.036     2266695.934 3   1766255.647 3
  23727146.634    -1778687.509 2  -1385986.756 1
 91  4 29 20  8 15.0020000  0  6 16 06 18 02 19 11
  24286917.319    -1408521.643 2  -1097549.703 1
  24587935.023     -539416.845 2   -420318.050 1
  22000143.920     6139526.848 3   4784043.176 2
  23015409.062    -4783647.921 3  -3727508.510 2
  21419255.558     2289365.847 3   1783920.499 2
  23727668.876    -1775933.904 2  -1383841.123 1
 91  4 29 20  8 30.0020000  0  6 16 06 18 02 19 11
  24287239.895    -1406804.285 2  -1096211.480 1
  24584934.406     -555178.514 2   -432599.856 1
  22010025.376     6191464.808 3   4824514.288 2
  23011372.957    -4804871.948 3  -3744046.685 2
  21423586.056     2312116.058 3   1801647.925 3
  23728230.389    -1773007.547 2  -1381560.837 1
 91  4 29 20  8 45.0020000  0  6 16 06 18 02 19 11
  24287604.439    -1404921.107 2  -1094744.098 1
  24581946.972     -570891.678 2   -444843.770 1
  22019935.320     6243532.434 3   4865086.438 2
  23007348.248    -4825992.704 3  -3760504.388 2
  21427932.452     2334946.041 3   1819437.523 3
  23728818.278    -1769909.114 2  -1379146.472 1
 91  4 29 20  9  0.0020000  0  6 16 06 18 02 19 11
  24287992.375    -1402877.925 2  -1093151.972 1
  24578968.831     -586562.495 2   -457054.688 1
  22029868.639     6295723.576 3   4905754.820 2
  23003349.914    -4847016.016 3  -3776886.145 2
  21432292.633     2357849.691 3   1837284.514 3
  23729437.656    -1766644.365 2  -1376602.514 1
 91  4 29 20  9 15.0020000  0  6 16 06 18 02 19 11
  24288412.986    -1400672.437 2  -1091433.394 1
  24575993.098     -602188.501 2   -469230.757 1
  22039819.948     6348040.654 3   4946521.343 2
  22999376.159    -4867939.378 3  -3793190.019 2
  21436662.708     2380829.334 3   1855190.720 3
  23730091.803    -1763210.722 2  -1373926.936 1
 91  4 29 20  9 30.0020000  0  6 16 06 18 02 19 11
  24288857.277    -1398310.850 2  -1089593.192 1
  24573023.952     -617776.137 2   -481376.895 1
  22049799.440     6400477.116 3   4987380.903 2
  22995404.211    -4888768.942 3  -3809420.824 2
  21441048.070     2403878.541 3   1873151.136 3
  23730776.227    -1759614.353 2  -1371124.553 1
 91  4 29 20  9 45.0020000  0  6 16 06 18 02 19 11
  24289342.637    -1395791.068 2  -1087629.754 1
  24570063.802     -633323.229 2   -493491.457 1
  22059800.814     6453034.984 3   5028335.047 2
  22991457.146    -4909502.729 3  -3825576.986 2
  21445448.125     2426999.654 3   1891167.582 2
  23731491.834    -1755852.877 2  -1368193.549 1
 91  4 29 20 10  0.0020000  0  6 16 06 18 02 19 11
  24289851.983    -1393111.442 2  -1085541.730 1
  24567112.638     -648828.667 2   -505573.501 1
  22069828.276     6505715.265 3   5069384.582 2
  22987532.862    -4930139.155 3  -3841657.272 2
  21449863.772     2450193.986 3   1909241.088 2
  23732243.407    -1751924.766 2  -1365132.643 1
 91  4 29 20 10 15.0020000  0  6 16 06 18 02 19 11
  24290383.813    -1390273.984 2  -1083330.706 1
  24564175.278     -664294.380 2   -517624.683 1
  22079875.518     6558516.049 3   5110528.027 2
  22983623.865    -4950680.207 3  -3857663.252 2
  21454289.008     2473459.548 3   1927370.091 3
  23733022.271    -1747831.940 2  -1361943.451 1
 91  4 29 20 10 30.0020000  0  6 16 06 18 02 19 11
  24290964.818    -1387275.505 2  -1080994.227 1
  24561236.408     -679717.600 2   -529642.685 1
  22089947.348     6611439.775 3   5151767.257 2
  22979736.158    -4971122.951 3  -3873592.624 2
  21458733.430     2496799.359 3   1945556.952 3
  23733829.309    -1743571.215 2  -1358623.363 1
 91  4 29 20 10 45.0020000  0  6 16 06 18 02 19 11
  24291562.000    -1384118.259 2  -1078534.053 1
  24558308.340     -695100.274 2   -541629.148 1
  22100040.763     6664484.351 3   5193100.652 2
  22975857.742    -4991469.266 3  -3889446.866 2
  21463185.050     2520211.457 3   1963800.140 3
  23734673.524    -1739144.379 2  -1355173.881 1
 91  4 29 20 11  0.0020000  0  6 16 06 18 02 19 11
  24292195.163    -1380805.006 2  -1075952.257 1
  24555392.252     -710445.461 2   -553586.368 1
  22110156.357     6717646.794 3   5234525.900 2
  22972007.212    -5011721.994 3  -3905228.167 2
  21467654.051     2543692.787 3   1982097.285 3
  23735545.921    -1734554.253 2  -1351597.155 1
 91  4 29 20 11 15.0020000  0  6 16 06 18 02 19 11
  24292859.807    -1377336.609 2  -1073249.642 1
  24552477.970     -725753.788 2   -565514.853
  22120293.538     6770926.154 3   5276042.249 2
  22968173.469    -5031881.487 3  -3920936.833 2
  21472138.050     2567242.831 3   2000447.960 2
  23736450.994    -1729801.119 2  -1347893.389 1
 91  4 29 20 11 30.0020000  0  6 16 06 18 02 19 11
  24293545.130    -1373711.271 2  -1070424.676 1
  24549572.683     -741023.866 2   -577413.555 1
  22130457.705     6824323.771 3   5317650.749 2
  22964354.707    -5051946.294 3  -3936571.703 2
  21476630.434     2590863.045 3   2018853.318 3
  23737385.750    -1724883.520 2  -1344061.477 1
 91  4 29 20 11 45.0020000  0  6 16 06 18 02 19 11
  24294263.128    -1369931.178 2  -1067479.155 1
  24546674.891     -756257.965 2   -589284.215 1
  22140639.855     6877837.321 3   5359349.586 2
  22960555.437    -5071918.526 3  -3952134.451 2
  21481136.019     2614551.254 3   2037311.665 2
  23738354.682    -1719803.407 2  -1340102.933 1
 91  4 29 20 12  0.0020000  0  6 16 06 18 02 19 11
  24295014.115    -1366000.049 2  -1064415.928 1
  24543779.795     -771459.732 2   -601129.686 1
  22150842.395     6931463.181 3   5401135.924 2
  22956770.258    -5091801.502 3  -3967627.656 2
  21485660.791     2638303.927 3   2055820.244 2
  23739353.585    -1714564.235 2  -1336020.428 1
 91  4 29 20 12 15.0020000  0  6 16 06 18 02 19 11
  24295788.774    -1361917.923 2  -1061235.056 1
  24540896.688     -786629.470 2   -612950.229 1
  22161070.709     6985200.723 3   5443009.303 2
  22952999.772    -5111595.377 3  -3983051.417 2
  21490191.548     2662120.831 3   2074378.877 3
  23740378.279    -1709165.910 2  -1331813.953 1
 91  4 29 20 12 30.0020000  0  6 16 06 18 02 19 11
  24296593.116    -1357681.872 2  -1057934.236 1
  24538013.885     -801764.614 2   -624743.685 1
  22171318.812     7039052.325 3   5484971.568 2
  22949253.864    -5131297.741 3  -3998403.872 2
  21494741.500     2686004.605 3   2092989.589 2
  23741430.850    -1703605.829 2  -1327481.406 1
 91  4 29 20 12 45.0020000  0  6 16 06 18 02 19 11
  24297428.937    -1353298.237 2  -1054518.402 1
  24535142.173     -816871.302 2   -636515.120 1
  22181585.212     7093011.536 3   5527017.670 2
  22945522.048    -5150914.526 3  -4013689.642 2
  21499291.147     2709949.083 3   2111647.621 2
  23742519.395    -1697889.832 2  -1323027.378 1
 91  4 29 20 13  0.0020000  0  6 16 06 18 02 19 11
  24298283.047    -1348760.917 2  -1050982.830 1
  24532272.860     -831943.426 2   -648259.572 1
  22191873.188     7147084.785 3   5569152.639 2
  22941809.113    -5170439.258 3  -4028903.671 2
  21503864.788     2733960.419 3   2130357.750 2
  23743640.624    -1692011.581 2  -1318446.894 2
 91  4 29 20 13 15.0020000  0  6 16 06 18 02 19 11
  24299186.323    -1344067.553 2  -1047325.651 1
  24529407.743     -846978.662 2   -659975.260 1
  22202189.041     7201274.075 3   5611378.021 2
  22938112.973    -5189869.616 3  -4044044.175 2
  21508445.915     2758041.045 3   2149121.867 3
  23744790.619    -1685968.528 2  -1313738.037 1
 91  4 29 20 13 30.0020000  0  6 16 06 18 02 19 11
  24300109.387    -1339231.749 2  -1043557.498 1
  24526553.123     -861991.051 2   -671673.134 1
  22212515.696     7255564.884 3   5653682.519 2
  22934428.526    -5209219.528 3  -4059122.005 2
  21513039.336     2782177.065 3   2167929.148 2
  23745969.704    -1679774.533 2  -1308911.495 2
 91  4 29 20 13 45.0020000  0  6 16 06 18 02 19 11
  24301054.927    -1334248.576 2  -1039674.510 1
  24523702.997     -876975.683 2   -683349.456 1
  22222868.727     7309962.387 3   5696070.152 2
  22930760.568    -5228483.881 3  -4074133.158 2
  21517640.549     2806373.423 3   2186783.452 3
  23747177.573    -1673424.475 2  -1303963.383 1
 91  4 29 20 14  0.0020000  0  6 16 06 18 02 19 11
  24302032.549    -1329115.365 2  -1035674.590 1
  24520856.465     -891929.878 2   -695001.986 1
  22233242.742     7364469.148 3   5738542.922 2
  22927111.789    -5247659.929 3  -4089075.491 2
  21522259.150     2830632.795 3   2205686.855 3
  23748414.515    -1666915.451 2  -1298891.420 1
 91  4 29 20 14 15.0020000  0  6 16 06 18 02 19 11
  24303033.860    -1323837.124 2  -1031561.667 1
  24518012.629     -906858.730 2   -706634.779 1
  22243631.755     7419079.904 3   5781096.718 2
  22923478.305    -5266752.474 3  -4103952.761 2
  21526884.950     2854950.119 3   2224635.413 3
  23749685.632    -1660252.361 2  -1293699.383 1
 91  4 29 20 14 30.0020000  0  6 16 06 18 02 19 11
  24304063.650    -1318414.546 2  -1027336.293 1
  24515174.796     -921762.955 2   -718248.410 1
  22254045.042     7473793.753 3   5823730.856 2
  22919857.716    -5285762.144 3  -4118765.457 2
  21531525.434     2879324.896 3   2243628.737 2
  23750981.337    -1653435.597 2  -1288387.612 1
 91  4 29 20 14 45.0020000  0  6 16 06 18 02 19 11
  24305121.011    -1312845.398 2  -1022996.652 1
  24512346.255     -936640.787 2   -729841.448 1
  22264479.618     7528612.166 3   5866446.473 2
  22916260.502    -5304687.104 3  -4133512.145 2
  21536175.515     2903759.072 3   2262668.363 2
  23752303.723    -1646463.145 2  -1282954.493 1
 91  4 29 20 15  0.0020000  0  6 16 06 18 02 19 11
  24306210.158    -1307132.782 2  -1018545.308 1
  24509522.810     -951495.175 2   -741416.233 1
  22274928.285     7583532.324 3   5909241.369 2
  22912671.987    -5323530.034 3  -4148194.911 2
  21540834.593     2928249.811 3   2281752.052 2
  23753661.184    -1639337.700 2  -1277402.185 1
 91  4 29 20 15 15.0020000  0  6 16 06 18 02 19 11
  24307334.684    -1301276.521 2  -1013981.992 1
  24506696.364     -966325.831 2   -752972.493 1
  22285396.740     7638554.315 3   5952115.612 2
  22909100.861    -5342290.843 3  -4162813.692 2
  21545501.461     2952797.250 3   2300879.915 2
  23755045.624    -1632058.919 2  -1271730.417 1
 91  4 29 20 15 30.0020000  0  6 16 06 18 02 19 11
  24308469.996    -1295275.030 2  -1009305.480 1
  24503877.115     -981131.546 2   -764509.372 1
  22295886.781     7693679.177 3   5995070.020 2
  22905545.623    -5360967.814 3  -4177367.144 2
  21550192.612     2977402.807 3   2320053.080 2
  23756466.045    -1624625.314 2  -1265937.966 1
 91  4 29 20 15 45.0020000  0  6 16 06 18 02 19 11
  24309639.483    -1289129.715 2  -1004516.934 1
  24501072.560     -995913.714 2   -776027.906 1
  22306396.001     7748905.368 3   6038103.388 2
  22902006.571    -5379562.430 3  -4191856.421 2
  21554879.566     3002064.993 3   2339270.362 2
  23757905.042    -1617038.312 2  -1260026.016 1
 91  4 29 20 16  0.0020000  0  6 16 06 18 02 19 11
  24310838.959    -1282846.239 2   -999620.711 1
  24498253.913    -1010678.026 2   -787532.442 1
  22316924.415     7804227.023 3   6081211.147 2
  22898486.705    -5398080.178 3  -4206285.804 2
  21559584.215     3026778.285 3   2358527.472 2
  23759377.928    -1609303.317 2  -1253998.738 1
 91  4 29 20 16 15.0020000  0  6 16 06 18 02 19 11
  24312050.719    -1276421.802 2   -994614.680 1
  24495452.351    -1025421.839 2   -799021.093 1
  22327470.515     7859646.775 3   6124395.326 2
  22894973.740    -5416518.273 3  -4220653.108 2
  21564296.646     3051545.347 3   2377826.475 2
  23760876.884    -1601417.414 2  -1247853.853 1
 91  4 29 20 16 30.0020000  0  6 16 06 18 02 19 11
  24313308.348    -1269849.428 2   -989493.337 1
  24492651.093    -1040137.975 2   -810488.122 1
  22338036.395     7915171.630 3   6167661.414 2
  22891482.955    -5434869.372 3  -4234952.641 2
  21569019.879     3076373.490 3   2397173.075 3
  23762409.423    -1593373.217 2  -1241585.630 1
 91  4 29 20 16 45.0020000  0  6 16 06 18 02 19 11
  24314589.961    -1263128.860 2   -984256.560 1
  24489859.425    -1054826.363 2   -821933.593 1
  22348623.268     7970801.437 3   6211009.284 2
  22888007.160    -5453133.285 3  -4249184.219 2
  21573753.303     3101263.024 3   2416567.513 3
  23763971.349    -1585170.444 2  -1235193.862 1
 91  4 29 20 17  0.0020000  0  6 16 06 18 02 19 11
  24315900.953    -1256258.271 2   -978902.827 1
  24487068.952    -1069485.367 2   -833356.119 1
  22359230.828     8026537.770 3   6254440.153 2
  22884547.261    -5471308.149 3  -4263346.417 2
  21578506.812     3126215.594 3   2436011.070 2
  23765562.041    -1576807.201 2  -1228677.025 1
 91  4 29 20 17 15.0020000  0  6 16 06 18 02 19 11
  24317223.932    -1249235.183 2   -973430.294 1
  24484282.684    -1084112.667 2   -844753.914 1
  22369856.972     8082382.774 3   6297955.711 2
  22881106.541    -5489391.678 3  -4277437.457 2
  21583265.713     3151233.418 3   2455505.466 3
  23767183.018    -1568281.016 2  -1222033.250 1
 91  4 29 20 17 30.0020000  0  6 16 06 18 02 19 11
  24318589.787    -1242056.136 2   -967836.237 1
  24481505.107    -1098704.804 2   -856124.345 1
  22380506.499     8138339.696 3   6341558.480 2
  22877688.907    -5507380.101 3  -4291454.376 2
  21588040.215     3176320.185 3   2475053.597 2
  23768842.970    -1559588.297 2  -1215259.697 1
 91  4 29 20 17 45.0020000  0  6 16 06 18 02 19 11
  24319992.217    -1234722.163 2   -962121.444 1
  24478733.829    -1113262.662 2   -867468.064 1
  22391174.010     8194407.456 3   6385247.618 2
  22874284.762    -5525274.381 3  -4305397.946 2
  21592824.602     3201474.897 3   2494654.666 2
  23770526.907    -1550729.860 2  -1208357.001 1
 91  4 29 20 18  0.0020000  0  6 16 06 18 02 19 11
  24321421.032    -1227233.266 2   -956285.940 1
  24475973.632    -1127786.549 2   -878785.303 1
  22401865.810     8250585.667 3   6429022.816 2
  22870892.911    -5543074.596 3  -4319268.206 2
  21597632.067     3226697.507 3   2514308.643 2
  23772244.715    -1541705.651 2  -1201325.134 1
 91  4 29 20 18 15.0020000  0  6 16 06 18 02 19 11
  24322882.820    -1219586.020 2   -950327.069 1
  24473211.647    -1142273.249 2   -890073.597 1
  22412577.993     8306877.610 3   6472886.630 2
  22867531.641    -5560777.308 3  -4333062.490 2
  21602438.643     3251991.403 3   2534018.159 3
  23773995.801    -1532512.237 2  -1194161.432 1
 91  4 29 20 18 30.0020000  0  6 16 06 18 02 19 11
  24324353.001    -1211785.671 2   -944248.860 1
  24470459.852    -1156727.646 2   -901336.671 1
  22423307.565     8363277.993 3   6516834.944 2
  22864178.460    -5578387.380 3  -4346784.594 2
  21607273.400     3277351.645 3   2553779.376 2
  23775774.772    -1523154.391 2  -1186869.580 1
 91  4 29 20 18 45.0020000  0  6 16 06 18 02 19 11
  24325872.051    -1203831.981 2   -938051.217 1
  24467719.749    -1171149.692 2   -912574.521 1
  22434064.123     8419787.030 3   6560867.926 2
  22860844.168    -5595904.757 3  -4360434.462 2
  21612104.248     3302778.338 3   2573592.383 2
  23777588.522    -1513631.910 2  -1179449.481 1
 91  4 29 20 19  0.0020000  0  6 16 06 18 02 19 11
  24327415.976    -1195721.337 2   -931731.231 1
  24464988.642    -1185535.903 2   -923784.474 1
  22444838.664     8476407.848 3   6604988.017 2
  22857523.069    -5613325.745 3  -4374009.237 2
  21616962.991     3328274.808 3   2593459.756 3
  23779428.342    -1503941.065 2  -1171898.148 1
 91  4 29 20 19 15.0020000  0  6 16 06 18 02 19 11
  24328996.486    -1187456.254 2   -925290.884 1
  24462251.837    -1199888.788 2   -934968.513 1
  22455632.688     8533137.605 3   6649192.995 2
  22854224.751    -5630652.627 3  -4387510.668 2
  21621819.928     3353838.734 3   2613379.687 2
  23781303.245    -1494084.234 2  -1164217.495 1
 91  4 29 20 19 30.0020000  0  6 16 06 18 02 19 11
  24330587.789    -1179031.174 2   -918725.903 1
  24459524.028    -1214202.914 2   -946122.287 1
  22466449.799     8589981.660 3   6693487.019 2
  22850950.418    -5647879.888 3  -4400934.471 2
  21626700.248     3379475.700 3   2633356.540 2
  23783210.528    -1484055.779 2  -1156403.108 2
 91  4 29 20 19 45.0020000  0  6 16 06 18 02 19 11
  24332225.850    -1170458.666 2   -912046.072 1
  24456801.305    -1228490.984 2   -957255.803 1
  22477285.198     8646927.382 3   6737860.278 2
  22847690.770    -5665020.178 3  -4414290.506 2
  21631589.860     3405173.104 3   2653380.478 2
  23785148.680    -1473868.180 2  -1148464.718 1
 91  4 29 20 20  0.0020000  0  6 16 06 18 02 19 11
  24333884.903    -1161727.816 2   -905242.743 1
  24454090.885    -1242742.157 2   -968360.525 1
  22488144.582     8703985.366 3   6782321.002 2
  22844448.816    -5682062.470 3  -4427570.195 2
  21636498.667     3430941.850 3   2673460.020 3
  23787123.416    -1463510.496 2  -1140393.765 1
 91  4 29 20 20 15.0020000  0  6 16 06 18 02 19 11
  24335574.529    -1152843.464 2   -898319.879 1
  24451396.650    -1256961.395 2   -979440.365 1
  22499024.347     8761150.403 3   6826865.163 2
  22841217.952    -5699011.609 3  -4440777.272 2
  21641409.263     3456777.056 3   2693591.343 2
  23789121.231    -1452987.555 2  -1132194.074 2
 91  4 29 20 20 30.0020000  0  6 16 06 18 02 19 11
  24337291.744    -1143808.706 2   -891279.832 1
  24448690.426    -1271151.646 2   -990497.669 1
  22509921.206     8818419.435 3   6871490.347 2
  22838008.674    -5715870.281 3  -4453913.877 2
  21646345.048     3482675.909 3   2713772.251 2
  23791155.926    -1442302.146 2  -1123867.781 2
 91  4 29 20 20 45.0020000  0  6 16 06 18 02 19 11
  24339040.430    -1134618.648 2   -884118.726 1
  24445989.595    -1285308.119 2  -1001528.641 1
  22520836.648     8875796.988 3   6916200.095 2
  22834826.077    -5732633.701 3  -4466976.243 2
  21651279.630     3508643.290 3   2734006.573 2
  23793222.093    -1431449.217 2  -1115410.949 1
 91  4 29 20 21  0.0020000  0  6 16 06 18 02 19 11
  24340816.705    -1125277.727 2   -876840.100 1
  24443306.450    -1299435.025 2  -1012536.539 1
  22531778.170     8933278.716 3   6960991.001 2
  22831655.774    -5749306.190 3  -4479967.770 2
  21656233.703     3534675.002 3   2754291.016 3
  23795319.147    -1420432.863 2  -1106826.751 1
 91  4 29 20 21 15.0020000  0  6 16 06 18 02 19 11
  24342632.549    -1115785.216 2   -869443.343 1
  24440620.311    -1313532.052 2  -1023521.169 1
  22542735.886     8990864.948 3   7005863.357 2
  22828493.864    -5765887.165 3  -4492887.964 2
  21661200.366     3560771.382 3   2774625.849 2
  23797444.976    -1409252.582 2  -1098114.846 1
 91  4 29 20 21 30.0020000  0  6 16 06 18 02 19 11
  24344460.380    -1106144.815 2   -861931.354 1
  24437947.357    -1327602.861 2  -1034485.366 1
  22553713.085     9048551.733 3   7050814.057 2
  22825354.736    -5782380.034 3  -4505739.519 2
  21666181.112     3586928.950 3   2795008.361 2
  23799601.675    -1397911.870 2  -1089277.916 1
 91  4 29 20 21 45.0020000  0  6 16 06 18 02 19 11
  24346330.189    -1096360.663 2   -854307.324 1
  24435275.615    -1341651.400 2  -1045432.201 1
  22564709.480     9106335.061 3   7095840.000 2
  22822235.099    -5798788.731 3  -4518525.487 2
  21671163.062     3613143.600 3   2815435.346 2
  23801793.762    -1386414.502 2  -1080318.934 1
 91  4 29 20 22  0.0020000  0  6 16 06 18 02 19 11
  24348204.490    -1086433.153 2   -846571.582 1
  24432607.459    -1355678.201 2  -1056362.117 1
  22575724.153     9164214.226 3   7140940.604 2
  22819131.046    -5815113.429 3  -4531246.000 2
  21676164.800     3639415.129 3   2835906.660 2
  23804012.522    -1374760.776 2  -1071238.088 1
 91  4 29 20 22 15.0020000  0  6 16 06 18 02 19 11
  24350131.553    -1076360.009 2   -838722.394 1
  24429943.806    -1369681.053 2  -1067273.429 1
  22586757.411     9222191.133 3   7186117.380 2
  22816034.784    -5831352.038 3  -4543899.427 2
  21681176.137     3665745.814 3   2856424.067 3
  23806259.474    -1362948.404 2  -1062033.632 1
 91  4 29 20 22 30.0020000  0  6 16 06 18 02 19 11
  24352077.209    -1066144.486 2   -830762.256 1
  24427277.151    -1383663.382 2  -1078168.669 1
  22597808.363     9280262.308 3   7231367.615 2
  22812962.219    -5847507.823 3  -4556488.317 2
  21686194.662     3692132.311 3   2876984.961 2
  23808535.497    -1350980.599 2  -1052708.079 1
 91  4 29 20 22 45.0020000  0  6 16 06 18 02 19 11
  24354039.049    -1055784.974 2   -822689.871 1
  24424626.087    -1397623.476 2  -1089046.561 1
  22608875.204     9338429.318 3   7276692.518 2
  22809904.330    -5863579.140 3  -4569011.392 2
  21691227.872     3718576.320 3   2897590.668 3
  23810840.295    -1338855.606 2  -1043260.014 2
 91  4 29 20 23  0.0020000  0  6 16 06 18 02 19 11
  24356038.661    -1045279.532 2   -814503.850 1
  24421969.021    -1411559.800 2  -1099905.967 1
  22619962.724     9396693.667 3   7322093.272 2
  22806860.541    -5879564.111 3  -4581467.181 2
  21696273.384     3745079.594 3   2918242.574 3
  23813182.577    -1326571.589 2  -1033688.057 1
 91  4 29 20 23 15.0020000  0  6 16 06 18 02 19 11
  24358069.456    -1034628.996 2   -806204.690 1
  24419328.454    -1425472.955 2  -1110747.305 1
  22631070.939     9455054.164 3   7367568.946 2
  22803835.930    -5895463.310 3  -4593856.129 2
  21701326.688     3771641.396 3   2938940.075 3
  23815548.539    -1314129.170 2  -1023992.657 1
 91  4 29 20 23 30.0020000  0  6 16 06 18 02 19 11
  24360124.237    -1023829.523 2   -797789.549 1
  24416674.084    -1439358.949 2  -1121567.539 1
  22642195.331     9513514.946 3   7413122.755 2
  22800830.217    -5911272.641 3  -4606175.060 2
  21706391.378     3798265.826 3   2959686.375 3
  23817948.074    -1301524.207 2  -1014170.595 1
 91  4 29 20 23 45.0020000  0  6 16 06 18 02 19 11
  24362203.299    -1012884.255 2   -789260.729 1
  24414041.012    -1453221.168 2  -1132369.214 1
  22653337.120     9572072.501 3   7458751.980 2
  22797834.390    -5926995.150 3  -4618426.338 2
  21711469.863     3824949.996 3   2980479.221 2
  23820379.998    -1288759.687 2  -1004224.215 1
 91  4 29 20 24  0.0020000  0  6 16 06 18 02 19 11
  24364321.032    -1001789.966 2   -780615.874 1
  24411406.736    -1467056.382 2  -1143149.859 1
  22664495.993     9630729.843 3   7504458.967 2
  22794859.250    -5942627.911 3  -4630607.674 2
  21716560.039     3851696.730 3   3001320.833 2
  23822834.694    -1275832.748 2   -994151.265 1
 91  4 29 20 24 15.0020000  0  6 16 06 18 02 19 11
  24366453.754     -990550.118 2   -771857.505 1
  24408785.347    -1480867.847 2  -1153911.973 1
  22675679.157     9689483.655 3   7550241.110 2
  22791905.094    -5958173.707 3  -4642721.255 2
  21721661.305     3878502.901 3   3022208.748 2
  23825331.366    -1262746.252 2   -983954.007 2
 91  4 29 20 24 30.0020000  0  6 16 06 18 02 19 11
  24368632.649     -979162.440 2   -762984.031 1
  24406153.470    -1494653.706 2  -1164654.137 1
  22686878.498     9748335.523 3   7596099.678 2
  22788960.230    -5973630.895 3  -4654765.777 2
  21726775.170     3905370.538 3   3043144.564 2
  23827845.724    -1249498.131 2   -973630.777 1
 91  4 29 20 24 45.0020000  0  6 16 06 18 02 19 11
  24370820.828     -967629.574 2   -753997.388 1
  24403544.375    -1508416.383 2  -1175378.253 1
  22698094.939     9807282.806 3   7642032.586 2
  22786037.554    -5989001.599 3  -4666742.920 2
  21731899.217     3932297.240 3   3064126.398 2
  23830398.456    -1236090.662 2   -963183.392 1
 91  4 29 20 25  0.0020000  0  6 16 06 18 02 19 11
  24373040.792     -955952.875 2   -744898.647 1
  24400921.197    -1522156.891 2  -1186085.072 1
  22709328.456     9866324.169 3   7688038.812 2
  22783125.671    -6004286.850 3  -4678653.481 2
  21737034.362     3959281.930 3   3085153.433 2
  23832980.870    -1222524.875 2   -952612.627 1
 91  4 29 20 25 15.0020000  0  6 16 06 18 02 19 11
  24375290.736     -944130.437 2   -735686.385 1
  24398314.195    -1535873.736 2  -1196773.473 1
  22720583.271     9925461.113 3   7734119.507 2
  22780238.070    -6019484.965 3  -4690496.132 2
  21742177.002     3986326.424 3   3106227.052 2
  23835595.959    -1208799.008 2   -941917.144 1
 91  4 29 20 25 30.0020000  0  6 16 06 18 02 19 11
  24377569.760     -932163.907 2   -726361.826 1
  24395704.507    -1549568.585 2  -1207444.715 1
  22731857.263     9984691.836 3   7780273.276 2
  22777356.463    -6034597.410 3  -4702272.028 2
  21747340.330     4013429.102 3   3127346.016 2
  23838233.534    -1194914.563 2   -931098.069 1
 91  4 29 20 25 45.0020000  0  6 16 06 18 02 19 11
  24379876.958     -920054.978 2   -716926.304 1
  24393109.206    -1563243.033 2  -1218100.095 1
  22743145.948    10044014.373 3   7826498.598 2
  22774499.138    -6049625.805 3  -4713982.436 2
  21752505.455     4040588.308 3   3148509.023 3
  23840908.286    -1180873.260 2   -920156.809 1
 91  4 29 20 26  0.0020000  0  6 16 06 18 02 19 11
  24382197.960     -907803.025 2   -707379.310 1
  24390509.699    -1576896.373 2  -1228738.996 1
  22754450.522    10103429.430 3   7872796.016 2
  22771653.811    -6064569.266 3  -4725626.650 2
  21757684.365     4067804.932 3   3169716.774 2
  23843609.117    -1166674.043 2   -909092.465 1
 91  4 29 20 26 15.0020000  0  6 16 06 18 02 19 11
  24384564.218     -895412.246 2   -697724.164 1
  24387909.599    -1590533.331 2  -1239365.155 1
  22765773.384    10162932.145 3   7919161.728 2
  22768829.170    -6079432.077 3  -4737208.030 2
  21762873.179     4095074.447 3   3190965.741 2
  23846341.123    -1152321.317 2   -897908.515 1
 91  4 29 20 26 30.0020000  0  6 16 06 18 02 19 11
  24386948.467     -882883.110 2   -687961.209 1
  24385314.298    -1604153.810 2  -1249978.467 1
  22777114.228    10222522.426 3   7965595.670 2
  22766015.017    -6094214.551 3  -4748726.811 2
  21768072.776     4122396.887 3   3212255.941 2
  23849100.709    -1137815.165 2   -886605.002 2
 91  4 29 20 26 45.0020000  0  6 16 06 18 02 19 11
  24389351.004     -870215.159 2   -678090.072 1
  24382733.385    -1617757.711 2  -1260578.808 1
  22788467.968    10282200.106 3   8012097.719 2
  22763217.948    -6108916.479 3  -4760182.833 2
  21773282.268     4149772.403 3   3233587.514 2
  23851893.878    -1123155.367 2   -875181.779 2
 91  4 29 20 27  0.0020000  0  6 16 06 18 02 19 11
  24391788.320     -857405.539 2   -668108.557 1
  24380146.774    -1631342.066 2  -1271163.990 1
  22799842.395    10341967.831 3   8058669.935 2
  22760434.682    -6123534.637 3  -4771573.573 2
  21778505.555     4177204.072 3   3254962.824 2
  23854707.726    -1108338.648 2   -863636.269 1
 91  4 29 20 27 15.0020000  0  6 16 06 18 02 19 11
  24394257.404     -844456.408 2   -658018.322 1
  24377567.361    -1644908.991 2  -1281735.542 1
  22811234.813    10401823.384 3   8105310.600 2
  22757668.796    -6138071.188 3  -4782900.726 2
  21783734.530     4204689.655 3   3276380.161 2
  23857561.151    -1093367.137 2   -851970.153 2
 91  4 29 20 27 30.0020000  0  6 16 06 18 02 19 11
  24396752.279     -831365.976 2   -647817.960 1
  24374992.145    -1658456.559 2  -1292292.054 1
  22822638.016    10461768.684 3   8152021.190 2
  22754919.698    -6152524.034 3  -4794162.641 2
  21788975.808     4232231.167 3   3297841.072 3
  23860438.264    -1078238.883 2   -840181.909 1
 91  4 29 20 27 45.0020000  0  6 16 06 18 02 19 11
  24399262.144     -818132.686 2   -637506.345 1
  24372408.536    -1671983.604 2  -1302832.558 1
  22834063.406    10521804.846 3   8198802.581 2
  22752184.393    -6166891.755 3  -4805358.242 2
  21794227.573     4259830.052 3   3319346.685 2
  23863343.847    -1062952.470 2   -828270.412 1
 91  4 29 20 28  0.0020000  0  6 16 06 18 02 19 11
  24401811.577     -804758.636 2   -627084.993 1
  24369833.617    -1685491.766 2  -1313358.310 1
  22845504.982    10581929.589 3   8245652.994 2
  22749464.672    -6181176.021 3  -4816488.801 2
  21799491.928     4287484.657 3   3340895.725 2
  23866284.514    -1047509.512 2   -816236.933 1
 91  4 29 20 28 15.0020000  0  6 16 06 18 02 19 11
  24404385.597     -791247.085 2   -616556.541 1
  24367276.985    -1698984.576 2  -1323872.148 1
  22856964.252    10642139.553 3   8292569.805 2
  22746761.747    -6195380.213 3  -4827556.981 2
  21804761.676     4315191.613 3   3362485.554 2
  23869252.456    -1031913.330 2   -804084.054 1
 91  4 29 20 28 30.0030000  0  6 16 06 18 02 19 11
  24406984.793     -777596.737 2   -605919.850 1
  24364716.160    -1712462.586 2  -1334374.425 1
  22868435.208    10702438.907 3   8339556.291 2
  22744077.706    -6209504.594 3  -4838562.945 2
  21810042.822     4342953.416 3   3384118.122 2
  23872246.489    -1016162.348 2   -791810.555 1
 91  4 29 20 28 45.0030000  0  6 16 06 18 02 19 11
  24409599.883     -763811.441 2   -595178.108 1
  24362143.335    -1725925.892 2  -1344865.286 1
  22879930.155    10762817.434 3   8386604.449 2
  22741400.555    -6223549.445 3  -4849506.960 2
  21815334.155     4370764.118 3   3405788.790 2
  23875277.086    -1000260.671 2   -779419.635 1
 91  4 29 20 29  0.0030000  0  6 16 06 18 02 19 11
  24412256.643     -749892.255 2   -584331.995 1
  24359581.015    -1739377.224 2  -1355346.758 1
  22891433.487    10823277.184 3   8433715.915 2
  22738747.991    -6237517.635 3  -4860391.227 2
  21820638.385     4398623.928 3   3427497.725 2
  23878330.176     -984208.980 2   -766911.798 1
 91  4 29 20 29 15.0030000  0  6 16 06 18 02 19 11
  24414929.598     -735839.742 2   -573381.971 1
  24357036.974    -1752817.311 2  -1365819.512 1
  22902953.013    10883817.208 3   8480889.908 2
  22736101.421    -6251409.479 3  -4871216.012 2
  21825946.209     4426532.319 3   3449244.523 2
  23881413.542     -968007.760 2   -754287.450 1
 91  4 29 20 29 30.0030000  0  6 16 06 18 02 19 11
  24417631.023     -721655.376 2   -562329.225 1
  24354476.146    -1766247.674 2  -1376284.666 1
  22914489.631    10944435.916 3   8528125.226 2
  22733470.443    -6265226.314 3  -4881982.346 2
  21831266.326     4454487.729 3   3471027.946 2
  23884522.988     -951658.439 2   -741547.716 1
 91  4 29 20 29 45.0030000  0  6 16 06 18 02 19 11
  24420351.642     -707334.310 2   -551169.940 1
  24351926.712    -1779663.252 2  -1386738.309 1
  22926039.433    11005137.916 3   8575425.450 2
  22730860.449    -6278963.212 3  -4892686.383 2
  21836595.736     4482495.387 3   3492852.085 2
  23887664.812     -935155.960 2   -728688.652 1
 91  4 29 20 30  0.0030000  0  6 16 06 18 02 19 11
  24423104.336     -692874.130 2   -539902.267 1
  24349374.880    -1793061.602 2  -1397178.536 1
  22937606.929    11065925.538 3   8622792.405 2
  22728261.256    -6292617.560 3  -4903326.102 2
  21841936.541     4510557.730 3   3514718.840 2
  23890838.117     -918497.759 2   -715708.222 1
 91  4 29 20 30 15.0030000  0  6 16 06 18 02 19 11
  24425882.812     -678275.297 2   -528526.559 1
  24346825.447    -1806443.280 2  -1407605.757 1
  22949191.509    11126798.118 3   8670225.537 2
  22725677.341    -6306189.865 3  -4913901.888 2
  21847288.436     4538674.350 3   3536627.891 2
  23894030.608     -901684.410 2   -702606.887 2
 91  4 29 20 30 30.0030000  0  6 16 06 18 02 19 11
  24428690.368     -663533.957 2   -517039.823 1
  24344282.008    -1819804.405 2  -1418016.969 1
  22960791.672    11187759.609 3   8717727.953 2
  22723111.714    -6319675.875 3  -4924410.425 2
  21852652.624     4566849.399 3   3558582.469 2
  23897263.872     -884711.563 2   -689381.290 1
 91  4 29 20 30 45.0030000  0  6 16 06 18 02 19 11
  24431514.712     -648650.656 2   -505442.444 1
  24341747.555    -1833145.288 2  -1428412.383 1
  22972407.436    11248808.875 3   8765298.776 2
  22720561.382    -6333076.306 3  -4934852.300 2
  21858024.002     4595082.137 3   3580581.984 2
  23900522.909     -867580.012 2   -676032.020 1
 91  4 29 20 31  0.0030000  0  6 16 06 18 02 19 11
  24434380.431     -633621.328 2   -493731.283 1
  24339212.815    -1846462.446 2  -1438789.307 1
  22984042.080    11309949.595 3   8812940.855 2
  22718026.939    -6346387.210 3  -4945224.400 2
  21863410.674     4623376.551 3   3602629.575 2
  23903814.334     -850285.771 2   -662555.971 1
 91  4 29 20 31 15.0030000  0  6 16 06 18 02 19 11
  24437262.038     -618451.579 2   -481910.676 1
  24336677.770    -1859761.109 2  -1449151.877 1
  22995697.709    11371176.461 3   8860650.058 2
  22715511.682    -6359613.705 3  -4955530.723 2
  21868801.247     4651727.387 3   3624721.132 2
  23907136.036     -832833.942 2   -648957.134 1
 91  4 29 20 31 30.0030000  0  6 16 06 18 02 19 11
  24440178.719     -603138.165 2   -469978.178 1
  24334149.617    -1873037.696 2  -1459497.233 1
  23007363.834    11432492.667 3   8908428.886 2
  22713010.813    -6372752.450 3  -4965768.676 2
  21874213.694     4680138.115 3   3646859.356 2
  23910487.115     -815221.022 2   -635232.777 1
 91  4 29 20 31 45.0030000  0  6 16 06 18 02 19 11
  24443119.980     -587682.028 2   -457934.453 1
  24331630.163    -1886293.412 2  -1469826.255 1
  23019050.341    11493896.793 3   8956276.203 2
  22710527.027    -6385804.490 3  -4975939.066 2
  21879625.548     4708607.628 3   3669043.388 2
  23913872.073     -797448.161 2   -621383.793 1
 91  4 29 20 32  0.0030000  0  6 16 06 18 02 19 11
  24446086.726     -572078.284 2   -445775.681 1
  24329105.012    -1899523.453 2  -1480135.358 1
  23030753.041    11555393.709 3   9004195.840 2
  22708065.133    -6398764.777 3  -4986037.955 2
  21885056.893     4737140.919 3   3691277.111 2
  23917283.713     -779510.443 2   -607406.321 1
 91  4 29 20 32 15.0030000  0  6 16 06 18 02 19 11
  24449092.448     -556333.553 2   -433507.062 1
  24326593.647    -1912734.272 2  -1490429.462 1
  23042470.732    11616976.558 3   9052182.428 2
  22705608.631    -6411639.854 3  -4996070.462 2
  21890495.725     4765731.459 3   3713555.454 2
  23920726.824     -761414.308 2   -593305.432 1
 91  4 29 20 32 30.0030000  0  6 16 06 18 02 19 11
  24452105.359     -540443.518 2   -421125.247 1
  24324087.987    -1925921.467 2  -1500705.141 1
  23054206.108    11678649.512 3   9100239.237 2
  22703177.022    -6424425.094 3  -5006032.949 2
  21895951.649     4794383.980 3   3735882.090 2
  23924202.323     -743155.204 2   -579077.546 1
 91  4 29 20 32 45.0030000  0  6 16 06 18 02 19 11
  24455163.544     -524409.132 2   -408630.899 1
  24321591.908    -1939086.069 2  -1510963.177 1
  23065959.467    11740411.385 3   9148365.320 2
  22700760.088    -6437121.538 3  -5015926.261 2
  21901413.567     4823097.306 3   3758256.099 2
  23927707.190     -724734.181 2   -564723.500 1
 91  4 29 20 33  0.0030000  0  6 16 06 18 02 19 11
  24458240.611     -508231.902 2   -396025.265 1
  24319085.647    -1952229.362 2  -1521204.659 1
  23077727.518    11802260.526 3   9196559.424 2
  22698362.053    -6449730.399 3  -5025751.308 2
  21906892.272     4851870.179 3   3780676.518 2
  23931244.149     -706152.385 2   -550244.166 2
 91  4 29 20 33 15.0030000  0  6 16 06 18 02 19 11
  24461344.664     -491911.701 2   -383308.245 1
  24316588.678    -1965351.277 2  -1531429.491 1
  23089511.467    11864197.398 3   9244821.870 2
  22695979.304    -6462251.325 3  -5035507.846 2
  21912375.776     4880703.019 3   3803143.660 2
  23934812.875     -687409.549 2   -535639.346 1
 91  4 29 20 33 30.0030000  0  6 16 06 18 02 19 11
  24464477.493     -475448.816 2   -370480.023 1
  24314085.409    -1978452.039 2  -1541637.840 1
  23101316.993    11926220.918 3   9293151.846 2
  22693612.741    -6474684.688 3  -5045196.154 2
  21917873.973     4909595.366 3   3825657.174 2
  23938404.086     -668506.198 2   -520909.459 2
 91  4 29 20 33 45.0030000  0  6 16 06 18 02 19 11
  24467643.303     -458844.585 2   -357541.664 1
  24311604.023    -1991533.080 2  -1551830.802 1
  23113137.805    11988329.858 3   9341548.381 2
  22691265.364    -6487031.719 3  -5054817.179 2
  21923379.656     4938546.097 3   3848216.177 2
  23942039.071     -649443.201 2   -506055.170 1
 91  4 29 20 34  0.0030000  0  6 16 06 18 02 19 11
  24470826.502     -442100.539 2   -344494.395 1
  24309114.854    -2004595.427 2  -1562009.187 1
  23124969.114    12050522.683 3   9390010.275 2
  22688930.280    -6499293.575 3  -5064371.841 2
  21928902.441     4967554.114 3   3870819.829 2
  23945693.243     -630221.975 2   -491077.567 1
 91  4 29 20 34 15.0030000  0  6 16 06 18 02 19 11
  24474044.174     -425214.124 2   -331336.092 1
  24306638.267    -2017636.729 2  -1572171.190 1
  23136821.415    12112801.644 3   9438539.289 2
  22686611.984    -6511467.515 3  -5073858.002 2
  21934434.806     4996622.087 3   3893470.197 2
  23949380.692     -610839.875 2   -475974.632 1
 91  4 29 20 34 30.0030000  0  6 16 06 18 02 19 11
  24477275.631     -408184.126 2   -318066.004 1
  24304159.882    -2030655.955 2  -1582315.988 1
  23148687.799    12175167.493 3   9487136.015 2
  22684314.977    -6523552.695 3  -5083274.991 2
  21939974.072     5025750.954 3   3916168.004 2
  23953102.614     -591295.843 2   -460745.507 1
 91  4 29 20 34 45.0030000  0  6 16 06 18 02 19 11
  24480549.065     -391012.840 2   -304685.814 1
  24301685.092    -2043655.266 2  -1592445.266 1
  23160573.369    12237618.170 3   9535798.839 2
  22682028.754    -6535551.174 3  -5092624.431 2
  21945527.429     5054938.573 3   3938911.593 2
  23956847.623     -571592.042 2   -445391.899 1
 91  4 29 20 35  0.0030000  0  6 16 06 18 02 19 11
  24483840.490     -373698.792 2   -291194.324 1
  24299221.401    -2056633.045 2  -1602557.782 1
  23172471.835    12300154.970 3   9584528.763 2
  22679760.828    -6547461.129 3  -5101904.889 2
  21951096.073     5084186.660 3   3961702.318 2
  23960630.402     -551726.630 2   -429912.353 1
 91  4 29 20 35 15.0030000  0  6 16 06 18 02 19 11
  24487161.886     -356246.657 2   -277595.276 1
  24296752.911    -2069593.871 2  -1612657.077 1
  23184394.278    12362772.865 3   9633321.878 2
  22677512.385    -6559287.097 3  -5111119.901 2
  21956669.210     5113490.796 3   3984536.700 2
  23964440.160     -531704.248 2   -414310.466 1
 91  4 29 20 35 30.0030000  0  6 16 06 18 02 19 11
  24490510.574     -338656.142 2   -263888.367 1
  24294285.616    -2082537.465 2  -1622742.954 1
  23196319.721    12425471.921 3   9682178.238 2
  22675277.430    -6571028.788 3  -5120269.241 2
  21962261.542     5142851.313 3   4007415.024 2
  23968279.609     -511524.646 2   -398586.106 1
 91  4 29 20 35 45.0030000  0  6 16 06 18 02 19 11
  24493887.436     -320926.419 2   -250073.002 1
  24291821.619    -2095462.772 2  -1632814.568 1
  23208265.556    12488253.412 3   9731098.832 2
  22673060.764    -6582685.026 3  -5129351.995 2
  21967858.071     5172269.460 3   4030338.239 2
  23972147.825     -491186.437 2   -382738.122 1
 91  4 29 20 36  0.0030000  0  6 16 06 18 02 19 11
  24497283.780     -303054.553 2   -236146.925 1
  24289371.721    -2108366.963 2  -1642869.752 1
  23220228.169    12551119.673 3   9780085.501 2
  22670860.894    -6594253.057 3  -5138366.014 2
  21973466.886     5201747.688 3   4053308.286 2
  23976051.422     -470687.043 3   -366764.573 1
 91  4 29 20 36 15.0030000  0  6 16 06 18 02 19 11
  24500709.808     -285043.039 2   -222111.951 1
  24286920.315    -2121252.457 2  -1652910.350 1
  23232209.375    12614068.110 3   9829136.183 2
  22668675.402    -6605735.075 3  -5147313.021 2
  21979087.697     5231283.888 3   4076323.508 2
  23979980.207     -450028.775 2   -350667.229 1
 91  4 29 20 36 30.0030000  0  6 16 06 18 02 19 11
  24504169.113     -266893.371 2   -207969.371 1
  24284471.011    -2134120.671 2  -1662937.458 1
  23244204.070    12677097.045 3   9878249.590 2
  22666507.902    -6617132.374 3  -5156194.004 2
  21984717.800     5260876.794 3   4099382.905 3
  23983941.363     -429213.005 3   -334447.144 1
 91  4 29 20 36 45.0030000  0  6 16 06 18 02 19 11
  24507645.510     -248601.738 2   -193716.165 1
  24282030.703    -2146967.802 2  -1672948.153 1
  23256216.460    12740209.859 3   9927428.356 2
  22664353.891    -6628441.345 3  -5165006.159 2
  21990362.291     5290530.125 3   4122489.391 2
  23987933.999     -408235.965 3   -318101.381 1
 91  4 29 20 37  0.0030000  0  6 16 06 18 02 19 11
  24511145.588     -230172.373 2   -179355.649 1
  24279578.694    -2159797.876 2  -1682945.543 1
  23268239.930    12803402.498 3   9976669.326 2
  22662216.073    -6639665.858 3  -5173752.507 2
  21996016.074     5320239.953 3   4145639.905 2
  23991954.817     -387101.447 3   -301632.913 1
 91  4 29 20 37 15.0030000  0  6 16 06 18 02 19 11
  24514690.032     -211598.942 2   -164882.797 1
  24277153.079    -2172604.688 2  -1692924.846 1
  23280282.892    12866681.026 3  10025977.222 2
  22660099.842    -6650799.552 3  -5182428.079 2
  22001680.651     5350012.650 3   4168839.403 2
  23996011.906     -365803.391 2   -285037.011 1
 91  4 29 20 37 30.0030000  0  6 16 06 18 02 19 11
  24518253.070     -192882.057 2   -150298.239 1
  24274716.060    -2185388.505 2  -1702886.243 1
  23292339.353    12930045.235 3  10075351.905 2
  22657997.396    -6661842.652 3  -5191033.069 2
  22007359.021     5379848.199 3   4192087.875 2
  24000094.183     -344341.953 2   -268313.797 2
 91  4 29 20 37 45.0030000  0  6 16 06 18 02 19 11
  24521837.982     -174021.328 2   -135601.577 1
  24272282.950    -2198148.990 2  -1712829.423 1
  23304415.593    12993495.064 3  10124793.287 2
  22655913.840    -6672794.949 3  -5199567.301 2
  22013046.684     5409746.783 3   4215385.473 2
  24004207.330     -322716.889 2   -251463.078 1
 91  4 29 20 38  0.0030000  0  6 16 06 18 02 19 11
  24525454.086     -155018.006 2   -120793.764 1
  24269854.333    -2210887.257 2  -1722755.291 1
  23316505.915    13057029.076 3  10174300.259 2
  22653847.368    -6683657.252 3  -5208031.402 2
  22018749.633     5439707.357 3   4238731.366 2
  24008349.864     -300929.152 3   -234485.627 2
 91  4 29 20 38 15.0030000  0  6 16 06 18 02 19 11
  24529093.861     -135869.073 2   -105872.540 1
  24267445.497    -2223600.336 2  -1732661.521 1
  23328610.040    13120649.926 3  10223874.894 2
  22651796.487    -6694426.623 3  -5216423.097 2
  22024462.486     5469732.913 3   4262127.907 2
  24012535.866     -278975.765 3   -217379.083 1
 91  4 29 20 38 30.0030000  0  6 16 06 18 02 19 11
  24532767.219     -116572.672 2    -90836.393 1
  24265031.268    -2236286.180 2  -1742546.558 1
  23340732.750    13184359.425 3  10273518.612 2
  22649769.592    -6705100.979 3  -5224740.752 2
  22030191.820     5499825.708 3   4285576.830 2
  24016736.255     -256854.747 2   -200141.918 2
 91  4 29 20 38 45.0030000  0  6 16 06 18 02 19 11
  24536468.759      -97126.696 2    -75683.723 1
  24262619.142    -2248942.525 2  -1752408.583 1
  23352875.537    13248159.581 3  10323232.981 2
  22647752.591    -6715677.991 3  -5232982.553 2
  22035928.640     5529987.997 3   4309079.910 2
  24020981.623     -234563.763 2   -182772.316 1
 91  4 29 20 39  0.0030000  0  6 16 06 18 02 19 11
  24540199.677      -77532.533 2    -60415.523 1
  24260210.305    -2261571.069 2  -1762248.946 1
  23365031.829    13312048.808 3  10373016.733 2
  22645757.770    -6726159.175 3  -5241149.684 2
  22041681.663     5560218.278 3   4332635.967 2
  24025255.766     -212104.303 2   -165271.432 1
 91  4 29 20 39 15.0030000  0  6 16 06 18 02 19 11
  24543959.666      -57793.537 2    -45034.502 1
  24257818.561    -2274174.748 2  -1772069.992 1
  23377207.893    13376023.678 3  10422867.235 2
  22643783.033    -6736547.667 3  -5249244.586 2
  22047446.970     5590513.470 3   4356242.599 2
  24029559.879     -189479.544 2   -147641.746 1
 91  4 29 20 39 30.0030000  0  6 16 06 18 02 19 11
  24547739.453      -37908.725 2    -29539.835 1
  24255416.922    -2286752.546 2  -1781870.824 1
  23389401.355    13440085.060 3  10472785.157 2
  22641823.592    -6746842.383 3  -5257266.415 2
  22053229.370     5620874.733 3   4379900.727 2
  24033901.179     -166688.484 2   -129882.442 1
 91  4 29 20 39 45.0030000  0  6 16 06 18 02 19 11
  24551554.010      -17882.471 2    -13934.970 1
  24253034.775    -2299308.855 2  -1791654.889 1
  23401602.905    13504228.452 3  10522766.972 2
  22639883.634    -6757047.362 3  -5265218.324 2
  22059013.865     5651297.748 3   4403606.959 2
  24038267.355     -143735.323 3   -111996.860 1
 91  4 29 20 40  0.0030000  0  6 16 06 18 02 19 11
  24555383.565        2284.702 2      1779.693 1
  24250641.827    -2311844.022 2  -1801422.513 1
  23413824.846    13568453.072 3  10572812.091 2
  22637956.266    -6767162.997 3  -5273100.607 2
  22064816.350     5681782.167 3   4427361.051 2
  24042665.307     -120620.514 3    -93985.312 1
 91  4 29 20 40 15.0030000  0  6 16 06 18 02 19 11
  24559252.985       22594.021 2     17605.157 1
  24248270.168    -2324356.847 2  -1811172.687 1
  23426065.371    13632760.273 3  10622921.554 2
  22636049.289    -6777188.105 3  -5280912.353 2
  22070625.126     5712329.388 3   4451164.077 2
  24047095.045      -97342.745 3    -75846.801 1
 91  4 29 20 40 30.0030000  0  6 16 06 18 02 19 11
  24563141.591       43041.361 2     33538.127 1
  24245890.717    -2336851.073 2  -1820908.445 1
  23438313.094    13697145.646 2  10673091.914 2
  22634157.598    -6787126.480 3  -5288656.509 2
  22076456.989     5742935.650 3   4475013.103 2
  24051554.151      -73905.797 2    -57584.226 1
 91  4 29 20 40 45.0030000  0  6 16 06 18 02 19 11
  24567060.177       63628.029 2     49579.703 1
  24243523.560    -2349325.598 2  -1830628.799 1
  23450584.794    13761610.191 3  10723323.983 2
  22632281.499    -6796976.869 3  -5296332.111 2
  22082288.546     5773602.199 3   4498909.112 2
  24056040.550      -50308.623 3    -39196.815 1
 91  4 29 20 41  0.0030000  0  6 16 06 18 02 19 11
  24571004.546       84352.902 2     65728.898 1
  24241155.496    -2361781.350 2  -1840334.547 1
  23462861.894    13826153.034 3  10773617.065 1
  22630421.881    -6806740.212 3  -5303939.891 2
  22088136.899     5804328.140 3   4522851.396 2
  24060565.322      -26552.063 2    -20685.195 1
 91  4 29 20 41 15.0030000  0  6 16 06 18 02 19 11
  24574977.699      105215.116 2     81985.178 1
  24238782.938    -2374219.178 2  -1850026.278 1
  23475159.988    13890772.968 3  10823970.214 2
  22628582.960    -6816417.140 3  -5311480.319 2
  22093990.950     5835112.704 3   4546839.358 2
  24065117.062       -2636.938 2     -2050.040 1
 91  4 29 20 41 30.0030000  0  6 16 06 18 02 19 11
  24578970.030      126218.891 2     98351.727 1
  24236418.477    -2386634.479 2  -1859700.515 1
  23487476.962    13955474.162 3  10874386.681 2
  22626757.222    -6826003.196 3  -5318949.950 2
  22099862.381     5865960.442 3   4570876.551 2
  24069698.792       21441.271 2     16712.217 1
 91  4 29 20 41 45.0030000  0  6 16 06 18 02 19 11
  24582986.651      147361.748 2    114826.706 1
  24234057.009    -2399029.536 2  -1869358.932 1
  23499799.329    14020254.342 3  10924864.697 2
  22624953.070    -6835500.497 3  -5326350.421 2
  22105743.113     5896869.174 3   4594961.271 2
  24074312.603       45680.223 2     35599.718 1
 91  4 29 20 42  0.0030000  0  6 16 06 18 02 19 11
  24587050.039      168642.541 2    131409.117 1
  24231703.045    -2411405.664 2  -1879002.650 1
  23512139.084    14085111.769 3  10975402.908 2
  22623161.509    -6844910.521 3  -5333682.883 2
  22111636.732     5927837.785 3   4619092.654 2
  24078956.385       70078.636 2     54611.450 1
 91  4 29 20 42 15.0030000  0  6 16 06 18 02 19 11
  24591120.922      190060.898 2    148098.732 1
  24229364.663    -2423763.146 2  -1888631.801 1
  23524496.229    14150046.040 2  11026000.984 2
  22621386.743    -6854233.376 3  -5340947.410 2
  22117543.544     5958865.858 3   4643270.370 2
  24083629.554       94636.205 2     73747.227 1
 91  4 29 20 42 30.0030000  0  6 16 06 18 02 19 11
  24595226.277      211614.837 2    164893.995 1
  24227001.092    -2436103.875 2  -1898247.924 1
  23536870.467    14215054.788 2  11076657.119 1
  22619629.053    -6863470.916 3  -5348145.467 2
  22123457.850     5989951.915 3   4667493.260 2
  24088330.895      119351.149 2     93005.630 1
 91  4 29 20 42 45.0030000  0  6 16 06 18 02 19 11
  24599350.523      233310.208 2    181799.492 1
  24224669.612    -2448421.685 2  -1907846.142 1
  23549257.888    14280144.184 2  11127376.080 1
  22617888.463    -6872616.842 3  -5355272.145 2
  22129385.646     6021101.830 3   4691765.919 2
  24093064.616      144229.540 2    112391.422 2
 91  4 29 20 43  0.0030000  0  6 16 06 18 02 19 11
  24603502.052      255142.763 2    198811.852 1
  24222316.843    -2460720.777 2  -1917429.834 1
  23561660.604    14345309.671 2  11178154.336 2
  22616166.153    -6881675.405 3  -5362330.731 2
  22135328.727     6052311.635 3   4716085.247 2
  24097827.722      169267.221 2    131901.286 1
 91  4 29 20 43 15.0030000  0  6 16 06 18 02 19 11
  24607682.059      277114.128 2    215932.364 1
  24219974.858    -2472999.451 2  -1926997.565 1
  23574071.713    14410552.867 2  11228993.142 1
  22614457.637    -6890644.819 3  -5369319.859 2
  22141276.913     6083583.051 3   4740452.567 2
  24102624.997      194465.757 2    151536.524 1
 91  4 29 20 43 30.0030000  0  6 16 06 18 02 19 11
  24611893.844      299225.849 2    233162.272 1
  24217651.169    -2485256.087 2  -1936548.153 1
  23586506.503    14475875.104 2  11279893.546 1
  22612767.705    -6899523.506 3  -5376238.291 2
  22147242.480     6114917.757 3   4764869.211 2
  24107452.259      219826.707 3    171298.317 1
 91  4 29 20 43 45.0030000  0  6 16 06 18 02 19 11
  24616128.706      321473.804 2    250498.325 1
  24215318.782    -2497494.969 2  -1946084.888 1
  23598950.585    14541271.816 2  11330851.972 2
  22611097.859    -6908315.607 3  -5383089.250 2
  22153212.251     6146311.519 3   4789331.880 2
  24112308.297      245345.853 3    191183.367 1
 91  4 29 20 44  0.0030000  0  6 16 06 18 02 19 11
  24620395.354      343856.493 2    267939.362 1
  24212987.895    -2509717.092 2  -1955608.574 1
  23611406.061    14606741.881 2  11381867.579 2
  22609439.111    -6917022.168 3  -5389873.553 2
  22159203.600     6177763.358 3   4813839.797 2
  24117193.416      271022.140 2    211190.857 2
 91  4 29 20 44 15.0030000  0  6 16 06 18 02 19 11
  24624675.195      366372.924 2    285484.620 1
  24210670.498    -2521923.267 2  -1965119.822 1
  23623874.434    14672284.371 2  11432939.604 2
  22607797.447    -6925643.967 3  -5396591.813 2
  22165194.059     6209272.734 3   4838392.546 2
  24122107.912      296854.780 2    231320.227 1
 91  4 29 20 44 30.0030000  0  6 16 06 18 02 19 11
  24628984.709      389029.028 2    303138.716 1
  24208353.406    -2534107.667 2  -1974614.126 1
  23636368.581    14737904.511 2  11484072.141 2
  22606174.071    -6934174.942 3  -5403239.294 2
  22171204.298     6240845.386 3   4862994.601 2
  24127054.490      322849.690 2    251576.012 2
 91  4 29 20 44 45.0030000  0  6 16 06 18 02 19 11
  24633317.913      411820.682 2    320898.431 1
  24206037.509    -2546274.303 2  -1984094.560 1
  23648866.627    14803598.119 2  11535261.913 2
  22604569.279    -6942619.433 3  -5409819.407 3
  22177221.727     6272477.262 3   4887642.810 2
  24132032.540      349002.682 2    271954.961 1
 91  4 29 20 45  0.0030000  0  6 16 06 18 02 19 11
  24637683.782      434750.940 2    338766.181 1
  24203728.810    -2558420.133 2  -1993558.798 1
  23661382.962    14869368.307 2  11586511.378 2
  22602977.086    -6950974.167 3  -5416329.542 2
  22183256.850     6304171.725 3   4912339.783 2
  24137044.173      375316.915 2    292459.552 1
 91  4 29 20 45 15.0030000  0  6 16 06 18 02 19 11
  24642072.451      457817.974 2    356740.474 1
  24201420.102    -2570546.577 2  -2003007.964 1
  23673905.596    14935213.258 2  11637819.070 2
  22601404.970    -6959240.381 3  -5422770.719 2
  22189295.567     6335927.319 3   4937084.394 2
  24142076.484      401790.757 2    313088.546 2
 91  4 29 20 45 30.0030000  0  6 16 06 18 02 19 11
  24646496.483      481025.166 2    374824.009 1
  24199114.100    -2582649.964 2  -2012439.128 1
  23686457.310    15001136.336 2  11689187.660 2
  22599847.547    -6967414.365 3  -5429140.032 2
  22195354.972     6367747.624 3   4961879.430 2
  24147151.679      428427.891 2    333844.759 1
 91  4 29 20 45 45.0030000  0  6 16 06 18 02 19 11
  24650931.019      504373.144 2    393017.186 1
  24196818.890    -2594729.566 2  -2021851.758 1
  23699017.113    15067137.857 2  11740617.376 1
  22598313.210    -6975495.420 3  -5435436.933 2
  22201416.480     6399633.535 3   4986725.583 2
  24152243.653      455228.958 2    354728.729 1
 91  4 29 20 46  0.0030000  0  6 16 06 18 02 19 11
  24655398.519      527857.720 2    411316.887 1
  24194522.782    -2606789.861 2  -2031249.338 1
  23711590.405    15133213.470 2  11792104.817 1
  22596789.972    -6983488.025 3  -5441664.907 2
  22207497.174     6431580.669 3   5011619.447 2
  24157373.999      482189.549 2    375736.975 1
 91  4 29 20 46 15.0030000  0  6 16 06 18 02 19 11
  24659893.312      551474.517 2    429719.547 1
  24192225.775    -2618834.875 2  -2040635.033 1
  23724175.694    15199358.701 2  11843646.499 2
  22595285.310    -6991396.397 3  -5447827.249 2
  22213585.354     6463584.924 3   5036557.818 2
  24162537.920      509305.334 2    396866.164 1
 91  4 29 20 46 30.0030000  0  6 16 06 18 02 19 11
  24664413.581      575224.001 2    448225.608 1
  24189942.553    -2630863.951 2  -2050008.285 1
  23736777.474    15265573.975 2  11895242.784 1
  22593795.043    -6999219.802 3  -5453923.380 2
  22219694.222     6495647.210 3   5061541.399 2
  24167725.835      536577.175 2    418116.962 1
 91  4 29 20 46 45.0030000  0  6 16 06 18 02 19 11
  24668962.329      599108.532 2    466836.931 1
  24187661.435    -2642874.553 2  -2059367.154 2
  23749390.936    15331861.678 2  11946895.501 1
  22592324.557    -7006955.514 3  -5459951.181 2
  22225798.003     6527770.205 3   5086572.292 2
  24172946.416      564007.614 2    439491.326 2
 91  4 29 20 47  0.0030000  0  6 16 06 18 02 19 11
  24673532.672      623125.137 2    485551.140 1
  24185377.611    -2654869.415 2  -2068713.751 1
  23762015.200    15398218.644 2  11998602.176 2
  22590866.967    -7014606.303 3  -5465912.806 3
  22231924.556     6559951.014 3   5111648.247 2
  24178198.182      591593.769 2    460987.056 1
 91  4 29 20 47 15.0030000  0  6 16 06 18 02 19 11
  24678125.788      647273.520 2    504368.029 1
  24183097.391    -2666849.025 2  -2078048.464 1
  23774657.743    15464644.529 2  12050362.575 2
  22589426.765    -7022172.604 3  -5471808.599 3
  22238056.510     6592189.275 3   5136768.961 2
  24183473.033      619335.106 2    482603.688 1
 91  4 29 20 47 30.0030000  0  6 16 06 18 02 19 11
  24682752.783      671555.095 2    523288.761 1
  24180810.872    -2678811.860 2  -2087370.115 1
  23787313.784    15531140.287 2  12102177.400 2
  22588003.648    -7029652.892 3  -5477637.368 3
  22244205.853     6624486.423 3   5161935.550 2
  24188780.255      647233.028 2    504342.345 2
 91  4 29 20 47 45.0030000  0  6 16 06 18 02 19 11
  24687393.869      695973.658 2    542316.211 1
  24178544.743    -2690753.713 2  -2096675.419 1
  23799978.219    15597709.748 2  12154049.675 2
  22586596.122    -7037043.073 3  -5483395.923 2
  22250362.098     6656846.840 3   5187151.455 2
  24194124.053      675291.780 2    526206.302 1
 91  4 29 20 48  0.0030000  0  6 16 06 18 02 19 11
  24692061.340      720526.315 2    561448.146 1
  24176268.720    -2702677.248 2  -2105966.436 1
  23812665.434    15664349.893 2  12205976.998 2
  22585209.589    -7044345.738 3  -5489086.291 3
  22256531.823     6689267.811 3   5212414.531 2
  24199490.937      703508.587 2    548193.422 1
 91  4 29 20 48 15.0030000  0  6 16 06 18 02 19 11
  24696761.189      745214.293 2    580685.510 1
  24174019.675    -2714581.555 2  -2115242.468 1
  23825354.447    15731061.751 2  12257960.233 2
  22583837.138    -7051559.784 3  -5494707.602 3
  22262712.045     6721750.469 3   5237725.691 2
  24204895.296      731884.357 2    570304.426 1
 91  4 29 20 48 30.0030000  0  6 16 06 18 02 19 11
  24701490.713      770037.850 2    600028.545 1
  24171748.450    -2726465.577 2  -2124502.704 1
  23838066.250    15797846.127 2  12309999.962 1
  22582480.270    -7058684.244 3  -5500259.102 2
  22268909.053     6754295.858 3   5263085.712 2
  24210325.437      760420.041 2    592540.022 1
 91  4 29 20 48 45.0030000  0  6 16 06 18 02 19 11
  24706238.830      795000.086 2    619479.605 1
  24169494.004    -2738326.330 2  -2133744.804 1
  23850785.243    15864705.636 2  12362098.234 1
  22581142.597    -7065716.032 3  -5505738.386 2
  22275111.759     6786907.047 3   5288497.012 2
  24215782.862      789118.659 2    614902.593 1
 91  4 29 20 49  0.0030000  0  6 16 06 18 02 19 11
  24711011.220      820099.218 2    639037.319 1
  24167239.864    -2750165.426 2  -2142970.020 1
  23863522.227    15931638.540 2  12414253.691 1
  22579824.111    -7072656.859 3  -5511146.791 2
  22281331.855     6819582.428 3   5313958.342 2
  24221275.056      817978.440 2    637390.726 1
 91  4 29 20 49 15.0030000  0  6 16 06 18 02 19 11
  24715816.600      845337.056 2    658703.212 1
  24164988.428    -2761980.802 2  -2152176.754 1
  23876277.795    15998646.380 2  12466467.549 2
  22578518.215    -7079504.725 3  -5516482.775 2
  22287563.938     6852324.119 3   5339471.343 2
  24226797.239      847001.352 2    660005.987 1
 91  4 29 20 49 30.0030000  0  6 16 06 18 02 19 11
  24720647.449      870714.638 2    678477.919 1
  24162752.278    -2773771.471 2  -2161364.241 1
  23889038.459    16065730.208 2  12518740.623 1
  22577232.710    -7086258.428 3  -5521745.373 2
  22293806.815     6885133.259 3   5365036.894 2
  24232354.793      876188.317 2    682749.094 1
 91  4 29 20 49 45.0030000  0  6 16 06 18 02 19 11
  24725501.096      896230.794 2    698360.632 1
  24160508.931    -2785538.254 2  -2170533.123 1
  23901825.507    16132888.632 2  12571071.813 1
  22575965.188    -7092918.842 3  -5526935.282 2
  22300061.985     6918009.071 3   5390654.396 2
  24237941.724      905538.463 2    705619.333 1
 91  4 29 20 50  0.0030000  0  6 16 06 18 02 19 11
  24730385.909      921887.790 2    718353.070 1
  24158269.178    -2797278.816 2  -2179681.583 1
  23914613.759    16200123.942 2  12623462.919 1
  22574718.352    -7099483.690 3  -5532050.724 3
  22306330.347     6950953.901 3   5416325.684 2
  24243552.938      935054.049 2    728618.513 1
 91  4 29 20 50 15.0030000  0  6 16 06 18 02 19 11
  24735290.816      947684.533 2    738454.424 1
  24156050.112    -2808994.277 2  -2188810.465 1
  23927424.488    16267434.662 2  12675912.791 1
  22573485.006    -7105954.058 3  -5537092.553 3
  22312610.105     6983966.677 3   5442049.917 2
  24249203.126      964733.920 2    751745.681 1
 91  4 29 20 50 30.0030000  0  6 16 06 18 02 19 11
  24740230.493      973617.817 2    758662.182 1
  24153816.057    -2820687.612 2  -2197922.094 1
  23940235.522    16334817.553 2  12728418.882 2
  22572270.846    -7112332.900 3  -5542063.054 2
  22318909.040     7017044.440 3   5467824.785 2
  24254887.194      994574.898 2    774998.408 1
 91  4 29 20 50 45.0030000  0  6 16 06 18 02 19 11
  24745185.465      999683.260 2    778972.894 1
  24151600.298    -2832362.825 2  -2207019.605 1
  23953087.921    16402268.303 2  12780977.857 2
  22571074.973    -7118624.231 3  -5546965.365 2
  22325210.977     7050183.269 3   5493647.240 2
  24260594.637     1024572.969 2    798373.525 1
 91  4 29 20 51  0.0030000  0  6 16 06 18 02 19 11
  24750173.409     1025879.009 2    799385.157 1
  24149374.034    -2844021.640 2  -2216104.357 2
  23965930.130    16469785.119 2  12833588.315 2
  22569892.887    -7124829.713 3  -5551800.784 2
  22331531.803     7083381.540 3   5519516.007 2
  24266325.472     1054726.318 2    821869.644 2
 91  4 29 20 51 15.0040000  0  6 16 06 18 02 19 11
  24755184.146     1052203.186 2    819897.487 1
  24147163.671    -2855668.174 2  -2225179.542 1
  23978796.929    16537368.706 2  12886250.813 1
  22568729.694    -7130953.203 3  -5556572.314 3
  22337858.924     7116638.034 3   5545430.160 2
  24272091.385     1085033.522 2    845485.648 1
 91  4 29 20 51 30.0040000  0  6 16 06 18 02 19 11
  24760217.356     1078650.327 2    840505.627 1
  24144940.705    -2867302.987 2  -2234245.568 1
  23991663.716    16605008.086 2  12938956.747 1
  22567576.688    -7136995.798 3  -5561280.799 3
  22344198.937     7149946.391 3   5571384.714 2
  24277892.064     1115488.366 2    869216.707 1
 91  4 29 20 51 45.0040000  0  6 16 06 18 02 19 11
  24765270.957     1105221.033 2    861210.051 1
  24142736.934    -2878927.637 2  -2243303.702 1
  24004540.999    16672706.310 2  12991708.576 1
  22566443.776    -7142958.773 3  -5565927.260 3
  22350544.037     7183308.134 3   5597380.866 2
  24283712.837     1146092.052 2    893063.745 1
 91  4 29 20 52  0.0040000  0  6 16 06 18 02 19 11
  24770347.042     1131910.739 2    882007.219 1
  24140525.058    -2890546.466 2  -2252357.286 1
  24017437.173    16740458.765 2  13044502.657 1
  22565324.048    -7148846.556 3  -5570515.120 3
  22356905.636     7216718.902 3   5623415.223 2
  24289562.988     1176839.985 2    917023.171 1
 91  4 29 20 52 15.0040000  0  6 16 06 18 02 19 11
  24775456.710     1158722.526 2    902899.509 1
  24138316.794    -2902156.595 2  -2261404.095 1
  24030340.544    16808268.356 2  13097341.240 1
  22564218.114    -7154655.998 3  -5575041.933 3
  22363270.533     7250181.867 3   5649490.252 2
  24295446.416     1207735.213 2    941097.380 1
 91  4 29 20 52 30.0040000  0  6 16 06 18 02 19 11
  24780576.866     1185656.813 2    923887.231 1
  24136101.925    -2913757.054 2  -2270443.357 1
  24043257.099    16876135.719 2  13150224.845 1
  22563126.874    -7160386.342 3  -5579507.117 2
  22369651.310     7283697.838 3   5675606.579 2
  24301351.727     1238778.526 2    965286.985 2
 91  4 29 20 52 45.0040000  0  6 16 06 18 02 19 11
  24785724.898     1212711.421 2    944968.738 1
  24133909.541    -2925349.685 2  -2279476.556 1
  24056176.359    16944058.617 2  13203151.725 1
  22562050.317    -7166039.296 3  -5583911.992 2
  22376035.996     7317265.069 3   5701762.848 2
  24307284.617     1269967.965 2    989590.452 1
 91  4 29 20 53  0.0040000  0  6 16 06 18 02 19 11
  24790895.720     1239889.687 2    966146.549 1
  24131696.478    -2936931.252 2  -2288501.097 1
  24069121.995    17012040.055 2  13256124.228 1
  22560990.854    -7171611.786 3  -5588254.181 3
  22382439.257     7350886.737 3   5727961.537 2
  24313251.388     1301306.689 2   1014010.226 1
 91  4 29 20 53 15.0040000  0  6 16 06 18 02 19 11
  24796094.123     1267193.299 2    987422.072 1
  24129498.693    -2948500.024 2  -2297515.665 1
  24082061.332    17080081.462 2  13309143.449 1
  22559948.473    -7177102.057 3  -5592532.291 2
  22388842.527     7384564.621 3   5754204.042 2
  24319237.641     1332796.213 2   1038547.523 1
 91  4 29 20 53 30.0040000  0  6 16 06 18 02 19 11
  24801308.413     1294620.382 2   1008793.854 1
  24127298.221    -2960057.417 2  -2306521.386 1
  24095022.263    17148181.163 2  13362208.117 1
  22558917.785    -7182511.377 3  -5596747.325 2
  22395264.382     7418297.411 3   5780489.332 2
  24325260.471     1364435.049 2   1063201.168 1
 91  4 29 20 53 45.0040000  0  6 16 06 18 02 19 11
  24806552.378     1322174.002 2   1030264.164 1
  24125097.739    -2971600.233 2  -2315515.736 1
  24107990.087    17216342.273 2  13415320.601 1
  22557903.587    -7187836.722 3  -5600896.917 3
  22401693.129     7452088.244 3   5806819.833 2
  24331312.084     1396226.226 2   1087973.512 1
 91  4 29 20 54  0.0040000  0  6 16 06 18 02 19 11
  24811828.129     1349855.507 2   1051834.164 1
  24122904.160    -2983126.949 2  -2324497.533 1
  24120979.191    17284565.905 2  13468481.819 1
  22556905.583    -7193076.585 3  -5604979.912 3
  22408136.570     7485938.633 3   5833196.757 2
  24337390.073     1428171.170 2   1112865.672 1
 91  4 29 20 54 15.0040000  0  6 16 06 18 02 19 11
  24817114.969     1377666.755 2   1073505.227 1
  24120718.677    -2994635.729 2  -2333465.382 1
  24133975.799    17352853.628 2  13521692.983 1
  22555925.561    -7198228.977 3  -5608994.743 2
  22414588.701     7519850.742 3   5859621.770 2
  24343501.349     1460271.733 2   1137879.130 1
 91  4 29 20 54 30.0040000  0  6 16 06 18 02 19 11
  24822430.890     1405608.084 2   1095277.715 1
  24118522.995    -3006125.743 2  -2342418.589 1
  24146979.292    17421205.873 2  13574954.426 2
  22554962.920    -7203293.276 3  -5612940.923 2
  22421050.429     7553825.354 3   5886095.487 2
  24349637.195     1492528.624 2   1163014.342 1
 91  4 29 20 54 45.0040000  0  6 16 06 18 02 19 11
  24827770.491     1433678.924 2   1117151.072 1
  24116347.703    -3017597.437 2  -2351357.574 1
  24159998.681    17489621.994 2  13628265.631 1
  22554014.684    -7208269.861 3  -5616818.766 3
  22427528.342     7587861.850 3   5912617.418 2
  24355810.820     1524941.173 2   1188270.884 1
 91  4 29 20 55  0.0040000  0  6 16 06 18 02 19 11
  24833139.172     1461877.306 2   1139123.811 1
  24114166.714    -3029052.385 2  -2360283.425 1
  24173028.558    17558100.209 2  13681625.226 1
  22553083.828    -7213160.169 3  -5620629.377 3
  22434018.855     7621958.891 3   5939186.533 2
  24362003.632     1557507.697 2   1213647.403 1
 91  4 29 20 55 15.0040000  0  6 16 06 18 02 19 11
  24838522.547     1490207.160 2   1161199.036 1
  24111983.622    -3040486.708 2  -2369193.267 1
  24186082.420    17626644.212 2  13735036.071 1
  22552172.752    -7217960.319 3  -5624369.731 2
  22440518.948     7656120.481 3   5965805.956 2
  24368223.727     1590231.963 2   1239146.804 1
 91  4 29 20 55 30.0040000  0  6 16 06 18 02 19 11
  24843943.100     1518664.503 2   1183373.551 1
  24109822.115    -3051904.057 2  -2378089.851 1
  24199131.187    17695249.831 2  13788494.957 2
  22551271.876    -7222674.127 3  -5628042.809 3
  22447033.446     7690343.036 3   5992472.879 2
  24374490.894     1623110.333 2   1264766.326 1
 91  4 29 20 55 45.0040000  0  6 16 06 18 02 19 11
  24849385.831     1547251.451 2   1205649.090 1
  24107647.722    -3063302.368 2  -2386971.627 1
  24212198.241    17763918.948 2  13842003.313 1
  22550395.587    -7227299.497 3  -5631646.971 2
  22453556.023     7724628.553 3   6019188.855 2
  24380770.643     1656144.813 2   1290507.449 1
 91  4 29 20 56  0.0040000  0  6 16 06 18 02 19 11
  24854851.344     1575969.083 2   1228026.444 1
  24105474.228    -3074680.044 2  -2395837.300 1
  24225273.096    17832653.131 2  13895562.369 1
  22549533.084    -7231834.793 3  -5635180.958 2
  22460097.795     7758978.737 3   6045955.228 2
  24387091.469     1689336.751 2   1316371.333 2
 91  4 29 20 56 15.0040000  0  6 16 06 18 02 19 11
  24860339.045     1604818.018 2   1250506.098 1
  24103323.515    -3086036.358 2  -2404686.322 1
  24238372.224    17901452.614 2  13949172.287 1
  22548682.875    -7236279.382 3  -5638644.250 3
  22466643.163     7793394.400 3   6072772.622 2
  24393434.475     1722686.698 2   1342358.282 1
 91  4 29 20 56 30.0040000  0  6 16 06 18 02 19 11
  24865856.123     1633799.696 2   1273089.216 1
  24101172.208    -3097369.637 2  -2413517.405 1
  24251468.953    17970318.785 2  14002834.189 1
  22547857.846    -7240631.669 3  -5642035.616 3
  22473210.718     7827877.174 3   6099642.312 2
  24399811.064     1756196.262 2   1368469.639 1
 91  4 29 20 56 45.0040000  0  6 16 06 18 02 19 11
  24871392.397     1662911.412 2   1295773.640 1
  24099025.090    -3108682.359 2  -2422332.480 1
  24264587.878    18039248.809 2  14056545.850 1
  22547045.102    -7244894.000 3  -5645356.898 3
  22479776.476     7862424.567 3   6126562.343 2
  24406220.023     1789862.797 2   1394703.300 2
 91  4 29 20 57  0.0040000  0  6 16 06 18 02 19 11
  24876963.134     1692158.530 2   1318563.598 1
  24096865.084    -3119969.043 2  -2431127.293 1
  24277717.885    18108248.002 2  14110311.429 1
  22546250.951    -7249061.047 3  -5648603.931 3
  22486369.814     7897042.130 3   6153537.061 2
  24412659.267     1823691.607 3   1421063.404 1
 91  4 29 20 57 15.0040000  0  6 16 06 18 02 19 11
  24882550.066     1721533.733 2   1341453.343 1
  24094726.970    -3131236.846 2  -2439907.326 1
  24290858.387    18177308.975 2  14164125.085 1
  22545476.292    -7253139.799 3  -5651782.158 3
  22492964.347     7931722.960 3   6180561.077 2
  24419124.590     1857675.378 3   1447544.272 2
 91  4 29 20 57 30.0040000  0  6 16 06 18 02 19 11
  24888169.080     1751041.720 2   1364446.538 1
  24092585.549    -3142480.874 2  -2448668.873 1
  24304015.982    18246436.235 2  14217990.438 1
  22544718.717    -7257125.323 3  -5654887.744 3
  22499581.661     7966471.811 3   6207638.097 2
  24425619.892     1891818.865 2   1474149.600 1
 91  4 29 20 57 45.0040000  0  6 16 06 18 02 19 11
  24893804.575     1780682.150 2   1387542.972 1
  24090453.429    -3153701.049 2  -2457411.832 1
  24317184.362    18315629.883 2  14271907.504 1
  22543974.928    -7261017.928 3  -5657920.922 3
  22506201.079     8001288.619 3   6234768.067 2
  24432150.270     1926121.953 3   1500879.268 1
 91  4 29 20 58  0.0040000  0  6 16 06 18 02 19 11
  24899472.450     1810455.229 2   1410742.765 1
  24088315.909    -3164897.385 2  -2466136.218 1
  24330363.543    18384889.513 2  14325876.012 1
  22543254.234    -7264817.422 3  -5660881.548 3
  22512842.684     8036173.564 3   6261951.135 2
  24438708.533     1960584.626 3   1527733.296 2
 91  4 29 20 58 15.0040000  0  6 16 06 18 02 19 11
  24905167.607     1840360.584 2   1434045.616 1
  24086191.580    -3176069.487 2  -2474841.729 1
  24343559.807    18454214.943 2  14379895.773 1
  22542548.818    -7268523.496 3  -5663769.377 3
  22519489.978     8071127.103 3   6289187.648 2
  24445291.375     1995207.150 2   1554711.877 1
 91  4 29 20 58 30.0040000  0  6 16 06 18 02 19 11
  24910873.863     1870395.579 2   1457449.482 1
  24084065.149    -3187219.832 2  -2483530.264 1
  24356757.564    18523603.388 2  14433964.642 1
  22541861.096    -7272138.760 3  -5666586.444 3
  22526158.867     8106146.756 3   6316475.680 2
  24451913.191     2029986.746 2   1581812.839 1
 91  4 29 20 58 45.0040000  0  6 16 06 18 02 19 11
  24916623.579     1900562.058 2   1480955.831 1
  24081955.810    -3198346.586 2  -2492200.434 1
  24369977.814    18593056.665 2  14488083.998 1
  22541190.458    -7275661.209 3  -5669331.191 3
  22532832.545     8141234.475 3   6343816.752 2
  24458561.689     2064925.222 2   1609037.622 1
 91  4 29 20 59  0.0040000  0  6 16 06 18 02 19 11
  24922383.189     1930855.336 2   1504560.942 1
  24079838.671    -3209453.787 2  -2500855.351 1
  24383198.064    18662570.273 2  14542250.396 1
  22540538.413    -7279094.995 3  -5672006.854 3
  22539529.607     8176386.326 3   6371207.799 2
  24465240.167     2100018.424 2   1636382.978 1
 91  4 29 20 59 15.0040000  0  6 16 06 18 02 19 11
  24928175.780     1961276.293 2   1528265.541 1
  24077730.833    -3220540.738 2  -2509494.483 1
  24396444.996    18732144.665 2  14596464.167 1
  22539902.248    -7282439.354 3  -5674612.828 3
  22546220.073     8211603.012 3   6398649.361 2
  24471946.224     2135266.862 2   1663849.296 1
 91  4 29 20 59 30.0040000  0  6 16 06 18 02 19 11
  24933980.063     1991826.677 2   1552071.047 1
  24075624.793    -3231605.727 2  -2518116.525 1
  24409694.318    18801781.415 2  14650726.527 1
  22539283.481    -7285692.470 3  -5677147.701 3
  22552939.628     8246886.214 3   6426142.755 2
  24478683.762     2170672.140 2   1691437.838 2
 91  4 29 20 59 45.0040000  0  6 16 06 18 02 19 11
  24939824.220     2022502.001 2   1575973.884 1
  24073526.544    -3242652.584 2  -2526724.426 1
  24422961.038    18871476.317 2  14705034.191 1
  22538679.694    -7288858.356 3  -5679614.614 3
  22559661.871     8282232.190 3   6453685.076 2
  24485451.576     2206230.185 2   1719145.408 1
 91  4 29 21  0  0.0040000  0  6 16 06 18 02 19 11
  24945683.662     2053303.577 2   1599975.077 1
  24071419.299    -3253679.736 2  -2535317.007 1
  24436231.649    18941230.625 2  14759388.137 1
  22538093.001    -7291935.459 4  -5682012.337 3
  22566404.504     8317642.553 3   6481277.556 2
  24492247.869     2241942.437 2   1746973.123 1
 91  4 29 21  0 15.0040000  0  6 16 06 18 02 19 11
  24951571.287     2084233.127 2   1624075.989 1
  24069321.355    -3264685.167 2  -2543892.643 1
  24449520.252    19011046.023 2  14813789.677 1
  22537526.697    -7294921.869 3  -5684339.391 3
  22573151.334     8353119.175 3   6508921.666 2
  24499070.546     2277810.682 2   1774922.417 1
 91  4 29 21  0 30.0040000  0  6 16 06 18 02 19 11
  24957476.598     2115285.517 2   1648272.646 1
  24067229.406    -3275673.948 2  -2552455.266 1
  24462818.740    19080917.262 2  14868234.745 1
  22536974.773    -7297822.680 3  -5686599.748 2
  22579918.250     8388657.140 3   6536613.572 2
  24505926.205     2313829.798 2   1802989.233 1
 91  4 29 21  0 45.0040000  0  6 16 06 18 02 19 11
  24963410.388     2146457.872 2   1672562.748 1
  24065147.647    -3286648.831 2  -2561007.117 1
  24476123.833    19150841.362 2  14922721.013 1
  22536438.746    -7300640.442 3  -5688795.392 3
  22586689.362     8424253.868 3   6564351.266 2
  24512809.138     2349996.899 3   1831171.402 1
 91  4 29 21  1  0.0040000  0  6 16 06 18 02 19 11
  24969369.367     2177748.626 2   1696945.150 1
  24063060.488    -3297611.221 2  -2569549.199 1
  24489440.015    19220816.643 2  14977247.125 1
  22535916.208    -7303376.601 3  -5690927.448 3
  22593479.058     8459907.753 3   6592133.512 2
  24519721.151     2386310.350 2   1859467.572 1
 91  4 29 21  1 15.0040000  0  6 16 06 18 02 19 11
  24975338.833     2209164.759 2   1721425.221 1
  24060979.628    -3308553.627 2  -2578075.722 1
  24502764.286    19290850.028 2  15031818.532 1
  22535415.858    -7306023.937 3  -5692990.291 2
  22600272.358     8495626.301 3   6619966.136 2
  24526661.347     2422777.510 2   1887883.530 2
 91  4 29 21  1 30.0040000  0  6 16 06 18 02 19 11
  24981346.969     2240699.522 2   1745997.762 1
  24058905.067    -3319482.553 2  -2586591.734 1
  24516095.764    19360935.098 2  15086430.224 1
  22534924.800    -7308588.986 3  -5694989.002 2
  22607077.350     8531403.140 3   6647844.175 2
  24533627.623     2459391.702 2   1916414.052 1
 91  4 29 21  1 45.0040000  0  6 16 06 18 02 19 11
  24987365.610     2272354.608 2   1770664.085 1
  24056820.307    -3330396.239 2  -2595095.885 1
  24529449.412    19431072.902 2  15141082.981 1
  22534453.819    -7311070.054 4  -5696922.290 2
  22613896.424     8567240.125 3   6675769.083 2
  24540625.081     2496154.549 2   1945060.419 1
 91  4 29 21  2  0.0040000  0  6 16 06 18 02 19 11
  24993413.324     2304129.377 2   1795423.607 1
  24054749.342    -3341294.789 2  -2603588.232 2
  24542807.571    19501263.143 2  15195776.626 1
  22533996.335    -7313467.283 3  -5698790.245 2
  22620731.098     8603137.247 3   6703740.857 2
  24547650.417     2533065.612 2   1973822.284 1
 91  4 29 21  2 15.0040000  0  6 16 06 18 02 19 11
  24999480.817     2336023.451 2   1820276.088 1
  24052676.282    -3352178.461 2  -2612068.977 1
  24556169.316    19571505.443 2  15250510.842 1
  22533555.944    -7315780.880 4  -5700593.037 3
  22627572.360     8639094.166 3   6731759.231 2
  24554700.034     2570124.502 2   2002699.329 1
 91  4 29 21  2 30.0040000  0  6 16 06 18 02 19 11
  25005573.202     2368039.000 2   1845223.263 1
  24050613.404    -3363044.892 2  -2620536.284 1
  24569550.554    19641801.814 2  15305287.169 1
  22533131.441    -7318008.581 4  -5702328.886 2
  22634428.612     8675113.322 3   6759826.095 2
  24561777.537     2607333.459 2   2031693.301 1
 91  4 29 21  2 45.0040000  0  6 16 06 18 02 19 11
  25011690.769     2400174.871 2   1870264.194 1
  24048545.737    -3373894.924 2  -2628990.840 1
  24582933.893    19712151.202 2  15360104.817 1
  22532724.319    -7320151.113 3  -5703998.375 3
  22641291.163     8711193.767 3   6787940.706 2
  24568885.316     2644691.456 2   2060803.428 1
 91  4 29 21  3  0.0040000  0  6 16 06 18 02 19 11
  25017830.515     2432428.905 2   1895397.190 1
  24046478.968    -3384730.621 2  -2637434.198 1
  24596328.619    19782551.135 2  15414961.848 1
  22532332.492    -7322210.667 4  -5705603.213 3
  22648174.096     8747333.594 3   6816101.596 2
  24576020.379     2682196.255 2   2090027.931 1
 91  4 29 21  3 15.0040000  0  6 16 06 18 02 19 11
  25023986.157     2464797.884 2   1920619.754 1
  24044425.095    -3395554.690 2  -2645868.520 1
  24609735.037    19852998.687 2  15469855.997 1
  22531956.248    -7324190.095 3  -5707145.605 3
  22655054.333     8783530.161 3   6844306.706 2
  24583188.413     2719844.910 2   2119364.527 1
 91  4 29 21  3 30.0040000  0  6 16 06 18 02 19 11
  25030176.570     2497282.627 2   1945932.500 1
  24042367.016    -3406366.307 2  -2654293.136 2
  24623154.045    19923494.176 2  15524787.472 1
  22531595.002    -7326088.371 4  -5708624.772 3
  22661956.452     8819784.315 3   6872556.671 2
  24590383.435     2757638.081 2   2148813.723 2
 91  4 29 21  3 45.0040000  0  6 16 06 18 02 19 11
  25036375.978     2529884.995 2   1971336.935 1
  24040312.838    -3417163.399 2  -2662706.427 2
  24636573.952    19994039.610 2  15579757.884 1
  22531249.941    -7327903.529 3  -5710039.161 3
  22668864.871     8856098.103 3   6900853.122 2
  24597603.332     2795577.598 2   2178376.985 1
 91  4 29 21  4  0.0040000  0  6 16 06 18 02 19 11
  25042600.270     2562604.132 2   1996832.345 1
  24038259.261    -3427946.437 2  -2671108.772 1
  24650009.756    20064634.136 2  15634766.544 1
  22530918.972    -7329636.232 4  -5711389.313 3
  22675790.077     8892470.955 3   6929195.598 2
  24604848.418     2833662.874 2   2208053.810 1
 91  4 29 21  4 15.0040000  0  6 16 06 18 02 19 11
  25048857.839     2595438.386 2   2022417.449 1
  24036208.381    -3438716.641 2  -2679501.117 1
  24663452.749    20135276.264 2  15689812.296 1
  22530606.290    -7331287.760 4  -5712676.197 3
  22682719.777     8928901.800 3   6957583.252 2
  24612124.085     2871892.414 2   2237843.044 1
 91  4 29 21  4 30.0040000  0  6 16 06 18 02 19 11
  25055116.901     2628387.081 2   2048091.717 1
  24034166.190    -3449474.718 2  -2687884.008 1
  24676905.637    20205965.132 2  15744894.488 1
  22530307.394    -7332858.782 4  -5713900.358 3
  22689668.366     8965390.049 3   6986015.642 2
  24619426.426     2910265.406 2   2267744.073 2
 91  4 29 21  4 45.0040000  0  6 16 06 18 02 19 11
  25061411.648     2661452.835 2   2073857.249 1
  24032113.818    -3460217.386 2  -2696254.893 1
  24690366.019    20276703.683 2  15800015.368 1
  22530022.292    -7334346.100 4  -5715059.286 3
  22696621.153     9001938.938 3   7014495.278 2
  24626756.651     2948784.923 2   2297759.266 2
 91  4 29 21  5  0.0040000  0  6 16 06 18 02 19 11
  25067725.878     2694627.020 2   2099707.204 1
  24030077.927    -3470953.223 2  -2704620.451 1
  24703831.497    20347482.882 2  15855167.919 1
  22529755.479    -7335758.338 4  -5716159.719 3
  22703585.631     9038539.871 3   7043015.476 2
  24634112.058     2987442.171 2   2327881.776 1
 91  4 29 21  5 15.0040000  0  6 16 06 18 02 19 11
  25074061.093     2727912.133 2   2125643.636 1
  24028032.735    -3481679.610 2  -2712978.654 1
  24717311.660    20418304.964 2  15910353.896 1
  22529500.348    -7337092.938 3  -5717199.652 3
  22710559.104     9075195.570 3   7071578.350 2
  24641496.850     3026239.694 2   2358113.619 1
 91  4 29 21  5 30.0040000  0  6 16 06 18 02 19 11
  25080415.790     2761305.890 2   2151664.769 1
  24026000.745    -3492398.359 2  -2721330.918 1
  24730794.527    20489167.908 2  15965571.727 1
  22529261.716    -7338351.699 4  -5718180.492 3
  22717551.467     9111904.170 3   7100182.428 2
  24648908.315     3065175.431 2   2388453.109 1
 91  4 29 21  5 45.0040000  0  6 16 06 18 02 19 11
  25086794.770     2794811.821 2   2177773.257 1
  24023962.158    -3503105.664 2  -2729674.232 1
  24744284.287    20560075.331 2  16020824.200 1
  22529037.175    -7339530.794 4  -5719099.253 3
  22724540.524     9148669.615 3   7128830.809 2
  24656338.068     3104252.992 2   2418903.174 1
 91  4 29 21  6  0.0040000  0  6 16 06 18 02 19 11
  25093190.248     2828424.680 2   2203965.054 1
  24021916.076    -3513806.394 2  -2738012.436 1
  24757787.841    20631021.882 2  16076107.134 1
  22528826.717    -7340635.291 4  -5719959.876 3
  22731549.378     9185486.951 3   7157519.619 2
  24663804.999     3143467.145 2   2449459.627 2
 91  4 29 21  6 15.0040000  0  6 16 06 18 02 19 11
  25099597.707     2862146.533 2   2230241.810 1
  24019883.178    -3524498.335 2  -2746343.784 1
  24771297.686    20702009.486 2  16131422.095 1
  22528633.054    -7341663.058 3  -5720760.727 3
  22738564.522     9222358.393 3   7186250.601 2
  24671295.322     3182819.889 2   2480124.078 2
 91  4 29 21  6 30.0040000  0  6 16 06 18 02 19 11
  25106039.053     2895971.823 2   2256599.130 1
  24017854.783    -3535186.773 2  -2754672.425 1
  24784811.728    20773032.590 2  16186764.708 1
  22528449.583    -7342619.267 4  -5721505.807 3
  22745591.358     9259278.660 3   7215019.640 2
  24678804.822     3222305.777 2   2510892.293 1
 91  4 29 21  6 45.0040000  0  6 16 06 18 02 19 11
  25112499.874     2929904.754 2   2283040.381 1
  24015823.691    -3545867.474 2  -2762995.030 2
  24798338.369    20844095.083 2  16242138.031 1
  22528279.600    -7343499.727 4  -5722191.857 3
  22752622.391     9296252.041 3   7243830.048 2
  24686345.498     3261928.919 2   2541767.463 1
 91  4 29 21  7  0.0040000  0  6 16 06 18 02 19 11
  25118972.701     2963941.790 2   2309562.682 1
  24013786.605    -3556543.572 2  -2771314.016 1
  24811871.301    20915193.620 2  16297539.404 1
  22528128.499    -7344307.703 4  -5722821.442 3
  22759673.204     9333275.561 3   7272679.529 2
  24693908.064     3301685.854 2   2572746.869 1
 91  4 29 21  7 15.0040000  0  6 16 06 18 02 19 11
  25125477.296     2998086.909 2   2336169.297 1
  24011762.405    -3567210.704 2  -2779626.063 1
  24825403.334    20986332.264 2  16352972.041 1
  22527988.199    -7345039.031 4  -5723391.292 3
  22766725.221     9370353.452 3   7301571.379 2
  24701498.804     3341580.729 2   2603833.775 2
 91  4 29 21  7 30.0040000  0  6 16 06 18 02 19 11
  25131994.184     3032336.834 2   2362857.519 1
  24009727.108    -3577872.268 2  -2787933.753 1
  24838947.059    21057507.287 2  16408433.038 1
  22527861.685    -7345696.928 4  -5723903.927 3
  22773791.329     9407482.312 3   7330502.948 2
  24709117.430     3381609.956 2   2635025.374 1
 91  4 29 21  7 45.0040000  0  6 16 06 18 02 19 11
  25138531.158     3066690.980 2   2389626.952 1
  24007702.909    -3588527.949 2  -2796236.860 1
  24852502.466    21128718.515 2  16463922.254 1
  22527752.263    -7346281.379 4  -5724359.335 3
  22780866.433     9444662.569 3   7359474.556 2
  24716760.643     3421773.649 2   2666321.730 1
 91  4 29 21  8  0.0040000  0  6 16 06 18 02 19 11
  25145085.224     3101149.259 2   2416477.540 1
  24005671.520    -3599177.715 2  -2804535.365 1
  24866059.383    21199965.916 2  16519439.657 1
  22527654.533    -7346792.154 4  -5724757.320 3
  22787953.228     9481894.393 3   7388486.356 2
  24724428.138     3462071.693 2   2697722.774 2
 91  4 29 21  8 15.0040000  0  6 16 06 18 02 19 11
  25151661.469     3135712.251 2   2443409.705 1
  24003650.916    -3609820.487 2  -2812828.411 2
  24879623.499    21271250.117 2  16574985.702 1
  22527572.989    -7347228.546 4  -5725097.354 3
  22795046.916     9519178.637 3   7417538.998 2
  24732125.603     3502504.768 2   2729229.043 1
 91  4 29 21  8 30.0040000  0  6 16 06 18 02 19 11
  25158251.501     3170381.326 2   2470424.546 1
  24001625.216    -3620454.830 2  -2821114.889 2
  24893192.997    21342572.150 2  16630561.260 1
  22527502.533    -7347589.010 4  -5725378.227 3
  22802156.798     9556516.910 3   7446633.740 2
  24739841.365     3543074.285 2   2760841.644 1
 91  4 29 21  8 45.0040000  0  6 16 06 18 02 19 11
  25164875.123     3205156.126 2   2497521.757 1
  23999604.621    -3631080.880 2  -2829394.907 1
  24906774.502    21413931.883 2  16686166.181 1
  22527450.671    -7347873.683 4  -5725600.041 3
  22809266.976     9593909.004 3   7475770.430 2
  24747591.897     3583779.823 2   2792560.205 2
 91  4 29 21  9  0.0040000  0  6 16 06 18 02 19 11
  25171513.125     3240035.069 2   2524700.136 1
  23997583.720    -3641700.035 2  -2837669.579 1
  24920357.498    21485327.289 2  16741798.902 1
  22527408.101    -7348084.103 4  -5725763.986 3
  22816403.234     9631353.539 3   7504947.965 2
  24755359.521     3624619.728 2   2824383.497 2
 91  4 29 21  9 15.0040000  0  6 16 06 18 02 19 11
  25178177.808     3275021.070 2   2551961.972 1
  23995565.811    -3652308.928 2  -2845936.196 1
  24933961.479    21556761.576 2  16797461.907 1
  22527382.319    -7348217.025 4  -5725867.556 3
  22823527.504     9668853.839 3   7534168.956 2
  24763164.017     3665597.052 2   2856313.848 1
 91  4 29 21  9 30.0040000  0  6 16 06 18 02 19 11
  25184857.490     3310112.176 2   2579305.615 1
  23993546.114    -3662909.387 2  -2854196.298 1
  24947550.469    21628232.622 2  16853153.588 1
  22527372.128    -7348274.281 4  -5725912.174 3
  22830681.744     9706408.200 3   7563432.078 2
  24770988.006     3706709.849 2   2888349.772 1
 91  4 29 21  9 45.0040000  0  6 16 06 18 02 19 11
  25191548.252     3345308.948 2   2606731.638 1
  23991534.802    -3673500.514 2  -2862449.100 2
  24961160.749    21699741.038 2  16908874.323 1
  22527376.019    -7348254.949 4  -5725897.089 3
  22837830.897     9744017.553 3   7592738.059 2
  24778829.375     3747958.834 2   2920491.813 2
 91  4 29 21 10  0.0040000  0  6 16 06 18 02 19 11
  25198263.305     3380611.724 2   2634240.313 1
  23989519.904    -3684081.421 2  -2870693.951 1
  24974775.226    21771287.417 2  16964624.685 1
  22527395.511    -7348158.317 4  -5725821.785 3
  22845006.427     9781682.771 3   7622087.558 2
  24786704.623     3789344.500 2   2952740.371 1
 91  4 29 21 10 15.0040000  0  6 16 06 18 02 19 11
  25205002.039     3416021.236 2   2661832.128 1
  23987506.193    -3694651.359 2  -2878930.229 1
  24988398.393    21842872.255 2  17020405.020 1
  22527427.585    -7347983.637 4  -5725685.658 3
  22852176.268     9819404.623 3   7651481.182 2
  24794607.748     3830867.539 2   2985095.956 2
 91  4 29 21 10 30.0040000  0  6 16 06 18 02 19 11
  25211758.466     3451536.106 2   2689506.012 1
  23985496.687    -3705211.012 2  -2887158.523 2
  25002022.764    21914494.307 2  17076214.325 1
  22527475.250    -7347731.762 4  -5725489.377 3
  22859371.289     9857182.333 3   7680918.350 2
  24802536.665     3872526.828 2   3017557.726 2
 91  4 29 21 10 45.0040000  0  6 16 06 18 02 19 11
  25218537.972     3487151.209 2   2717258.018 1
  23983485.078    -3715765.523 2  -2895382.807 2
  25015670.212    21986148.047 2  17132048.328 1
  22527540.008    -7347407.874 4  -5725236.984 3
  22866563.004     9895010.910 3   7710395.151 2
  24810491.058     3914317.022 2   3050121.460 1
 91  4 29 21 11  0.0040000  0  6 16 06 18 02 19 11
  25225333.069     3522877.176 2   2745096.347 1
  23981483.966    -3726303.780 2  -2903594.414 2
  25029305.673    22057844.444 2  17187915.616 1
  22527614.956    -7347000.981 4  -5724919.913 3
  22873774.516     9932901.417 3   7739920.197 2
  24818469.132     3956249.037 2   3082795.752 1
 91  4 29 21 11 15.0040000  0  6 16 06 18 02 19 11
  25232154.246     3558707.844 2   2773016.318 1
  23979479.852    -3736831.706 2  -2911797.973 1
  25042953.427    22129577.242 2  17243811.252 1
  22527706.395    -7346517.011 4  -5724542.778 3
  22880997.414     9970847.853 3   7769488.827 2
  24826478.389     3998316.637 2   3115575.674 1
 91  4 29 21 11 30.0040000  0  6 16 06 18 02 19 11
  25239000.603     3594642.581 2   2801017.397 1
  23977476.034    -3747349.574 2  -2919993.711 2
  25056613.763    22201345.867 2  17299734.737 1
  22527814.918    -7345956.261 4  -5724105.809 3
  22888234.708    10008849.992 3   7799100.864 2
  24834501.136     4040519.396 2   3148460.930 1
 91  4 29 21 11 45.0040000  0  6 16 06 18 02 19 11
  25245846.961     3630680.616 2   2829098.974 1
  23975476.126    -3757858.005 2  -2928182.098 1
  25070277.406    22273149.337 2  17355685.444 1
  22527936.634    -7345319.453 4  -5723609.603 3
  22895468.094    10046907.296 3   7828755.899 2
  24842561.653     4082856.356 2   3181450.755 2
 91  4 29 21 12  0.0040000  0  6 16 06 18 02 19 11
  25252729.004     3666821.999 2   2857261.042 1
  23973481.008    -3768356.800 2  -2936362.949 1
  25083947.348    22344987.349 2  17411663.079 1
  22528070.337    -7344606.509 4  -5723054.052 3
  22902724.270    10085019.906 3   7858454.026 2
  24850647.656     4125327.463 2   3214545.094 1
 91  4 29 21 12 15.0040000  0  6 16 06 18 02 19 11
  25259617.634     3703065.191 2   2885502.468 1
  23971484.083    -3778847.033 2  -2944537.141 1
  25097629.872    22416858.783 2  17467666.701 1
  22528222.041    -7343818.556 4  -5722440.058 3
  22909982.845    10123186.755 3   7888194.401 2
  24858751.948     4167931.486 2   3247742.986 1
 91  4 29 21 12 30.0040000  0  6 16 06 18 02 19 11
  25266546.732     3739414.285 2   2913826.356 1
  23969486.566    -3789324.052 2  -2952701.033 1
  25111308.504    22488768.095 2  17523699.864 1
  22528387.521    -7342951.107 4  -5721764.117 3
  22917262.107    10161412.552 3   7917980.713 2
  24866886.210     4210672.714 2   3281047.820 1
 91  4 29 21 12 45.0040000  0  6 16 06 18 02 19 11
  25273485.732     3775866.592 2   2942230.789 1
  23967499.841    -3799790.400 2  -2960856.632 2
  25125001.524    22560712.132 2  17579760.075 1
  22528563.201    -7342006.704 4  -5721028.213 3
  22924547.364    10199694.710 3   7947810.943 2
  24875039.667     4253548.435 2   3314457.438 1
 91  4 29 21 13  0.0050000  0  6 16 06 18 02 19 11
  25280435.215     3812424.879 2   2970717.763 1
  23965510.423    -3810246.087 2  -2969003.895 1
  25138697.243    22632696.057 2  17635851.375 1
  22528760.767    -7340984.787 4  -5720231.908 3
  22931842.212    10238036.426 3   7977687.588 2
  24883231.195     4296561.896 2   3347974.387 2
 91  4 29 21 13 15.0050000  0  6 16 06 18 02 19 11
  25287415.887     3849082.456 2   2999282.094 1
  23963525.199    -3820691.323 2  -2977143.034 1
  25152398.657    22704708.269 2  17691964.699 1
  22528970.615    -7339887.166 4  -5719376.614 3
  22939149.055    10276431.212 3   8007605.580 2
  24891439.219     4339705.521 2   3381592.774 1
 91  4 29 21 13 30.0050000  0  6 16 06 18 02 19 11
  25294398.050     3885840.530 2   3027924.661 1
  23961536.372    -3831127.392 2  -2985275.029 2
  25166107.269    22776752.886 2  17748103.282 1
  22529194.859    -7338714.429 4  -5718462.786 3
  22946464.596    10314880.765 3   8037566.249 2
  24899674.212     4382981.271 2   3415314.123 1
 91  4 29 21 13 45.0050000  0  6 16 06 18 02 19 11
  25301412.898     3922700.647 2   3056646.814 1
  23959553.547    -3841552.653 2  -2993398.586 1
  25179827.267    22848831.276 2  17804268.174 1
  22529429.599    -7337464.918 4  -5717489.136 3
  22953791.820    10353386.783 3   8067570.921 2
  24907934.692     4426390.592 2   3449139.521 1
 91  4 29 21 14  0.0050000  0  6 16 06 18 02 19 11
  25308452.927     3959665.568 2   3085450.623 1
  23957572.817    -3851964.127 2  -3001511.418 2
  25193549.665    22920946.099 2  17860461.495 1
  22529683.822    -7336135.736 4  -5716453.402 3
  22961131.042    10391952.306 3   8097621.963 2
  24916221.556     4469936.095 2   3483071.040 1
 91  4 29 21 14 15.0050000  0  6 16 06 18 02 19 11
  25315507.936     3996733.823 2   3114334.931 1
  23955589.390    -3862362.664 2  -3009614.144 1
  25207276.268    22993095.869 2  17916682.009 1
  22529950.340    -7334727.764 4  -5715356.276 3
  22968478.054    10430576.486 3   8127718.710 2
  24924533.600     4513616.602 2   3517107.789 2
 91  4 29 21 14 30.0050000  0  6 16 06 18 02 19 11
  25322583.040     4033904.023 2   3143298.667 1
  23953612.263    -3872749.563 2  -3017707.844 1
  25221015.758    23065278.859 2  17972928.408 1
  22530231.847    -7333242.488 4  -5714198.908 3
  22975842.456    10469258.073 3   8157860.183 2
  24932873.234     4557430.726 2   3551248.613 1
 91  4 29 21 14 45.0050000  0  6 16 06 18 02 19 11
  25329681.823     4071179.741 2   3172344.639 1
  23951644.419    -3883121.070 2  -3025789.513 2
  25234758.537    23137498.871 2  18029203.675 1
  22530528.640    -7331676.254 4  -5712978.453 3
  22983213.751    10508000.701 3   8188049.221 2
  24941234.741     4601381.906 2   3585496.281 2
 91  4 29 21 15  0.0050000  0  6 16 06 18 02 19 11
  25336789.908     4108558.489 2   3201470.910 1
  23949672.091    -3893479.044 2  -3033860.664 1
  25248505.827    23209753.621 2  18085505.977 1
  22530846.120    -7330030.887 4  -5711696.329 3
  22990597.636    10546802.603 3   8218284.464 2
  24949624.134     4645468.122 2   3619849.151 1
 91  4 29 21 15 15.0050000  0  6 16 06 18 02 19 11
  25343918.374     4146039.987 2   3230677.252 1
  23947700.949    -3903823.437 2  -3041921.219 2
  25262262.401    23282042.741 2  18141835.083 1
  22531172.893    -7328306.551 4  -5710352.682 3
  22997991.119    10585663.948 3   8248565.992 2
  24958039.606     4689689.113 2   3654307.052 1
 91  4 29 21 15 30.0050000  0  6 16 06 18 02 19 11
  25351077.413     4183624.499 2   3259963.851 1
  23945735.810    -3914153.844 2  -3049970.865 2
  25276027.970    23354366.419 2  18198191.130 1
  22531515.554    -7326502.812 4  -5708947.167 3
  23005404.094    10624585.088 3   8278894.150 2
  24966477.267     4734044.850 2   3688869.916 1
 91  4 29 21 15 45.0050000  0  6 16 06 18 02 19 11
  25358249.950     4221316.347 2   3289334.092 1
  23943773.368    -3924465.692 2  -3058006.053 2
  25289806.435    23426729.105 2  18254577.564 1
  22531875.011    -7324615.314 4  -5707476.367 3
  23012818.857    10663570.437 3   8309272.314 2
  24974945.805     4778539.604 2   3723541.113 1
 91  4 29 21 16  0.0050000  0  6 16 06 18 02 19 11
  25365440.775     4259118.055 2   3318789.951 1
  23941813.926    -3934755.929 2  -3066024.410 2
  25303575.600    23499133.063 2  18310996.168 1
  22532250.051    -7322641.160 4  -5705938.053 3
  23020250.713    10702623.032 3   8339702.887 2
  24983436.226     4823176.131 2   3758322.805 1
 91  4 29 21 16 15.0050000  0  6 16 06 18 02 19 11
  25372658.272     4297034.928 2   3348335.527 1
  23939860.776    -3945018.738 2  -3074021.391 2
  25317363.950    23571584.089 2  18367451.419 1
  22532644.278    -7320574.437 4  -5704327.612 3
  23027695.159    10741748.592 3   8370190.312 2
  24991961.128     4867960.051 2   3793219.327 1
 91  4 29 21 16 30.0050000  0  6 16 06 18 02 19 11
  25379887.470     4335063.908 2   3377968.440 1
  23937914.824    -3955256.980 2  -3081999.239 1
  25331159.202    23644078.807 2  18423940.745 1
  22533053.494    -7318418.335 4  -5702647.516 3
  23035154.891    10780944.426 3   8400732.499 2
  25000514.204     4912888.094 2   3828228.176 1
 91  4 29 21 16 45.0050000  0  6 16 06 18 02 19 11
  25387148.741     4373202.282 2   3407686.673 1
  23935968.871    -3965472.997 2  -3089959.755 1
  25344964.349    23716614.612 2  18480462.076 1
  22533481.592    -7316175.061 4  -5700899.495 3
  23042624.824    10820208.394 3   8431327.784 2
  25009086.467     4957957.830 2   3863347.443 1
 91  4 29 21 17  0.0050000  0  6 16 06 18 02 19 11
  25394421.704     4411447.918 2   3437488.361 1
  23934025.920    -3975668.795 2  -3097904.522 1
  25358774.285    23789189.399 2  18537013.730 1
  22533924.086    -7313846.701 4  -5699085.171 3
  23050114.239    10859538.217 3   8461974.386 2
  25017693.813     5003166.891 2   3898575.261 1
 91  4 29 21 17 15.0050000  0  6 16 06 18 02 19 11
  25401730.047     4449798.467 2   3467371.905 1
  23932094.652    -3985846.229 2  -3105834.969 1
  25372588.419    23861800.582 2  18593593.813 1
  22534382.171    -7311435.403 4  -5697206.226 3
  23057608.453    10898932.034 3   8492670.843 2
  25026320.337     5048513.026 2   3933909.895 1
 91  4 29 21 17 30.0050000  0  6 16 06 18 02 19 11
  25409038.687     4488255.728 2   3497338.575 1
  23930165.191    -3996003.120 2  -3113749.421 1
  25386415.151    23934450.221 2  18650203.870 1
  22534857.044    -7308938.977 4  -5695260.943 3
  23065114.656    10938392.046 3   8523418.886 2
  25034974.144     5093998.218 2   3969352.872 1
 91  4 29 21 17 45.0050000  0  6 16 06 18 02 19 11
  25416379.409     4526813.594 2   3527383.632 1
  23928230.633    -4006145.086 2  -3121652.253 2
  25400242.477    24007132.204 2  18706839.084 1
  22535346.305    -7306363.213 4  -5693253.840 3
  23072634.644    10977912.514 3   8554214.034 2
  25043653.437     5139616.447 2   4004899.530 1
 91  4 29 21 18  0.0050000  0  6 16 06 18 02 19 11
  25423733.916     4565473.366 2   3557508.088 1
  23926303.265    -4016270.669 2  -3129542.304 2
  25414083.894    24079847.785 2  18763500.526 1
  22535855.650    -7303706.771 4  -5691183.872 3
  23080175.624    11017495.073 2   8585057.553 2
  25052365.109     5185369.059 2   4040550.873 1
 91  4 29 21 18 15.0050000  0  6 16 06 18 02 19 11
  25431112.104     4604230.650 2   3587708.525 1
  23924379.798    -4026384.025 2  -3137422.821 2
  25427924.115    24152592.543 2  18820184.628 1
  22536371.898    -7300973.928 4  -5689054.376 3
  23087707.915    11057135.629 3   8615946.276 2
  25061094.764     5231251.590 2   4076303.489 2
 91  4 29 21 18 30.0050000  0  6 16 06 18 02 19 11
  25438504.086     4643081.421 2   3617981.822 1
  23922459.925    -4036488.752 2  -3145296.630 1
  25441776.621    24225362.218 2  18876888.231 1
  22536905.525    -7298168.299 4  -5686868.157 3
  23095268.082    11096830.482 3   8646877.314 2
  25069849.303     5277260.040 2   4112154.176 1
 91  4 29 21 18 45.0050000  0  6 16 06 18 02 19 11
  25445918.256     4682027.509 2   3648329.354 1
  23920537.356    -4046582.497 2  -3153161.875 2
  25455630.035    24298158.888 2  18933612.797 1
  22537456.245    -7295287.627 4  -5684623.467 3
  23102828.843    11136582.082 3   8677852.574 2
  25078632.023     5323396.603 2   4148104.721 1
 91  4 29 21 19  0.0050000  0  6 16 06 18 02 19 11
  25453345.016     4721070.030 2   3678752.064 1
  23918618.687    -4056664.002 2  -3161017.576 1
  25469486.441    24370983.634 2  18990359.289 1
  22538017.156    -7292330.860 4  -5682319.483 3
  23110403.398    11176391.384 3   8708872.789 2
  25087432.430     5369662.030 2   4184155.682 1
 91  4 29 21 19 15.0050000  0  6 16 06 18 02 19 11
  25460793.362     4760207.270 2   3709248.587 1
  23916700.917    -4066734.587 2  -3168864.794 2
  25483349.147    24443834.880 2  19047126.424 1
  22538594.253    -7289299.393 4  -5679957.295 3
  23117986.948    11216257.132 3   8739936.983 2
  25096260.417     5416054.807 2   4220305.870 2
 91  4 29 21 19 30.0050000  0  6 16 06 18 02 19 11
  25468263.888     4799435.588 2   3739816.064 1
  23914785.537    -4076797.358 2  -3176705.886 2
  25497206.147    24516708.905 2  19103911.276 1
  22539183.651    -7286196.385 4  -5677539.349 3
  23125585.192    11256176.227 3   8771042.757 2
  25105114.195     5462571.455 2   4256552.593 1
 91  4 29 21 19 45.0050000  0  6 16 06 18 02 19 11
  25475740.111     4838759.201 2   3770457.783 1
  23912872.260    -4086847.811 2  -3184537.402 1
  25511088.345    24589610.032 2  19160717.288 1
  22539789.531    -7283017.359 4  -5675062.176 3
  23133191.524    11296153.220 3   8802193.639 2
  25113989.550     5509216.208 2   4292899.124 1
 91  4 29 21 20  0.0050000  0  6 16 06 18 02 19 11
  25483240.921     4878178.225 2   3801173.905 1
  23910965.580    -4096885.701 2  -3192359.116 2
  25524963.938    24662538.310 2  19217544.389 1
  22540407.697    -7279762.277 4  -5672525.740 3
  23140813.447    11336188.249 3   8833389.748 2
  25122891.587     5555989.027 2   4329345.444 1
 91  4 29 21 20 15.0050000  0  6 16 06 18 02 19 11
  25490760.909     4917694.158 2   3831965.484 1
  23909055.906    -4106909.033 2  -3200169.500 1
  25538844.627    24735495.461 2  19274394.105 1
  22541043.556    -7276429.204 4  -5669928.526 3
  23148441.670    11376283.391 3   8864632.692 2
  25131818.804     5602891.711 2   4365892.954 1
 91  4 29 21 20 30.0050000  0  6 16 06 18 02 19 11
  25498301.297     4957308.319 2   3862833.633 1
  23907150.125    -4116915.996 2  -3207967.116 2
  25552739.406    24808482.612 2  19331267.080 1
  22541692.312    -7273016.531 4  -5667269.291 3
  23156084.272    11416440.442 2   8895923.883 2
  25140770.609     5649925.585 2   4402542.712 1
 91  4 29 21 20 45.0050000  0  6 16 06 18 02 19 11
  25505856.063     4997019.716 2   3893777.519 1
  23905250.939    -4126907.206 2  -3215752.459 2
  25566632.685    24881498.933 2  19388162.838 1
  22542355.150    -7269524.942 4  -5664548.565 3
  23163738.575    11456658.811 3   8927262.841 2
  25149741.294     5697089.704 2   4439293.947 1
 91  4 29 21 21  0.0050000  0  6 16 06 18 02 19 11
  25513436.612     5036830.282 2   3924798.681 1
  23903351.151    -4136880.360 2  -3223523.737 2
  25580530.771    24954546.252 2  19445082.762 1
  22543037.776    -7265952.304 4  -5661764.683 3
  23171409.071    11496940.735 2   8958651.338 2
  25158737.772     5744386.047 2   4476148.225 2
 91  4 29 21 21 15.0050000  0  6 16 06 18 02 19 11
  25521018.671     5076740.188 2   3955897.288 1
  23901457.070    -4146834.765 2  -3231280.411 1
  25594439.336    25027625.236 2  19502027.334 1
  22543732.696    -7262297.901 4  -5658917.089 3
  23179083.153    11537286.867 3   8990089.870 2
  25167772.613     5791814.996 2   4513105.814 1
 91  4 29 21 21 30.0050000  0  6 16 06 18 02 19 11
  25528642.985     5116750.692 2   3987074.286 1
  23899569.270    -4156769.242 2  -3239021.552 1
  25608351.810    25100736.458 2  19558997.057 1
  22544444.403    -7258560.650 4  -5656004.939 3
  23186777.024    11577698.262 2   9021579.251 2
  25176817.654     5839377.489 2   4550167.444 1
 91  4 29 21 21 45.0050000  0  6 16 06 18 02 19 11
  25536282.603     5156859.083 2   4018327.504 1
  23897678.478    -4166685.981 2  -3246748.874 1
  25622272.067    25173877.432 2  19615989.922 1
  22545169.006    -7254742.950 4  -5653030.100 3
  23194470.005    11618172.927 3   9053117.932 2
  25185896.270     5887071.090 2   4587331.246 2
 91  4 29 21 22  0.0050000  0  6 16 06 18 02 19 11
  25543931.505     5197071.567 2   4049661.875 1
  23895799.386    -4176578.278 2  -3254457.150 2
  25636197.428    25247054.400 2  19673010.855
  22545911.591    -7250838.160 4  -5649987.406 3
  23202189.955    11658717.521 3   9084711.090 2
  25194992.274     5934902.001 2   4624602.097 1
 91  4 29 21 22 15.0050000  0  6 16 06 18 02 19 11
  25551593.895     5237385.832 2   4081075.573 1
  23893923.278    -4186448.128 2  -3262147.929 1
  25650126.087    25320265.206 2  19730058.165 1
  22546671.566    -7246848.391 4  -5646878.486 3
  23209917.409    11699329.947 3   9116357.138 2
  25204123.650     5982867.994 2   4661978.162 1
 91  4 29 21 22 30.0050000  0  6 16 06 18 02 19 11
  25559285.079     5277800.424 2   4112567.417 1
  23892047.476    -4196296.727 2  -3269822.166 1
  25664063.140    25393508.330 2  19787130.626 1
  22547448.929    -7242774.933 4  -5643704.359 3
  23217663.150    11740008.946 2   9148055.033 2
  25213275.112     6030967.454 2   4699458.256 1
 91  4 29 21 22 45.0050000  0  6 16 06 18 02 19 11
  25566998.433     5318313.596 2   4144136.068 1
  23890178.575    -4206125.510 2  -3277480.946 2
  25678011.579    25466781.934 2  19844226.828 1
  22548238.281    -7238619.462 4  -5640466.329 3
  23225408.281    11780752.967 3   9179803.610 2
  25222451.457     6079198.642 2   4737040.944 1
 91  4 29 21 23  0.0050000  0  6 16 06 18 02 19 11
  25574726.183     5358925.029 2   4175781.299 1
  23888308.165    -4215934.126 2  -3285124.011 2
  25691954.626    25540085.971 2  19901346.820 1
  22549042.919    -7234381.794 4  -5637164.242 3
  23233182.205    11821562.352 2   9211603.107 2
  25231656.290     6127561.536 2   4774726.275 1
 91  4 29 21 23 15.0050000  0  6 16 06 18 02 19 11
  25582471.619     5399633.262 2   4207501.963 1
  23886446.157    -4225723.821 2  -3292752.323 2
  25705912.069    25613418.719 2  19958489.116 1
  22549867.652    -7230063.315 4  -5633799.186 3
  23240954.026    11862436.054 3   9243452.729 2
  25240884.497     6176054.642 2   4812513.114 1
 91  4 29 21 23 30.0050000  0  6 16 06 18 02 19 11
  25590240.744     5440439.570 2   4239299.045 1
  23884584.149    -4235492.727 2  -3300364.459 2
  25719873.700    25686781.670 2  20015654.970 1
  22550705.271    -7225662.244 4  -5630369.772 3
  23248746.830    11903375.772 3   9275353.802 2
  25250134.299     6224679.460 2   4850402.515 2
 91  4 29 21 23 45.0050000  0  6 16 06 18 02 19 11
  25598020.959     5481348.368 2   4271175.993 1
  23882734.426    -4245236.035 2  -3307956.639 2
  25733843.734    25760179.743 2  20072848.160 1
  22551558.185    -7221173.677 4  -5626872.183 3
  23256551.022    11944386.408 3   9307310.114 2
  25259415.267     6273440.567 2   4888398.166 1
 91  4 29 21 24  0.0050000  0  6 16 06 18 02 19 11
  25605824.556     5522357.356 2   4303131.001 1
  23880883.210    -4254955.835 2  -3315530.494 2
  25747809.265    25833610.250 2  20130066.630 1
  22552427.878    -7216599.962 4  -5623308.247 3
  23264372.907    11985465.684 2   9339319.921 2
  25268725.028     6322335.403 2   4926497.999 1
 91  4 29 21 24 15.0050000  0  6 16 06 18 02 19 11
  25613645.247     5563464.348 2   4335162.452 1
  23879038.286    -4264654.081 2  -3323087.551 2
  25761792.482    25907070.693 2  20187308.440 1
  22553315.867    -7211943.290 4  -5619679.660 3
  23272197.192    12026611.613 3   9371381.681 2
  25278047.973     6371361.738 2   4964700.294 1
 91  4 29 21 24 30.0050000  0  6 16 06 18 02 19 11
  25621491.414     5604663.881 2   4367265.930 2
  23877195.761    -4274335.703 2  -3330631.663 2
  25775777.497    25980555.734 2  20244569.403 1
  22554216.141    -7207208.662 4  -5615990.344 3
  23280038.561    12067819.092 3   9403491.376 2
  25287404.492     6420514.296 2   5003000.979 1
 91  4 29 21 24 45.0050000  0  6 16 06 18 02 19 11
  25629349.273     5645963.579 2   4399447.411 1
  23875358.035    -4283992.670 2  -3338156.567 2
  25789771.210    26054073.405 2  20301855.799 1
  22555132.007    -7202387.978 4  -5612233.960 3
  23287892.223    12109096.479 3   9435655.556 2
  25296782.003     6469800.751 2   5041405.979 1
 91  4 29 21 25  0.0050000  0  6 16 06 18 02 19 11
  25637226.616     5687362.029 2   4431705.886 1
  23873523.302    -4293626.063 2  -3345663.091 2
  25803761.329    26127622.043 2  20359166.356 1
  22556065.262    -7197482.665 4  -5608411.634 3
  23295763.580    12150442.394 3   9467873.127 2
  25306183.194     6519219.673 2   5079914.191 1
 91  4 29 21 25 15.0050000  0  6 16 06 18 02 19 11
  25645121.356     5728857.262 2   4464039.797 1
  23871699.370    -4303237.478 2  -3353152.484 2
  25817762.834    26201199.688 2  20416499.505 1
  22557014.702    -7192494.368 4  -5604524.646 3
  23303641.228    12191855.232 3   9500142.848 2
  25315613.763     6568769.174 2   5118524.144 1
 91  4 29 21 25 30.0050000  0  6 16 06 18 02 19 11
  25653036.470     5770446.239 2   4496446.767 1
  23869867.935    -4312829.428 2  -3360626.715 2
  25831768.239    26274803.524 2  20473853.045 1
  22557981.235    -7187425.662 4  -5600574.998 3
  23311537.155    12233332.635 3   9532462.894 2
  25325068.021     6618446.327 2   5157233.641 1
 91  4 29 21 25 45.0050000  0  6 16 06 18 02 19 11
  25660967.785     5812130.985 2   4528928.327 1
  23868049.395    -4322399.527 2  -3368083.923 2
  25845783.539    26348435.552 2  20531228.535 1
  22558960.358    -7182274.330 4  -5596560.973 3
  23319439.687    12274876.871 3   9564835.009 2
  25334545.661     6668253.090 2   5196044.052 1
 91  4 29 21 26  0.0050000  0  6 16 06 18 02 19 11
  25668918.576     5853910.435 2   4561483.730 1
  23866232.348    -4331948.624 2  -3375524.776 2
  25859797.931    26422094.949 2  20588625.399 1
  22559957.167    -7177041.317 4  -5592483.294 3
  23327358.404    12316487.054 3   9597258.508 2
  25344047.881     6718188.407 2   5234954.632 1
 91  4 29 21 26 15.0050000  0  6 16 06 18 02 19 11
  25676889.757     5895781.043 2   4594110.125 1
  23864417.106    -4341479.822 2  -3382951.674 2
  25873824.320    26495777.988 2  20646040.681 1
  22560966.566    -7171729.983 4  -5588344.584 3
  23335287.913    12358159.885 3   9629730.823 2
  25353578.579     6768248.727 2   5273962.656 1
 91  4 29 21 26 30.0050000  0  6 16 06 18 02 19 11
  25684869.933     5937746.242 2   4626810.233 1
  23862612.955    -4350989.714 2  -3390361.954 1
  25887847.114    26569487.539 2  20703476.587 1
  22561989.760    -7166336.971 4  -5584142.236 3
  23343225.520    12399898.924 3   9662254.740 2
  25363127.268     6818437.130 2   5313070.460 1
 91  4 29 21 26 45.0050000  0  6 16 06 18 02 19 11
  25692878.292     5979803.668 2   4659582.252
  23860805.810    -4360479.544 3  -3397756.620 1
  25901877.107    26643221.862 2  20760931.843 1
  22563033.038    -7160863.765 4  -5579877.400 3
  23351186.807    12441702.767 3   9694829.151 2
  25372704.742     6868751.970 2   5352276.775 1
 91  4 29 21 27  0.0050000  0  6 16 06 18 02 19 11
  25700897.138     6021948.905 2   4692422.615 1
  23859002.557    -4369953.286 2  -3405138.734 2
  25915916.985    26716976.818 2  20818403.167 1
  22564090.705    -7155314.492 4  -5575553.286 3
  23359156.792    12483567.364 3   9727450.887 2
  25382303.496     6919188.849 2   5391578.245 1
 91  4 29 21 27 15.0050000  0  6 16 06 18 02 19 11
  25708931.279     6064183.143 2   4725332.388 1
  23857202.305    -4379409.695 2  -3412507.350 2
  25929960.161    26790753.340 2  20875891.256 1
  22565163.666    -7149687.831 4  -5571168.867 3
  23367127.973    12525493.979 3   9760120.965 2
  25391920.538     6969748.766 2   5430975.534 1
 91  4 29 21 27 30.0050000  0  6 16 06 18 02 19 11
  25716980.402     6106503.191 2   4758309.005 1
  23855403.249    -4388851.583 2  -3419864.657 2
  25943996.148    26864548.154 2  20933393.613 1
  22566247.709    -7143986.944 4  -5566726.616 3
  23375121.639    12567479.775 3   9792837.152 2
  25401561.862     7020428.574 2   5470466.244 1
 91  4 29 21 27 45.0050000  0  6 16 06 18 02 19 11
  25725055.316     6148914.063 2   4791356.414 1
  23853613.790    -4398273.289 2  -3427206.226 2
  25958042.622    26938366.676 2  20990914.441 1
  22567347.352    -7138206.229 4  -5562222.160 3
  23383123.698    12609530.337 3   9825603.802 2
  25411233.767     7071233.615 2   5510054.536 1
 91  4 29 21 28  0.0050000  0  6 16 06 18 02 19 11
  25733142.218     6191410.365 2   4824470.380 1
  23851821.025    -4407679.988 3  -3434536.111 2
  25972091.496    27012203.431 2  21048449.541 1
  22568458.677    -7132350.916 4  -5557659.577 3
  23391138.653    12651640.614 2   9858416.994 2
  25420922.163     7122158.359 2   5549736.140 1
 91  4 29 21 28 15.0050000  0  6 16 06 18 02 19 11
  25741242.609     6233990.757 2   4857649.772 1
  23850037.560    -4417072.613 3  -3441855.033 2
  25986149.661    27086056.874 2  21105997.597 1
  22569586.197    -7126422.262 4  -5553039.835 3
  23399157.499    12693809.574 3   9891275.912 2
  25430642.335     7173201.431 2   5589509.912 1
 91  4 29 21 28 30.0050000  0  6 16 06 18 02 19 11
  25749365.484     6276657.652 2   4890896.785 1
  23848246.600    -4426448.313 3  -3449160.757 2
  26000210.829    27159929.680 2  21163560.712 1
  22570733.505    -7120417.453 4  -5548360.758 3
  23407197.032    12736040.042 3   9924182.743 2
  25440369.697     7224365.220 2   5629377.766 1
 91  4 29 21 28 45.0050000  0  6 16 06 18 02 19 11
  25757497.958     6319414.191 2   4924213.450 1
  23846472.733    -4435803.569 3  -3456450.545 2
  26014268.995    27233824.933 2  21221141.341 1
  22571887.706    -7114333.267 4  -5543619.836 3
  23415242.865    12778335.347 3   9957140.106 2
  25450139.036     7275652.948 2   5669342.177 1
 91  4 29 21 29  0.0050000  0  5 16 06 18 19 11
  25765649.609     6362260.529 2   4957600.118 1
  23844693.762    -4445137.698 3  -3463723.884 2
  26028337.055    27307742.854 2  21278739.589 1
  23423306.681    12820695.967 3   9990148.361 2
  25459912.571     7327065.020 2   5709403.509 1
 91  4 29 21 29 15.0050000  0  6 16 06 18 02 19 11
  25773822.558     6405192.319 2   4991053.482 1
  23842920.785    -4454454.624 3  -3470983.811 2
  26042404.522    27381679.319 2  21336352.356 1
  22574249.174       49226.26414     38374.545 3
  23431376.499    12863118.122 3  10023204.571 2
  25469725.379     7378597.090 2   5749558.313 1
 91  4 29 21 29 30.0050000  0  6 16 06 18 02 19 11
  25782014.083     6448213.008 2   5024575.991 1
  23841151.115    -4463750.727 3  -3478227.521 2
  26056476.177    27455637.557 2  21393982.066 1
  22575453.440       55546.093 4     43299.091 3
  23439472.693    12905605.458 2  10056311.565 2
  25479548.673     7430252.414 2   5789809.187 1
 91  4 29 21 29 45.0050000  0  6 16 06 18 02 19 11
  25790218.207     6491320.548 2   5058166.240 1
  23839384.141    -4473027.487 3  -3485456.147 2
  26070554.131    27529615.612 2  21451627.216 1
  22576669.101       61943.780 4     48284.310 3
  23447559.892    12948156.444 3  10089468.159 2
  25489410.044     7482029.113 2   5830154.613 1
 91  4 29 21 30  0.0050000  0  6 16 06 18 02 19 11
  25798435.217     6534517.248 2   5091826.017 1
  23837620.159    -4482282.022 3  -3492667.469 2
  26084637.478    27603616.149 2  21509289.883 1
  22577905.143       68421.951 4     53332.239 3
  23455674.976    12990773.975 3  10122676.616 2
  25499279.216     7533929.621 2   5870596.537 1
 91  4 29 21 30 15.0050000  0  6 16 06 18 02 19 11
  25806672.313     6577796.484 2   5125549.991 1
  23835868.472    -4491520.563 3  -3499866.323 2
  26098721.731    27677632.597 2  21566964.950 1
  22579148.681       74974.338 4     58437.998 3
  23463791.858    13033451.554 3  10155931.858 2
  25509184.963     7585947.349 2   5911129.776 1
 91  4 29 21 30 30.0050000  0  6 16 06 18 02 19 11
  25814921.703     6621161.809 2   5159341.082 1
  23834112.587    -4500739.415 3  -3507049.828 2
  26112812.276    27751668.343 2  21624655.041 1
  22580410.803       81604.590 4     63604.434 3
  23471929.723    13076192.877 2  10189236.755 2
  25519103.291     7638085.692 2   5951757.009 1
 91  4 29 21 30 45.0050000  0  6 16 06 18 02 19 11
  25823192.374     6664615.173 2   5193200.820 1
  23832362.697    -4509936.190 3  -3514216.135 2
  26126902.524    27825725.220 2  21682361.590 1
  22581689.424       88314.823 4     68833.193 3
  23480069.988    13119000.232 3  10222593.124 2
  25529044.410     7690346.678 2   5992479.829 1
 91  4 29 21 31  0.0050000  0  6 16 06 18 02 19 11
  25831481.035     6708149.349 2   5227123.517 1
  23830617.911    -4519117.415 3  -3521370.332 2
  26140998.461    27899796.294 2  21740079.206 1
  22582979.431       95098.361 4     74119.072 3
  23488227.642    13161867.298 3  10255996.011 2
  25539013.710     7742723.305 2   6033292.767 1
 91  4 29 21 31 15.0050000  0  6 16 06 18 02 19 11
  25839773.300     6751765.101 2   5261109.817 1
  23828869.521    -4528282.271 3  -3528511.763 2
  26155093.203    27973882.012 2  21797808.265 1
  22584283.530      101955.860 4     79462.576 3
  23496397.284    13204794.734 3  10289445.932 2
  25549002.198     7795215.940 2   6074196.061 1
 91  4 29 21 31 30.0050000  0  6 16 06 18 02 19 11
  25848090.737     6795464.791 2   5295161.348 1
  23827132.823    -4537427.932 3  -3535638.238 2
  26169196.347    28047984.831 2  21855550.582 1
  22585605.314      108890.043 4     84865.833 3
  23504581.916    13247785.290 3  10322945.046 2
  25559013.466     7847827.097 2   6115191.723 1
 91  4 29 21 31 45.0050000  0  6 16 06 18 02 19 11
  25856426.165     6839245.410 2   5329276.150 1
  23825395.226    -4546556.786 3  -3542751.634 2
  26183308.172    28122102.010 2  21913304.120 1
  22586937.891      115898.270 4     90326.805 3
  23512770.448    13290836.518 3  10356491.436 2
  25569044.523     7900554.049 2   6156277.616 1
 91  4 29 21 32  0.0050000  0  6 16 06 18 02 19 11
  25864770.292     6883107.203 2   5363454.071 1
  23823661.224    -4555668.053 3  -3549851.314 2
  26197410.714    28196234.009 2  21971069.248 1
  22588283.355      122981.115 4     95845.909 3
  23520971.274    13333949.108 2  10390085.645 2
  25579100.761     7953397.122 2   6197454.005 1
 91  4 29 21 32 15.0050000  0  6 16 06 18 02 19 11
  25873133.902     6927051.692 2   5397696.514 1
  23821928.121    -4564759.935 3  -3556935.884 2
  26211518.944    28270382.193 2  22028846.912 1
  22589645.318      130140.407 4    101424.575 3
  23529191.583    13377124.796 2  10423729.026 2
  25589180.975     8006357.774 2   6238722.009 1
 91  4 29 21 32 30.0050000  0  6 16 06 18 02 19 11
  25881506.202     6971075.305 2   5432000.591 1
  23820204.615    -4573835.613 3  -3564007.834 2
  26225630.176    28344543.048 2  22086634.532 1
  22591021.364      137372.797 4    107060.213 3
  23537417.886    13420360.315 3  10457419.020 2
  25599279.791     8059432.384 2   6280078.811 1
 91  4 29 21 32 45.0050000  0  6 16 06 18 02 19 11
  25889903.989     7015177.361 2   5466365.709 1
  23818478.108    -4582895.485 3  -3571067.456 2
  26239746.198    28418715.934 2  22144431.424 1
  22592417.495      144677.802 4    112752.430 3
  23545657.076    13463655.313 2  10491155.356 2
  25609407.077     8112620.265 2   6321523.858 1
 91  4 29 21 33  0.0050000  0  6 16 06 18 02 19 11
  25898307.473     7059356.826 2   5500791.243 1
  23816755.807    -4591939.906 3  -3578115.051 2
  26253859.830    28492900.255 2  22202237.354 1
  22593816.330      152054.753 4    118500.713 3
  23553913.961    13507009.312 2  10524937.671 2
  25619545.157     8165920.598 2   6363056.549 1
 91  4 29 21 33 15.0050000  0  6 16 06 18 02 19 11
  25906735.544     7103614.298 2   5535277.515 1
  23815038.295    -4600967.964 3  -3585149.894 2
  26267977.361    28567096.086 2  22260052.191 1
  22595237.040      159504.412 4    124305.643 3
  23562165.750    13550423.099 2  10558766.577 2
  25629707.526     8219333.932 2   6404677.292 1
 91  4 29 21 33 30.0050000  0  6 16 06 18 02 19 11
  25915164.802     7147951.762 2   5569826.162 1
  23813323.183    -4609977.182 3  -3592170.052 2
  26282108.373    28641305.666 2  22317877.740 1
  22596665.253      167029.116 4    130169.057 3
  23570449.316    13593899.080 2  10592643.931 2
  25639892.372     8272862.255 2   6446387.618 1
 91  4 29 21 33 45.0050000  0  6 16 06 18 02 19 11
  25923616.256     7192366.426 2   5604434.888 1
  23811613.760    -4618969.998 3  -3599177.432 2
  26296228.601    28715526.221 2  22375711.824 1
  22598113.848      174626.248 4    136088.905 3
  23578728.083    13637434.757 2  10626567.832 2
  25650097.905     8326502.842 2   6488185.442 1
 91  4 29 21 34  0.0050000  0  6 16 06 18 02 19 11
  25932088.992     7236855.666 2   5639101.806 1
  23809906.744    -4627948.439 3  -3606173.601 2
  26310353.322    28789755.484 2  22433552.702 1
  22599572.040      182293.600 4    142063.468 3
  23587030.539    13681028.097 2  10660536.642 2
  25660329.221     8380253.233 2   6530068.815 1
 91  4 29 21 34 15.0050000  0  6 16 06 18 02 19 11
  25940571.316     7281419.940 2   5673827.158 1
  23808196.126    -4636911.877 3  -3613158.090 2
  26324473.244    28863993.732 2  22491400.674 1
  22601043.722      190031.729 4    148093.180 3
  23595326.094    13724679.719 2  10694550.881 2
  25670582.123     8434113.645 2   6572037.964 1
 91  4 29 21 34 30.0050000  0  6 16 06 18 02 19 11
  25949064.136     7326059.081 2   5708610.856 1
  23806497.504    -4645859.734 3  -3620130.443 2
  26338605.163    28938241.049 2  22549255.575 1
  22602530.393      197841.101 4    154178.413 3
  23603645.337    13768390.142 2  10728610.918 2
  25680855.118     8488084.272 2   6614092.943 1
 91  4 29 21 34 45.0060000  0  6 16 06 18 02 19 11
  25957567.150     7370774.240 2   5743453.744 1
  23804793.782    -4654793.894 3  -3627092.114 2
  26352740.078    29012500.553 2  22607119.991 1
  22604028.157      205720.659 4    160318.335 3
  23611974.774    13812160.919 2  10762718.001 2
  25691140.393     8542167.026 2   6656235.301 1
 91  4 29 21 35  0.0060000  0  6 16 06 18 02 19 11
  25966091.451     7415560.500 2   5778352.067 1
  23803099.653    -4663712.172 3  -3634041.413 2
  26366877.390    29086763.148 2  22664986.921 1
  22605542.705      213670.170 4    166512.761 3
  23620318.595    13855987.124 2  10796868.263 2
  25701452.355     8596355.349 2   6698459.928 1
 91  4 29 21 35 15.0060000  0  6 16 06 18 02 19 11
  25974633.437     7460419.161 2   5813306.849 1
  23801408.230    -4672616.041 3  -3640979.484 2
  26381003.908    29161032.291 2  22722858.874 1
  22607067.750      221689.022 4    172761.216 3
  23628667.216    13899870.645 2  10831063.183 2
  25711788.599     8650651.384 2   6740768.486 1
 91  4 29 21 35 30.0060000  0  6 16 06 18 02 19 11
  25983180.222     7505352.345 2   5848319.645 1
  23799714.398    -4681503.100 3  -3647904.456 2
  26395134.327    29235310.186 2  22780737.647 1
  22608607.191      229779.594 4    179065.563 3
  23637035.319    13943813.983 2  10865304.736 2
  25722135.636     8705057.186 2   6783162.572 1
 91  4 29 21 35 45.0060000  0  6 16 06 18 02 19 11
  25991746.185     7550360.004 2   5883390.506 1
  23798024.772    -4690373.147 3  -3654816.185 2
  26409280.634    29309596.586 2  22838622.992 1
  22610161.612      237941.850 4    185425.769 3
  23645402.524    13987817.261 2  10899592.978 2
  25732512.050     8759572.548 2   6825642.018 1
 91  4 29 21 36  0.0060000  0  6 16 06 18 02 19 11
  26000325.052     7595437.037 2   5918515.370 1
  23796341.132    -4699230.488 3  -3661718.001 2
  26423415.851    29383886.874 2  22896511.572 1
  22611727.726      246171.486 4    191838.474 3
  23653787.720    14031876.056 2  10933924.488 2
  25742904.361     8814192.799 2   6868203.207 1
 91  4 29 21 36 15.0060000  0  6 16 06 18 02 19 11
  26008914.704     7640586.209 2   5953696.530 1
  23794660.196    -4708071.907 3  -3668607.392 2
  26437554.663    29458183.692 2  22954405.105 1
  22613307.032      254471.335 4    198305.891 3
  23662183.413    14075993.372 2  10968301.590 2
  25753321.548     8868920.577 2   6910848.193 1
 91  4 29 21 36 30.0060000  0  6 16 06 18 02 19 11
  26017518.150     7685808.393 2   5988934.529 1
  23792979.862    -4716896.030 3  -3675483.323 2
  26451688.973    29532488.373 2  23012304.791 1
  22614897.732      262842.595 4    204828.953 3
  23670595.290    14120170.586 2  11002725.363 2
  25763753.122     8923756.974 2   6953577.792 1
 91  4 29 21 36 45.0060000  0  6 16 06 18 02 19 11
  26026138.976     7731101.861 2   6024228.081 1
  23791301.029    -4725704.334 3  -3682346.935 2
  26465825.691    29606799.031 2  23070209.056 1
  22616506.416      271283.728 4    211406.461 3
  23679005.667    14164406.121 2  11037194.591 2
  25774217.381     8978700.147 2   6996390.603 1
 91  4 29 21 37  0.0060000  0  6 16 06 18 02 19 11
  26034775.098     7776467.738 2   6059578.044 1
  23789631.479    -4734495.446 3  -3689197.150 2
  26479964.503    29681116.496 2  23128118.671 1
  22618125.002      279795.938 4    218039.358 3
  23687434.331    14208701.257 2  11071710.266 2
  25784689.431     9033751.076 2   7039287.398 1
 91  4 29 21 37 15.0060000  0  6 16 06 18 02 19 11
  26043419.019     7821901.324 2   6094980.786 1
  23787960.734    -4743273.334 3  -3696037.062 2
  26494122.502    29755436.479 2  23186030.241 1
  22619758.866      288375.130 4    224724.445 3
  23695870.788    14253051.872 2  11106269.164 2
  25795187.866     9088905.394 2   7082264.762 1
 91  4 29 21 37 30.0060000  0  6 16 06 18 02 19 11
  26052073.725     7867406.817 2   6130439.538 1
  23786293.288    -4752033.336 3  -3702863.028 2
  26508259.211    29829763.045 2  23243946.976 1
  22621404.430      297025.600 4    231465.076 3
  23704328.236    14297462.538 2  11140874.854 2
  25805697.984     9144167.122 2   7125325.806 1
 91  4 29 21 37 45.0060000  0  6 16 06 18 02 19 11
  26060747.025     7912977.923 2   6165949.456 1
  23784627.045    -4760781.501 3  -3709679.769 2
  26522403.720    29904089.784 2  23301863.764 1
  22623063.483      305741.271 4    238256.510 3
  23712785.380    14341927.377 2  11175522.762 2
  25816232.994     9199529.925 2   7168465.623 1
 91  4 29 21 38  0.0060000  0  6 16 06 18 02 19 11
  26069434.406     7958618.228 2   6201513.264 1
  23782970.391    -4769513.564 3  -3716483.963 2
  26536551.825    29978420.761 2  23359783.913 1
  22624732.727      314526.271 4    245101.968 3
  23721260.811    14386450.501 2  11210216.093 1
  25826788.387     9254997.677 2   7211687.184 1
 91  4 29 21 38 15.0060000  0  6 16 06 18 02 19 11
  26078133.488     8004331.998 2   6237134.307 1
  23781309.846    -4778224.966 3  -3723272.064 2
  26550697.835    30052760.131 2  23417710.580 1
  22626419.352      323385.001 4    252004.873 3
  23729741.939    14431036.470 2  11244958.380 2
  25837367.162     9310574.407 2   7254993.726 1
 91  4 29 21 38 30.0060000  0  6 16 06 18 02 19 11
  26086849.950     8050109.839 2   6272805.283 1
  23779653.785    -4786924.699 3  -3730051.065 2
  26564841.743    30127098.746 2  23475636.678 1
  22628118.576      332308.124 4    258957.961 3
  23738238.660    14475676.157 2  11279742.526 2
  25847962.725     9366250.794 2   7298377.860 1
 91  4 29 21 38 45.0060000  0  6 16 06 18 02 19 11
  26095567.913     8095951.798 2   6308526.249 1
  23777998.335    -4795612.032 3  -3736820.413 2
  26578986.549    30201436.572 2  23533562.161 1
  22629827.100      341296.060 4    265961.554 3
  23746743.172    14520370.133 2  11314568.993 2
  25858576.576     9422027.061 2   7341839.851 1
 91  4 29 21 39  0.0060000  0  6 16 06 18 02 19 11
  26104299.967     8141858.491 2   6344297.684 1
  23776350.075    -4804286.062 3  -3743579.394 2
  26593138.850    30275774.280 2  23591487.538 1
  22631550.606      350349.839 4    273016.445 3
  23755257.281    14565119.287 2  11349438.449 2
  25869202.127     9477903.779 2   7385380.112 1
 91  4 29 21 39 15.0060000  0  6 16 06 18 02 19 11
  26113049.716     8187831.122 2   6380120.417 1
  23774702.417    -4812944.906 3  -3750326.534 2
  26607283.063    30350113.322 2  23649414.000 1
  22633289.101      359471.122 4    280123.940 3
  23763783.074    14609925.463 2  11384352.322 2
  25879860.345     9533882.356 2   7428999.747 1
 91  4 29 21 39 30.0060000  0  6 16 06 18 02 19 11
  26121813.843     8233867.853 2   6415993.126 1
  23773056.259    -4821590.233 3  -3757063.138 2
  26621429.666    30424451.641 2  23707339.853 1
  22635034.795      368658.036 4    287282.584 3
  23772322.364    14654786.768 2  11419309.157 2
  25890527.558     9589960.771 2   7472697.186 1
 91  4 29 21 39 45.0060000  0  6 16 06 18 02 19 11
  26130583.372     8279968.275 2   6451915.442 1
  23771413.391    -4830221.751 3  -3763788.993 2
  26635575.075    30498788.999 2  23765264.966 1
  22636794.876      377910.582 4    294492.360 3
  23780867.945    14699703.257 2  11454308.995 2
  25901222.657     9646138.736 2   7516472.175 1
 91  4 29 21 40  0.0060000  0  6 16 06 18 02 19 11
  26139368.492     8326131.361 2   6487886.642 1
  23769776.229    -4838840.240 3  -3770504.701 2
  26649720.780    30573124.603 2  23823188.695 1
  22638570.846      387227.869 4    301752.586 3
  23789427.923    14744674.244 2  11489351.308 2
  25911933.042     9702415.052 2   7560323.783 1
 91  4 29 21 40 15.0060000  0  6 16 06 18 02 19 11
  26148167.101     8372357.575 2   6523907.031 1
  23768134.861    -4847444.764 3  -3777209.513 2
  26663860.490    30647458.642 2  23881111.210 1
  22640357.905      396610.748 4    309063.927 3
  23797992.097    14789700.616 2  11524436.788 2
  25922662.911     9758790.183 2   7604252.431 1
 91  4 29 21 40 30.0060000  0  6 16 06 18 02 19 11
  26156973.807     8418644.687 2   6559974.874 1
  23766496.495    -4856037.005 3  -3783904.757 2
  26678010.401    30721789.246 2  23939031.049 1
  22642149.467      406057.327 4    316424.903 3
  23806576.051    14834780.626 2  11559564.037 2
  25933405.980     9815262.026 2   7648256.433 1
 91  4 29 21 40 45.0060000  0  6 16 06 18 02 19 11
  26165793.697     8464998.100 2   6596094.336 1
  23764871.322    -4864611.044 3  -3790585.822 2
  26692157.004    30796121.779 2  23996952.454 1
  22643963.513      415573.471 4    323840.079 3
  23815163.006    14879920.116 2  11594737.646 2
  25944170.321     9871836.208 2   7692340.158 1
 91  4 29 21 41  0.0060000  0  5 16 06 02 19 11
  26174624.685     8511415.515 2   6632263.681 1
  23763240.747    -4873168.878 3  -3797254.260 2
  22645786.249      425156.887 4    331307.679 3
  23823762.255    14925116.984 2  11629955.964 2
  25954951.459     9928510.337 2   7736501.780 1
 91  4 29 21 41 15.0060000  0  5 16 06 02 19 11
  26183474.554     8557893.600 2   6668480.312 1
  23761613.174    -4881713.216 3  -3803912.172 2
  22647622.475      434804.540 4    338825.334 3
  23832375.587    14970368.350 2  11665216.744 2
  25965753.580     9985281.104 2   7780738.736 1
 91  4 29 21 41 30.0060000  0  5 16 06 02 19 11
  26192315.140     8604430.315 2   6704742.580 1
  23759991.002    -4890245.713 3  -3810560.866 2
  22649469.798      444514.673 4    346391.679 3
  23840995.523    15015672.549 2  11700518.709 2
  25976578.185    10042146.486 2   7825049.331 1
 91  4 29 21 41 45.0060000  0  5 16 06 02 19 11
  26201188.392     8651027.969 2   6741052.411 1
  23758369.720    -4898763.241 3  -3817197.888 2
  22651330.908      454290.132 4    354008.920 3
  23849626.244    15061032.387 2  11735864.014 2
  25987421.079    10099108.988 2   7869435.658 1
 91  4 29 21 42  0.0060000  0  5 16 06 02 19 11
  26210082.341     8697686.084 2   6777409.338 1
  23756750.845    -4907266.229 3  -3823823.576 2
  22653201.911      464130.380 4    361676.650 3
  23858273.761    15106447.491 2  11771252.380 2
  25998280.166    10156167.854 2   7913897.039 1
 91  4 29 21 42 15.0060000  0  5 16 06 02 19 11
  26218954.991     8744401.216 1   6813810.605 1
  23755136.465    -4915757.655 3  -3830440.274 2
  22655088.507      474032.207 4    369392.362 3
  23866921.574    15151914.762 2  11806681.401 2
  26009155.735    10213319.751 2   7958430.944 1
 91  4 29 21 42 30.0060000  0  5 16 06 02 19 11
  26227866.024     8791176.635 2   6850258.951 1
  23753521.177    -4924233.797 3  -3837045.042 2
  22656982.894      483998.977 4    377158.681 3
  23875589.472    15197437.956 2  11842153.999 2
  26020048.100    10270567.881 2   8003039.813 1
 91  4 29 21 42 45.0060000  0  5 16 06 02 19 11
  26236776.157     8838008.902 2   6886751.564
  23751912.493    -4932697.694 3  -3843640.281 2
  22658890.473      494027.545 4    384973.153 3
  23884254.971    15243013.842 2  11877667.681 2
  26030961.143    10327908.635 2   8047720.890 1
 91  4 29 21 43  0.0060000  0  5 16 06 02 19 11
  26245697.982     8884897.360 2   6923287.965 1
  23750302.309    -4941149.415 3  -3850226.036 2
  22660813.042      504117.842 4    392835.718 3
  23892944.455    15288642.254 2  11913222.246 1
  26041886.480    10385341.708 2   8092473.901 1
 91  4 29 21 43 15.0060000  0  5 16 06 02 19 11
  26254636.289     8931838.093 1   6959865.068 1
  23748698.120    -4949591.982 3  -3856804.656 2
  22662744.606      514266.655 4    400743.889 3
  23901635.440    15334320.018 2  11948815.289 2
  26052836.099    10442863.641 2   8137296.125 1
 91  4 29 21 43 30.0060000  0  5 16 06 02 19 11
  26263575.207     8978835.576 1   6996486.417 1
  23747095.125    -4958020.751 3  -3863372.514 2
  22664686.964      524478.212 4    408700.952 3
  23910333.318    15380051.717 2  11984450.363 2
  26063801.005    10500478.537 2   8182190.818 1
 91  4 29 21 43 45.0060000  0  5 16 06 02 19 11
  26272529.708     9025893.364 1   7033154.676 1
  23745494.836    -4966431.588 3  -3869926.401 2
  22666641.607      534756.535 4    416710.038 3
  23919052.188    15425841.439 2  12020130.632 2
  26074784.800    10558189.988 2   8227160.717 1
 91  4 29 21 44  0.0060000  0  5 16 06 02 19 11
  26281497.994     9073013.770 1   7069871.873 1
  23743898.141    -4974821.693 3  -3876464.144 2
  22668611.850      545104.295 4    424773.222 4
  23927777.943    15471691.903 2  12055858.250 2
  26085782.390    10616000.512 2   8272207.799 1
 91  4 29 21 44 15.0060000  0  5 16 06 02 19 11
  26290481.575     9120198.127 2   7106638.908 1
  23742306.541    -4983189.575 3  -3882984.562 2
  22670593.775      555522.696 4    432891.461 3
  23936511.498    15517604.379 2  12091634.184 2
  26096800.963    10673911.113 2   8317332.914 1
 91  4 29 21 44 30.0060000  0  5 16 06 02 19 11
  26299469.659     9167447.098 2   7143456.224
  23740718.842    -4991533.787 3  -3889486.545 2
  22672591.590      566012.980 4    441065.712 3
  23945262.136    15563580.145 2  12127459.442 2
  26107844.412    10731922.760 2   8362536.758 1
 91  4 29 21 44 45.0060000  0  5 16 06 02 19 11
  26308476.022     9214759.811 2   7180323.122 1
  23739135.339    -4999854.604 3  -3895970.291 2
  22674600.197      576574.748 4    449295.656 3
  23954019.676    15609618.996 2  12163333.847 2
  26118898.959    10790034.647 2   8407818.694 1
 91  4 29 21 45  0.0060000  0  5 16 06 02 19 11
  26317489.277     9262142.930 2   7217244.871 1
  23737554.236    -5008145.152 3  -3902430.457 2
  22676626.202      587214.798 4    457586.605 3
  23962796.700    15655727.788 2  12199262.753 2
  26129978.696    10848253.199 2   8453183.744 1
 91  4 29 21 45 15.0060000  0  5 16 06 02 19 11
  26326508.239     9309594.140 2   7254219.877 1
  23735981.221    -5016407.245 3  -3908868.459 2
  22678665.382      597930.896 4    465936.816 3
  23971579.420    15701904.467 2  12235244.565 2
  26141071.616    10906576.201 2   8498630.192 1
 91  4 29 21 45 30.0060000  0  5 16 06 02 19 11
  26335565.565     9357111.290 2   7291246.154 1
  23734416.905    -5024642.829 3  -3915285.781 2
  22680717.764      608720.971 4    474344.672 3
  23980386.423    15748146.956 2  12271277.662 2
  26152193.913    10965001.363 2   8544156.275 1
 91  4 29 21 45 45.0060000  0  5 16 06 02 19 11
  26344610.606     9404694.521 2   7328323.864
  23732854.683    -5032850.625 3  -3921681.457 2
  22682784.532      619586.058 4    482810.973 3
  23989188.932    15794456.405 2  12307362.905 2
  26163328.208    11023529.324 2   8589762.418 1
 91  4 29 21 46  0.0060000  0  5 16 06 02 19 11
  26353681.125     9452345.516 2   7365454.551
  23731296.667    -5041029.016 3  -3928054.223 2
  22684867.190      630527.791 4    491337.001 3
  23998020.217    15840834.349 2  12343501.556 1
  26174490.379    11082161.368 2   8635449.683 1
 91  4 29 21 46 15.0060000  0  5 16 06 02 19 11
  26362764.234     9500061.498 2   7402635.859 1
  23729747.340    -5049180.316 3  -3934405.878 2
  22686964.244      641543.420 4    499920.607 3
  24006856.301    15887278.398 2  12379691.688 2
  26185655.544    11140894.494 2   8681215.719 1
 91  4 29 21 46 30.0060000  0  5 16 06 02 19 11
  26371856.042     9547845.737 2   7439870.292
  23728199.811    -5057300.479 3  -3940733.278 2
  22689075.380      652636.809 4    508564.816 3
  24015712.469    15933792.501 2  12415936.418 2
  26196855.198    11199732.433 2   8727063.384 1
 91  4 29 21 46 45.0060000  0  5 16 06 02 19 11
  26380958.939     9595695.266 2   7477155.510 1
  23726663.372    -5065391.942 3  -3947038.302 2
  22691199.106      663805.353 4    517267.572 3
  24024573.437    15980374.079 2  12452233.739 1
  26208074.929    11258672.239 2   8772990.450 1
 91  4 29 21 47  0.0060000  0  5 16 06 02 19 11
  26390077.131     9643610.644 2   7514492.047 1
  23725128.137    -5073453.449 3  -3953319.985 2
  22693340.824      675050.145 4    526029.754 4
  24033452.090    16027024.264 2  12488584.515 2
  26219312.651    11317714.699 2   8818997.514 1
 91  4 29 21 47 15.0060000  0  5 16 06 02 19 11
  26399209.110     9691592.192 2   7551880.206 1
  23723601.295    -5081484.600 3  -3959578.021 2
  22695495.131      686371.391 4    534851.508 3
  24042341.231    16073743.221 2  12524988.859 2
  26230567.754    11376859.785 2   8865084.549 1
 91  4 29 21 47 30.0060000  0  5 16 06 02 19 11
  26408354.577     9739642.439 2   7589321.883 1
  23722077.446    -5089482.277 3  -3965809.972 2
  22697664.438      697771.971 4    543735.082 3
  24051246.269    16120534.043 2  12561449.219 2
  26241841.449    11436110.144 2   8911253.606 1
 91  4 29 21 47 45.0060000  0  5 16 06 02 19 11
  26417507.242     9787761.484 2   7626817.209 1
  23720560.202    -5097446.112 3  -3972015.550 2
  22699848.123      709252.009 4    552680.564 3
  24060159.099    16167397.086 2  12597965.870 1
  26253143.030    11495465.663 2   8957504.568 1
 91  4 29 21 48  0.0060000  0  5 16 06 02 19 11
  26426675.490     9835941.266 2   7664359.867 1
  23719053.140    -5105383.291 3  -3978200.359 2
  22702045.603      720804.083 4    561682.184 3
  24069102.807    16214324.965 2  12634533.025 2
  26264462.891    11554918.651 2   9003831.547 1
 91  4 29 21 48 15.0060000  0  5 16 06 02 19 11
  26435861.137     9884191.226 2   7701957.186 1
  23717548.486    -5113284.119 3  -3984356.834 2
  22704260.768      732437.762 4    570747.394 3
  24078037.222    16261327.252 2  12671158.144 2
  26275789.050    11614478.387 2   9050241.667 1
 91  4 29 21 48 30.0060000  0  5 16 06 02 19 11
  26445052.768     9932510.501 2   7739608.457 1
  23716051.921    -5121148.734 3  -3990485.102 2
  22706490.025      744152.771 4    579875.970 3
  24086998.921    16308403.607 2  12707840.998 1
  26287140.094    11674144.296 2   9096734.535 1
 91  4 29 21 48 45.0060000  0  5 16 06 02 19 11
  26454263.299     9980894.007 2   7777309.868 1
  23714564.944    -5128981.749 3  -3996588.742 2
  22708733.373      755944.082 4    589064.013 3
  24095967.809    16355549.387 2  12744577.935 2
  26298516.013    11733911.238 2   9143306.121 1
 91  4 29 21 49  0.0060000  0  5 16 06 02 19 11
  26463486.411    10029341.038 2   7815060.788 1
  23713076.781    -5136783.513 3  -4002668.030 2
  22710992.007      767811.100 4    598311.037 3
  24104959.784    16402763.975 2  12781368.506 1
  26309896.435    11793778.283 2   9189955.673 1
 91  4 29 21 49 15.0060000  0  5 16 06 02 19 11
  26472711.023    10077851.477 2   7852860.986 1
  23711596.104    -5144553.845 3  -4008722.822 2
  22713265.631      779753.999 4    607617.200 3
  24113949.360    16450047.597 2  12818212.862 2
  26321314.932    11853745.194 2   9236683.169 1
 91  4 29 21 49 30.0060000  0  5 16 06 02 19 11
  26481954.526    10126423.816 2   7890709.531 1
  23710125.923    -5152293.431 3  -4014753.664 2
  22715550.353      791771.858 4    616981.769 3
  24122963.523    16497399.522 2  12855110.445 2
  26332748.420    11913810.877 2   9283487.517 1
 91  4 29 21 49 45.0060000  0  5 16 06 02 19 11
  26491213.018    10175058.894 2   7928606.984 1
  23708656.937    -5160001.314 3  -4020759.791 2
  22717853.057      803865.106 4    626405.083 4
  24131978.881    16544820.514 2  12892061.824 1
  26344200.788    11973975.812 2   9330369.252 1
 91  4 29 21 50  0.0060000  0  5 16 06 02 19 11
  26500478.403    10223756.062 2   7966552.644 1
  23707195.752    -5167677.108 3  -4026740.921 2
  22720169.251      816034.242 4    635887.528 4
  24141026.619    16592310.833 2  12929067.244 2
  26355672.046    12034239.868 2   9377328.213 1
 91  4 29 21 50 15.0060000  0  5 16 06 02 19 11
  26509760.872    10272512.968 2   8004545.036 1
  23705740.561    -5175322.779 3  -4032698.580 2
  22722496.246      828277.116 4    645427.435 3
  24150069.252    16639868.213 2  12966124.918 2
  26367146.603    12094600.507 2   9424362.418 1
 91  4 29 21 50 30.0060000  0  5 16 06 02 19 11
  26519040.950    10321330.258 2   8042584.409 1
  23704294.060    -5182937.092 3  -4038631.798 2
  22724843.614      840594.624 4    655025.493 3
  24159132.284    16687493.945 2  13003235.859 2
  26378653.242    12155058.630 2   9471472.588 1
 91  4 29 21 50 45.0060000  0  5 16 06 02 19 11
  26528344.708    10370207.383 2   8080670.416 1
  23702852.655    -5190520.731 3  -4044541.120 2
  22727200.589      852985.921 4    664681.046 3
  24168211.798    16735187.283 2  13040399.472 2
  26390177.557    12215612.930 2   9518657.666 1
 91  4 29 21 51  0.0060000  0  5 16 06 02 19 11
  26537661.362    10419141.022 2   8118800.480 1
  23701413.649    -5198076.128 3  -4050428.433 2
  22729571.341      865448.353 4    674392.035 3
  24177302.402    16782945.533 2  13077613.667 2
  26401719.873    12276260.575 2   9565915.531 1
 91  4 29 21 51 15.0060000  0  5 16 06 02 19 11
  26546981.008    10468133.502 2   8156976.347 1
  23699980.349    -5205600.284 3  -4056291.408 2
  22731955.590      877984.529 4    684160.490 3
  24186399.305    16830771.566 2  13114880.678 2
  26413278.670    12337004.014 2   9613248.007 1
 91  4 29 21 51 30.0060000  0  5 16 06 02 19 11
  26556311.745    10517183.047 2   8195196.709
  23698556.332    -5213094.870 3  -4062131.323 2
  22734355.737      890592.705 4    693985.048 3
  24195511.198    16878663.708 2  13152199.211 2
  26424855.756    12397841.331 2   9660653.693 1
 91  4 29 21 51 45.0060000  0  5 16 06 02 19 11
  26565649.086    10566288.081 2   8233460.279 1
  23697137.717    -5220560.644 3  -4067948.798 2
  22736768.762      903271.860 4    703864.908 4
  24204639.878    16926620.766 2  13189568.320 2
  26436450.230    12458771.112 2   9708131.374 1
 91  4 29 21 52  0.0060000  0  5 16 06 02 19 11
  26575019.399    10615448.955 2   8271767.379 1
  23695719.093    -5227996.595 3  -4073743.034 2
  22739196.183      916022.822 4    713800.724 3
  24213782.047    16974643.573 2  13226988.662 2
  26448058.193    12519793.831 2   9755681.466 1
 91  4 29 21 52 15.0060000  0  5 16 06 02 19 11
  26584381.912    10664664.407 2   8310117.029 1
  23694309.770    -5235403.613 3  -4079514.731 2
  22741636.797      928844.486 4    723791.634 4
  24222927.820    17022731.264 2  13264459.563 2
  26459690.439    12580908.175 2   9803302.985 1
 91  4 29 21 52 30.0060000  0  5 16 06 02 19 11
  26593755.523    10713935.363 2   8348509.875 1
  23692904.041    -5242780.409 3  -4085262.869 2
  22744090.890      941737.819 4    733838.388 3
  24232092.770    17070885.077 2  13301981.979 2
  26471338.869    12642114.878 2   9850996.423 1
 91  4 29 21 52 45.0060000  0  5 16 06 02 19 11
  26603139.029    10763259.962 2   8386944.577 1
  23691507.308    -5250128.053 3  -4090988.296 2
  22746555.184      954701.623 4    743940.054 3
  24241265.817    17119103.799 2  13339554.999 2
  26483002.298    12703412.390 2   9898760.696 1
 91  4 29 21 53  0.0060000  0  5 16 06 02 19 11
  26612537.524    10812640.101 2   8425422.541 1
  23690116.273    -5257444.688 3  -4096689.551 2
  22749036.570      967737.644 4    754097.994 3
  24250460.154    17167389.197 2  13377179.969 2
  26494681.013    12764802.098 2   9946596.750 1
 91  4 29 21 53 15.0060000  0  5 16 06 02 19 11
  26621941.411    10862073.484 2   8463941.974 1
  23688730.036    -5264731.514 3  -4102367.591 2
  22751529.648      980844.449 4    764311.093 3
  24259658.085    17215739.872 2  13414855.787 2
  26506390.903    12826282.259 2   9994503.317 1
 91  4 29 21 53 30.0060000  0  5 16 06 02 19 11
  26631360.594    10911556.692 2   8502500.285 1
  23687345.292    -5271991.544 3  -4108024.741 2
  22754038.605      994018.661 4    774576.720 3
  24268871.311    17264152.582 2  13452579.963 2
  26518104.397    12887849.289 2  10042477.567 1
 91  4 29 21 53 45.0060000  0  5 16 06 02 19 11
  26640789.069    10961092.908 2   8541099.813 1
  23685973.146    -5279221.345 3  -4113658.346 2
  22756558.059     1007263.389 4    784897.291 3
  24278090.532    17312630.773 2  13490355.146 2
  26529830.481    12949506.220 2  10090521.864 1
 91  4 29 21 54  0.0060000  0  5 16 06 02 19 11
  26650227.735    11010680.743 2   8579739.593 1
  23684601.289    -5286421.881 3  -4119269.141 2
  22759090.705     1020577.337 4    795271.818 3
  24287334.628    17361173.207 2  13528180.392 2
  26541584.441    13011251.578 2  10138635.089 1
 91  4 29 21 54 15.0060000  0  5 16 06 02 19 11
  26659670.597    11060323.754 1   8618422.413 1
  23683236.935    -5293589.012 3  -4124853.905 2
  22761638.943     1033964.827 4    805703.609 3
  24296580.529    17409784.119 2  13566059.006 2
  26553347.101    13073089.116 2  10186820.138 1
 91  4 29 21 54 30.0060000  0  5 16 06 02 19 11
  26669125.745    11110015.836 2   8657143.427 1
  23681879.779    -5300727.941 3  -4130416.697 2
  22764199.474     1047420.090 4    816188.231 3
  24305848.314    17458457.759 2  13603986.497 2
  26565132.245    13135012.891 2  10235072.354 1
 91  4 29 21 54 45.0060000  0  5 16 06 02 19 11
  26678597.993    11159757.910 2   8695903.395 1
  23680526.514    -5307837.580 3  -4135956.663 2
  22766774.394     1060944.245 4    826726.531 3
  24315119.091    17507195.430 2  13641963.876 2
  26576939.272    13197023.624 2  10283392.327 1
 91  4 29 21 55  0.0060000  0  5 16 06 02 19 11
  26688062.738    11209547.749 1   8734700.598 1
  23679175.946    -5314919.581 3  -4141475.098 2
  22769359.800     1074535.382 4    837317.029 3
  24324403.968    17555995.380 2  13679989.799 2
  26588757.685    13259119.163 2  10331778.390 1
 91  4 29 21 55 15.0060000  0  5 16 06 02 19 11
  26697547.272    11259384.578 1   8773534.447 1
  23677836.476    -5321973.917 3  -4146971.962 2
  22771958.705     1088193.317 4    847959.584 4
  24333707.421    17604857.264 2  13718063.959 1
  26600581.804    13321299.049 2  10380230.146 1
 91  4 29 21 55 30.0060000  0  5 16 06 02 19 11
  26707040.801    11309267.688 1   8812404.260 1
  23676498.498    -5329001.074 3  -4152447.661 2
  22774571.090     1101917.250 4    858653.557 4
  24343019.878    17653780.307 2  13756185.789 2
  26612434.097    13383562.264 2  10428746.888 1
 91  4 29 21 55 45.0060000  0  5 16 06 02 19 11
  26716540.926    11359197.996 1   8851310.956 1
  23675169.219    -5335999.579 3  -4157901.030 2
  22777194.878     1115708.412 4    869399.919 3
  24352333.827    17702765.904 2  13794356.349 2
  26624292.985    13445909.933 2  10477329.461 1
 91  4 29 21 56  0.0060000  0  4 06 02 19 11
  23673839.338    -5342972.928 3  -4163334.800 2
  22779829.748     1129563.023 4    880195.722 3
  24361663.673    17751810.375 2  13832572.783 1
  26636179.158    13508337.835 2  10525974.501 1
 91  4 29 21 56 15.0060000  0  4 06 02 19 11
  23672518.758    -5349917.438 3  -4168746.102 2
  22782480.514     1143484.618 4    891043.727 3
  24371012.697    17800917.463 2  13870838.030 2
  26648075.817    13570849.313 2  10574684.676 1
 91  4 29 21 56 30.0070000  0  5 06 02 19 13 11
  23671202.369    -5356833.596 3  -4174135.276 2
  22785140.577     1157474.026 4    901944.570 4
  24380371.322    17850090.282 2  13909154.476 2
  26651027.874           0.869 2         0.208 1
  26659982.078    13633448.013 2  10623462.858 1
 91  4 29 21 56 45.0070000  0  5 06 02 19 13 11
  23669889.580    -5363719.999 3  -4179501.316 2
  22787816.227     1171529.309 4    912896.739 3
  24389741.033    17899322.426 2  13947517.168 2
  26642920.887      -42636.238 1    -33223.679 1
  26671908.124    13696125.307 2  10672302.174 1
 91  4 29 21 57  0.0070000  0  5 06 02 19 13 11
  23668588.475    -5370578.062 3  -4184845.256 2
  22790503.561     1185650.273 4    923900.093 3
  24399116.747    17948616.090 2  13985927.772 2
  26634799.215      -85268.586 1    -66443.752 1
  26683854.255    13758884.167 2  10721205.143 1
 91  4 29 21 57 15.0070000  0  5 06 02 19 13 11
  23667286.182    -5377410.430 3  -4190169.163 2
  22793203.493     1199834.007 4    934952.358 3
  24408509.239    17997968.618 2  14024384.262 2
  26626690.125     -127898.548 1    -99661.764 1
  26695810.577    13821721.379 2  10770169.162 1
 91  4 29 21 57 30.0070000  0  5 06 02 19 13 11
  23665993.174    -5384218.300 3  -4195473.986 2
  22795914.219     1214079.292 4    946052.584 4
  24417915.230    18047378.596 2  14062885.512 2
  26618579.238     -170526.951 1   -132878.728 1
  26707781.583    13884635.228 2  10819192.870 1
 91  4 29 21 57 45.0070000  0  5 06 02 19 13 11
  23664704.065    -5390998.720 3  -4200757.413 2
  22798635.432     1228388.730 4    957202.794 4
  24427326.917    18096848.900 2  14101433.773 2
  26610467.460     -213150.701 1   -166091.887 1
  26719770.590    13947628.229 2  10868278.278 1
 91  4 29 21 58  0.0070000  0  5 06 02 19 13 11
  23663415.855    -5397752.489 3  -4206020.086 2
  22801370.736     1242761.227 4    968402.148 3
  24436758.987    18146378.486 2  14140028.217 2
  26602350.875     -255770.400 1   -199301.976 1
  26731766.184    14010698.956 2  10917424.247 1
 91  4 29 21 58 15.0070000  0  6 06 02 19 13 11 15
  23662135.445    -5404475.157 3  -4211258.516 2
  22804119.835     1257201.082 4    979653.991 4
  24446188.954    18195971.554 2  14178672.142 2
  26594249.280     -298381.425 1   -232505.136 1
  26743785.763    14073851.269 2  10966633.809 1
  26669648.888           0.790 2         0.036 1
 91  4 29 21 58 30.0070000  0  6 06 02 19 13 11 15
  23660865.523    -5411165.717 3  -4216471.938 2
  22806878.531     1271708.935 4    990958.810 4
  24455638.718    18245628.887 2  14217366.127 2
  26586144.692     -340982.346 1   -265700.579 1
  26755829.624    14137085.742 2  11015907.351 1
  26667714.025      -10167.027 2     -7922.827 1
 91  4 29 21 58 45.0070000  0  6 06 02 19 13 11 15
  23659597.704    -5417825.304 3  -4221661.222 2
  22809651.903     1286283.424 4   1002315.554 3
  24465100.767    18295349.191 2  14256109.188 1
  26578043.699     -383574.360 1   -298889.014 1
  26767871.687    14200400.678 2  11065243.617 1
  26665792.660      -20263.880 2    -15790.495 1
 91  4 29 21 59  0.0070000  0  6 06 02 19 13 11 15
  23658334.674    -5424452.141 3  -4226824.969 2
  22812441.172     1300926.183 4   1013725.504 3
  24474583.198    18345134.303 2  14294902.760 2
  26569923.825     -426155.329 2   -332068.922 1
  26779929.640    14263797.488 2  11114643.644 1
  26663891.075      -30287.723 2    -23601.224 1
 91  4 29 21 59 15.0070000  0  6 06 02 19 13 11 15
  23657078.547    -5431049.855 3  -4231966.035 2
  22815238.538     1315633.326 4   1025185.617 4
  24484060.236    18394980.255 2  14333743.735 2
  26561831.828     -468728.600 2   -365242.748
  26792016.376    14327272.037 2  11164104.259 1
  26661984.691      -40242.118 1    -31357.803 1
 91  4 29 21 59 30.0070000  0  6 06 02 19 13 11 15
  23655829.608    -5437614.104 3  -4237081.031 2
  22818049.994     1330408.814 4   1036698.984 4
  24493557.360    18444891.287 2  14372635.404 2
  26553727.833     -511289.674 2   -398407.157 1
  26804108.801    14390828.115 2  11213628.378 1
  26660111.890      -50122.676 2    -39056.877 1
 91  4 29 21 59 45.0070000  0  6 06 02 19 13 11 15
  23654583.968    -5444151.484 3  -4242175.083 2
  22820873.440     1345245.975 4   1048260.408 3
  24503066.481    18494860.680 2  14411572.568 2
  26545633.741     -553845.036 2   -431567.074 1
  26816223.414    14454458.511 2  11263210.454 1
  26658240.581      -59935.395 2    -46703.078 1
 91  4 29 22  0  0.0070000  0  6 06 02 19 13 11 15
  23653348.528    -5450656.311 3  -4247243.764 2
  22823710.374     1360150.245 4   1059874.133 3
  24512588.193    18544894.003 2  14450559.561 2
  26537536.945     -596388.713 2   -464717.778 1
  26828338.926    14518168.391 2  11312854.419 1
  26656386.365      -69674.648 2    -54292.018 1
 91  4 29 22  0 15.0070000  0  6 06 02 19 13 11 15
  23652117.877    -5457130.969 3  -4252288.942 2
  22826556.906     1375118.837 4   1071537.970 4
  24522120.086    18594988.627 2  14489594.295 2
  26529440.454     -638922.669 2   -497860.985 1
  26840477.821    14581954.896 2  11362558.123 1
  26654539.050      -79342.676 1    -61825.473 1
 91  4 29 22  0 30.0070000  0  6 06 02 19 13 11 15
  23650892.628    -5463576.567 3  -4257311.471 2
  22829418.122     1390150.486 4   1083250.944 3
  24531669.683    18645143.237 2  14528675.790 1
  26521346.354     -681447.738 2   -530997.282 1
  26852630.510    14645816.324 2  11412320.190 1
  26652725.300      -88940.475 2    -69304.265 1
 91  4 29 22  0 45.0070000  0  6 06 02 19 13 11 15
  23649668.879    -5469986.820 3  -4262306.462 2
  22832291.335     1405251.360 4   1095017.865 4
  24541218.372    18695364.023 2  14567808.845 2
  26513266.048     -723957.450 2   -564121.602 1
  26864799.986    14709758.581 2  11462145.233 1
  26650899.562      -98461.155 2    -76722.903 1
 91  4 29 22  1  0.0070000  0  6 06 02 19 13 11 15
  23648458.916    -5476365.492 3  -4267276.838 2
  22835177.436     1420417.292 4   1106835.472 4
  24550793.438    18745646.999 2  14606990.343 1
  26505167.454     -766455.416 2   -597237.084 1
  26876984.147    14773777.225 2  11512029.791 1
  26649103.211     -107908.564 1    -84084.425 1
 91  4 29 22  1 15.0070000  0  6 06 02 19 13 11 15
  23647251.352    -5482711.078 3  -4272221.438 2
  22838076.126     1435649.548 4   1118704.763 4
  24560372.412    18795993.445 2  14646221.308 2
  26497083.850     -808940.043 2   -630341.957 1
  26889181.509    14837873.340 2  11561974.755 1
  26647329.335     -117281.029 1    -91387.570 1
 91  4 29 22  1 30.0070000  0  5 06 02 19 13 11
  23646046.179    -5489026.161 3  -4277142.273 2
  22840988.009     1450945.472 4   1130623.666 4
  24569969.063    18846400.603 2  14685499.601 1
  26489011.641     -851413.850 2   -663438.308 1
  26901390.554    14902043.775 2  11611977.574 1
 91  4 29 22  1 45.0070000  0  5 06 02 19 13 11
  23644853.308    -5495308.713 3  -4282037.759 2
  22843909.490     1466306.710 4   1142593.465 4
  24579566.020    18896870.259 2  14724826.582 2
  26480929.233     -893874.307 2   -696524.333 1
  26913612.791    14966290.002 2  11662039.511 1
 91  4 29 22  2  0.0070000  0  5 06 02 19 13 11
  23643661.031    -5501560.343 3  -4286909.146 2
  22846844.459     1481731.366 4   1154612.684 4
  24589181.866    18947400.716 2  14764200.914 2
  26472844.433     -936322.898 2   -729600.951 1
  26925859.014    15030609.955 2  11712158.879 1
 91  4 29 22  2 15.0070000  0  5 06 02 19 13 11
  23642476.257    -5507782.483 3  -4291757.558 2
  22849792.019     1497217.861 4   1166680.082 4
  24598807.904    18997990.507 2  14803621.507 2
  26464776.718     -978761.081 1   -762669.619 1
  26938112.129    15095001.709 2  11762334.220 1
 91  4 29 22  2 30.0070000  0  5 06 02 19 13 11
  23641299.266    -5513971.327 3  -4296580.018 2
  22852752.771     1512769.734 4   1178798.423 4
  24608446.226    19048643.121 2  14843091.052 2
  26456697.311    -1021184.637 2   -795726.831 1
  26950381.438    15159468.440 2  11812567.932 1
 91  4 29 22  2 45.0070000  0  5 06 02 19 13 11
  23640126.184    -5520128.158 3  -4301377.532 2
  22855724.910     1528385.398 4   1190966.479 3
  24618098.343    19099357.052 2  14882608.374 2
  26448628.094    -1063594.553 2   -828773.486 1
  26962659.141    15224008.453 2  11862858.765 1
 91  4 29 22  3  0.0070000  0  5 06 02 19 13 11
  23638962.987    -5526253.018 3  -4306150.137 2
  22858706.349     1544064.674 4   1203184.104 4
  24627763.957    19150132.083 2  14922173.301 1
  26440552.884    -1105990.683 1   -861809.611 1
  26974950.926    15288621.280 2  11913206.335 1
 91  4 29 22  3 15.0070000  0  5 06 02 19 13 11
  23637803.385    -5532347.123 3  -4310898.777 2
  22861702.770     1559805.840 4   1215449.947 4
  24637435.261    19200966.918 2  14961784.829 1
  26432492.663    -1148374.095 1   -894835.519 1
  26987265.806    15353305.007 2  11963609.135 1
 91  4 29 22  3 30.0070000  0  6 06 02 19 13 11 15
  23636650.092    -5538413.109 3  -4315625.507 2
  22864709.687     1575606.147 4   1227761.881 3
  24647122.156    19251858.844 2  15001440.836 2
  26424430.052    -1190747.107 1   -927853.511 1
  26999583.078    15418056.476 2  12014064.702 1
  26631909.817       28023.22012     21836.487 1
 91  4 29 22  3 45.0070000  0  6 06 02 19 13 11 15
  23635501.579    -5544446.570 3  -4320326.889 2
  22867729.796     1591469.748 4   1240123.131 3
  24656814.146    19302811.994 2  15041144.570 1
  26416370.128    -1233105.021 1   -960859.620 1
  27011927.335    15482879.560 2  12064576.091 1
  26630282.235       19392.754 2     15111.612 1
 91  4 29 22  4  0.0070000  0  6 06 02 19 13 11 15
  23634356.976    -5550450.537 3  -4325005.288 2
  22870757.705     1607393.530 4   1252531.273 3
  24666517.226    19353823.110 2  15080893.467 2
  26408315.605    -1275450.500 2   -993855.928 1
  27024269.185    15547770.628 2  12115140.499 1
  26628637.875       10835.643 2      8443.826 1
 91  4 29 22  4 15.0070000  0  6 06 02 19 13 11 15
  23633220.766    -5556421.580 3  -4329658.040 2
  22873800.299     1623380.466 4   1264988.625 4
  24676239.493    19404895.422 2  15120690.057 1
  26400258.682    -1317780.365 2  -1026840.060 1
  27036634.130    15612732.554 2  12165760.080 1
  26627019.594        2355.640 2      1836.062 1
 91  4 29 22  4 30.0070000  0  6 06 02 19 13 11 15
  23632089.948    -5562367.680 3  -4334291.346 2
  22876851.286     1639422.327 4   1277488.783 3
  24685967.161    19456020.630 2  15160527.850 2
  26392211.654    -1360102.018 2  -1059818.053 1
  27049002.068    15677756.959 2  12216428.366 1
  26625420.508       -6055.019 2     -4717.674 1
 91  4 29 22  4 45.0070000  0  6 06 02 19 13 11 15
  23630966.625    -5568282.205 3  -4338900.060 2
  22879919.663     1655525.548 4   1290036.755 4
  24695704.722    19507205.418 2  15200412.063 2
  26384153.231    -1402408.879 2  -1092784.387 1
  27061390.693    15742849.836 2  12267150.011 1
  26623844.195      -14389.480 2    -11211.969 1
 91  4 29 22  5  0.0070000  0  6 06 02 19 13 11 15
  23629845.100    -5574163.928 3  -4343483.209 2
  22882994.330     1671691.082 4   1302633.275 4
  24705454.569    19558450.715 2  15240343.462 2
  26376103.506    -1444699.485 2  -1125738.294 1
  27073791.900    15808011.918 2  12317925.493 1
  26622272.088      -22646.299 2    -17645.758 1
 91  4 29 22  5 15.0070000  0  6 06 02 19 13 11 15
  23628730.467    -5580013.335 3  -4348041.180 2
  22886079.197     1687918.216 4   1315277.801 3
  24715223.908    19609755.840 2  15280321.462 1
  26368060.675    -1486973.796 2  -1158679.144 1
  27086203.009    15873242.327 2  12368754.297 1
  26620703.871      -30825.861 2    -24019.405 1
 91  4 29 22  5 30.0070000  0  6 06 02 19 13 11 15
  23627626.331    -5585829.949 3  -4352573.599 2
  22889181.453     1704207.148 4   1327970.478 3
  24725004.039    19661121.064 2  15320346.271 2
  26360021.141    -1529231.265 2  -1191606.816 1
  27098630.609    15938540.863 2  12419636.211 1
  26619168.933      -38927.660 2    -30332.395 1
 91  4 29 22  5 45.0070000  0  6 06 02 19 13 11 15
  23626525.798    -5591616.348 3  -4357082.470 2
  22892291.196     1720555.075 4   1340709.130 4
  24734785.663    19712543.683 2  15360415.816 2
  26351983.999    -1571474.289 2  -1224523.370 1
  27111063.000    16003904.521 2  12470568.839 1
  26617636.097      -46954.052 2    -36586.744 1
 91  4 29 22  6  0.0070000  0  6 06 02 19 13 11 15
  23625430.657    -5597369.625 3  -4361565.528 2
  22895413.537     1736964.525 4   1353495.711 4
  24744582.878    19764026.347 2  15400532.141 2
  26343942.964    -1613699.713 2  -1257426.172 1
  27123524.471    16069335.572 2  12521553.965 1
  26616131.731      -54901.759 2    -42779.698 1
 91  4 29 22  6 15.0070000  0  6 06 02 19 13 11 15
  23624338.815    -5603091.215 3  -4366023.902 2
  22898549.062     1753433.864 4   1366328.968 4
  24754386.698    19815567.442 2  15440694.021 2
  26335912.130    -1655908.518 2  -1290316.040 1
  27135983.245    16134832.057 2  12572590.027 1
  26614632.470      -62772.010 2    -48912.270 1
 91  4 29 22  6 30.0070000  0  6 06 02 19 13 11 15
  23623259.257    -5608778.729 3  -4370455.722 2
  22901694.490     1769965.369 4   1379210.666 4
  24764203.397    19867169.170 2  15480903.141 1
  26327882.185    -1698098.270 2  -1323190.985 1
  27148456.417    16200395.828 2  12623678.721 1
  26613141.305      -70562.454 2    -54982.704 1
 91  4 29 22  6 45.0070000  0  6 06 02 19 13 11 15
  23622180.005    -5614433.620 3  -4374862.114 3
  22904853.703     1786557.208 4   1392139.372 4
  24774038.087    19918829.949 2  15521158.256 2
  26319858.837    -1740270.519 2  -1356052.363 1
  27160952.666    16266024.937 2  12674818.186 1
  26611685.215      -78274.335 2    -60991.873 1
 91  4 29 22  7  0.0070000  0  6 06 02 19 13 11 15
  23621113.945    -5620056.334 3  -4379243.440 2
  22908019.504     1803208.658 4   1405114.531 4
  24783881.179    19970549.076 2  15561458.848 2
  26311833.395    -1782425.634 2  -1388900.333 1
  27173449.509    16331718.339 2  12726007.764 1
  26610242.614      -85908.072 2    -66940.203 1
 91  4 29 22  7 15.0070000  0  6 06 02 19 13 11 15
  23620048.478    -5625645.050 3  -4383598.273 2
  22911200.007     1819921.307 4   1418137.381 4
  24793733.554    20022328.004 2  15601806.029 1
  26303822.942    -1824561.305 2  -1421733.569 1
  27185957.755    16397477.220 2  12777248.375 1
  26608791.018      -93461.624 2    -72825.948 1
 91  4 29 22  7 30.0070000  0  6 06 02 19 13 11 15
  23618990.515    -5631200.425 3  -4387927.127 2
  22914392.193     1836694.320 4   1431207.269 4
  24803595.527    20074166.124 2  15642199.352 1
  26295805.596    -1866677.855 2  -1454551.682 1
  27198493.572    16463300.599 2  12828539.185 1
  26607374.496     -100935.278 2    -78649.592 1
 91  4 29 22  7 45.0070000  0  6 06 02 19 13 11 15
  23617940.343    -5636724.433 3  -4392231.542 2
  22917596.681     1853525.326 4   1444322.341 4
  24813476.687    20126061.293 2  15682637.106 1
  26287795.135    -1908776.980 2  -1487356.042 1
  27211018.903    16529186.030 2  12879878.441 1
  26605964.571     -108330.835 2    -84412.293 1
 91  4 29 22  8  0.0070000  0  6 06 02 19 13 11 15
  23616895.860    -5642213.872 3  -4396509.029 2
  22920810.156     1870417.252 4   1457484.882 3
  24823359.042    20178016.363 2  15723121.556 1
  26279781.986    -1950855.451 2  -1520144.315 1
  27223569.117    16595135.937 2  12931267.899 1
  26604570.840     -115644.969 2    -90111.561 1
 91  4 29 22  8 15.0070000  0  6 06 02 19 13 11 15
  23615858.279    -5647664.010 3  -4400755.877 2
  22924037.722     1887374.643 4   1470698.438 4
  24833263.288    20230035.891 2  15763656.208 2
  26271784.421    -1992908.516 2  -1552912.750 1
  27236139.712    16661154.526 2  12982710.845 1
  26603191.793     -122872.900 2    -95743.641 1
 91  4 29 22  8 30.0070000  0  6 06 02 19 13 11 15
  23614831.491    -5653075.744 3  -4404972.796 2
  22927276.675     1904396.393 4   1483962.146 4
  24843173.232    20282118.892 2  15804240.338 2
  26263794.350    -2034936.598 2  -1585661.747 1
  27248712.708    16727240.457 2  13034206.411 1
  26601839.427     -130015.530 2   -101309.275 1
 91  4 29 22  8 45.0070000  0  6 06 02 19 13 11 15
  23613807.102    -5658450.098 3  -4409160.590 2
  22930527.327     1921481.040 4   1497274.859 4
  24853091.560    20334264.068 2  15844872.923 2
  26255791.697    -2076940.525 2  -1618391.943 1
  27261305.195    16793392.208 2  13085753.059 1
  26600494.565     -137073.357 2   -106808.840 1
 91  4 29 22  9  0.0070000  0  6 06 02 19 13 11 15
  23612787.809    -5663789.391 3  -4413321.080 2
  22933790.570     1938626.059 4   1510634.605 4
  24863028.788    20386468.765 2  15885551.886 1
  26247803.127    -2118922.579 2  -1651105.104 1
  27273903.973    16859606.821 2  13137348.796 1
  26599165.582     -144048.651 2   -112244.065 1
 91  4 29 22  9 15.0070000  0  6 06 02 19 13 11 15
  23611779.605    -5669093.739 3  -4417454.324 2
  22937064.598     1955831.062 4   1524041.112 3
  24872976.494    20438732.813 2  15926277.075 2
  26239815.151    -2160882.549 2  -1683801.057 1
  27286523.735    16925883.646 2  13188992.984 1
  26597850.691     -150941.288 2   -117614.946 1
 91  4 29 22  9 30.0070000  0  6 06 02 19 13 11 15
  23610778.599    -5674363.005 3  -4421560.232 2
  22940348.231     1973095.975 4   1537494.295 4
  24882926.608    20491055.983 2  15967048.340 1
  26231845.470    -2202819.914 2  -1716479.361 1
  27299140.801    16992222.212 2  13240685.303 1
  26596557.682     -157751.249 2   -122921.328 1
 91  4 29 22  9 45.0070000  0  6 06 02 19 13 11 15
  23609781.485    -5679597.705 3  -4425639.207 3
  22943645.642     1990420.191 4   1550993.683 3
  24892897.706    20543437.710 2  16007865.240 2
  26223865.896    -2244735.174 2  -1749140.495 1
  27311774.348    17058621.550 2  13292424.894 1
  26595271.278     -164478.599 2   -128163.323 1
 91  4 29 22 10  0.0070000  0  5 06 02 19 13 15
  23608793.375    -5684795.546 3  -4429689.468 2
  22946953.854     2007805.610 4   1564540.767 3
  24902876.901    20595880.104 2  16048729.414 2
  26215894.113    -2286626.106 2  -1781782.612 1
  26594022.942     -171121.090 2   -133339.290 1
 91  4 29 22 10 15.0070000  0  5 06 02 19 13 15
  23607810.954    -5689953.243 3  -4433708.440 2
  22950274.055     2025255.233 4   1578137.883 3
  24912873.773    20648386.006 2  16089643.066 1
  26207922.330    -2328489.104 2  -1814403.376 1
  26592767.408     -177675.292 2   -138446.356 1
 91  4 29 22 10 30.0070000  0  5 06 02 19 13 15
  23606835.731    -5695072.438 3  -4437697.410 3
  22953608.346     2042767.114 4   1591783.504 4
  24922875.452    20700953.667 2  16130604.849 2
  26199966.741    -2370325.282 2  -1847003.007 1
  26591541.556     -184142.408 2   -143485.592 1
 91  4 29 22 10 45.0070000  0  5 06 02 19 13 15
  23605873.692    -5700150.876 3  -4441654.629 2
  22956950.133     2060343.115 4   1605479.090 3
  24932886.424    20753585.089 2  16171616.310 1
  26192015.348    -2412132.382 2  -1879579.797 1
  26590321.105     -190520.164 2   -148455.270 1
 91  4 29 22 11  0.0070000  0  5 06 02 19 13 15
  23604908.058    -5705187.391 3  -4445579.184 2
  22960309.605     2077984.160 4   1619225.359 4
  24942917.481    20806281.349 2  16212678.313 1
  26184056.758    -2453908.874 2  -1912132.792 1
  26589121.036     -196807.390 2   -153354.315 1
 91  4 29 22 11 15.0070000  0  5 06 02 19 13 15
  23603961.916    -5710180.003 3  -4449469.533 3
  22963679.574     2095692.199 4   1633023.838 3
  24952958.127    20859044.371 2  16253792.300 1
  26176109.257    -2495652.625 2  -1944660.198 1
  26587946.750     -203001.964 2   -158181.223 1
 91  4 29 22 11 30.0070000  0  5 06 02 19 13 15
  23603023.269    -5715127.865 3  -4453325.001 3
  22967062.429     2113467.551 4   1646874.766 3
  24963014.365    20911874.570 2  16294958.659 1
  26168184.240    -2537362.717 2  -1977161.509
  26586782.350     -209102.777 2   -162935.103 1
 91  4 29 22 11 45.0070000  0  5 06 02 19 13 15
  23602086.419    -5720035.330 3  -4457148.985 2
  22970456.383     2131305.712 4   1660774.626 3
  24973072.400    20964767.466 2  16336173.874 1
  26160244.540    -2579043.511 2  -2009639.839 1
  26585639.544     -215114.036 2   -167619.083 1
 91  4 29 22 12  0.0070000  0  5 06 02 19 13 15
  23601161.252    -5724899.568 3  -4460939.300 2
  22973861.724     2149209.273 4   1674725.454 3
  24983149.324    21017725.659 2  16377439.958 1
  26152322.525    -2620691.457 2  -2042092.759 1
  26584516.221     -221032.684 2   -172230.953 1
 91  4 29 22 12 15.0070000  0  5 06 02 19 13 15
  23600242.690    -5729721.187 3  -4464696.397 2
  22977282.961     2167177.308 4   1688726.524 4
  24993238.543    21070748.169 2  16418756.186 2
  26144396.610    -2662307.271 2  -2074520.476 1
  26583402.792     -226859.456 2   -176771.265 1
 91  4 29 22 12 30.0070000  0  5 06 02 19 13 15
  23599332.522    -5734499.391 3  -4468419.673 3
  22980713.787     2185210.283 4   1702778.193 4
  25003353.239    21123835.586 2  16460122.966 1
  26136477.291    -2703889.992 2  -2106922.418 1
  26582316.647     -232593.109 2   -181238.981 1
 91  4 29 22 12 45.0070000  0  5 06 02 19 13 15
  23598434.342    -5739232.130 3  -4472107.511 3
  22984156.602     2203310.169 4   1716881.994 4
  25013462.237    21176989.797 2  16501541.797 1
  26128575.666    -2745437.182 2  -2139296.732 1
  26581244.584     -238231.362 2   -185632.394 1
 91  4 29 22 13  0.0070000  0  5 06 02 19 13 15
  23597543.360    -5743918.731 3  -4475759.398 2
  22987614.406     2221477.119 4   1731038.060 3
  25023591.626    21230211.180 2  16543013.004 1
  26120683.326    -2786948.158 2  -2171642.796 1
  26580186.918     -243773.556 2   -189950.919 1
 91  4 29 22 13 15.0070000  0  5 06 02 19 13 15
  23596659.270    -5748560.732 3  -4479376.540 2
  22991086.005     2239709.418 4   1745245.048 4
  25033731.512    21283498.025 2  16584535.184 1
  26112784.092    -2828424.114 2  -2203961.593 1
  26579151.439     -249221.144 2   -194195.801 1
 91  4 29 22 13 30.0070000  0  5 06 02 19 13 15
  23595782.676    -5753156.081 3  -4482957.321 3
  22994567.192     2258008.842 4   1759504.340 4
  25043883.682    21336852.229 2  16626109.846 2
  26104909.446    -2869862.898 2  -2236251.442 1
  26578118.953     -254572.030 2   -198365.246 1
 91  4 29 22 13 45.0070000  0  5 06 02 19 13 15
  23594915.078    -5757705.982 3  -4486502.699 3
  22998060.673     2276374.025 4   1773814.866 4
  25054051.740    21390272.380 2  16667735.873 2
  26097031.798    -2911265.284 2  -2268512.941 1
  26577147.325     -259827.298 2   -202460.199 1
 91  4 29 22 14  0.0070000  0  5 06 02 19 13 15
  23594058.272    -5762211.577 3  -4490013.543 3
  23001568.848     2294803.553 4   1788175.537 4
  25064234.196    21443757.064 2  16709412.242 1
  26089154.159    -2952632.390 2  -2300746.842 1
  26576162.505     -264987.722 2   -206481.285 1
 91  4 29 22 14 15.0070000  0  5 06 02 19 13 15
  23593211.360    -5766671.176 3  -4493488.560 2
  23005088.705     2313298.596 4   1802587.261 3
  25074416.939    21497307.678 2  16751139.948 1
  26081286.100    -2993962.187 2  -2332951.741 1
  26575190.580     -270051.636 2   -210427.159 1
 91  4 29 22 14 30.0070000  0  5 06 02 19 13 15
  23592373.139    -5771084.996 3  -4496927.889 3
  23008619.364     2331858.789 4   1817049.750 3
  25084624.574    21550923.846 2  16792918.765 2
  26073421.950    -3035254.799 2  -2365127.644 1
  26574236.341     -275019.127 2   -214297.868 1
 91  4 29 22 14 45.0070000  0  5 06 02 19 13 15
  23591543.914    -5775448.759 3  -4500328.218 3
  23012164.114     2350488.147 4   1831566.134 4
  25094828.310    21604609.546 2  16834751.719 1
  26065576.681    -3076505.939 2  -2397271.297 1
  26573317.474     -279885.696 2   -218089.984 1
 91  4 29 22 15  0.0070000  0  5 06 02 19 13 15
  23590720.080    -5779761.834 3  -4503689.052 3
  23015723.243     2369187.063 4   1846136.709 3
  25105064.721    21658365.299 2  16876639.283 1
  26057737.406    -3117714.637 2  -2429381.815 1
  26572401.608     -284650.513 2   -221802.786 1
 91  4 29 22 15 15.0070000  0  5 06 02 19 13 15
  23589909.744    -5784027.259 3  -4507012.754 3
  23019294.072     2387952.304 4   1860758.977 3
  25115300.836    21712187.972 2  16918579.006 1
  26049903.227    -3158883.576 2  -2461461.435 1
  26571527.718     -289316.764 2   -225438.758 1
 91  4 29 22 15 30.0070000  0  5 06 02 19 13 15
  23589110.498    -5788241.996 3  -4510296.958 3
  23022876.296     2406786.506 4   1875434.978 3
  25125570.533    21766080.220 2  16960572.928 1
  26042082.545    -3200009.813 2  -2493507.641 1
  26570661.917     -293881.229 2   -228995.432 1
 91  4 29 22 15 45.0070000  0  5 06 02 19 13 15
  23588317.246    -5792408.936 3  -4513543.917 3
  23026474.401     2425686.499 4   1890162.241 3
  25135829.725    21820038.781 2  17002618.545 1
  26034256.463    -3241096.141 2  -2525522.826 1
  26569801.211     -298346.400 2   -232474.735 1
 91  4 29 22 16  0.0070000  0  5 06 02 19 13 15
  23587531.489    -5796528.782 3  -4516754.178 3
  23030083.010     2444651.440 4   1904940.125 3
  25146112.912    21874062.899 2  17044715.245 1
  26026448.363    -3282142.873 2  -2557507.190 1
  26568974.080     -302712.928 2   -235877.147 1
 91  4 29 22 16 15.0070000  0  5 06 02 19 13 15
  23586755.330    -5800601.252 3  -4519927.525 3
  23033704.200     2463681.145 4   1919768.468 4
  25156402.084    21928152.538 2  17086862.961 1
  26018650.166    -3323149.619 2  -2589460.413 1
  26568171.535     -306980.646 2   -239202.623 1
 91  4 29 22 16 30.0070000  0  5 06 02 19 13 15
  23585990.862    -5804626.265 3  -4523063.902 3
  23037337.685     2482775.388 4   1934647.097 4
  25166708.348    21982307.622 2  17129061.699 1
  26010847.162    -3364115.976 2  -2621382.106 1
  26567365.100     -311149.126 2   -242450.760 1
 91  4 29 22 16 45.0070000  0  5 06 02 19 13 15
  23585233.880    -5808606.042 3  -4526165.025 3
  23040982.564     2501931.775 4   1949574.141 4
  25177032.002    22036525.513 2  17171309.371 1
  26003064.556    -3405044.017 2  -2653273.959 1
  26566584.133     -315220.484 2   -245623.215 1
 91  4 29 22 17  0.0070000  0  5 06 02 19 13 15
  23584485.004    -5812534.480 3  -4529226.144 3
  23044641.822     2521156.354 4   1964554.336 3
  25187353.561    22090812.272 2  17213610.714 1
  25995278.645    -3445927.246 2  -2685130.838 1
  26565835.553     -319188.456 2   -248715.104 2
 91  4 29 22 17 15.0070000  0  5 06 02 19 13 15
  23583746.912    -5816414.284 3  -4532249.350 3
  23048312.484     2540445.848 4   1979585.106 3
  25197699.394    22145164.862 2  17255963.340 1
  25987502.923    -3486768.406 2  -2716955.039 1
  26565101.667     -323055.774 2   -251728.502 1
 91  4 29 22 17 30.0070000  0  5 06 02 19 13 15
  23583016.315    -5820246.829 3  -4535235.748 2
  23051994.533     2559798.662 4   1994665.220 4
  25208057.529    22199581.697 2  17298366.042 1
  25979738.903    -3527568.501 2  -2748747.231 1
  26564389.052     -326823.591 2   -254664.447 1
 91  4 29 22 17 45.0070000  0  5 06 02 19 13 15
  23582298.614    -5824027.734 3  -4538181.912 3
  23055691.579     2579218.918 4   2009797.884 3
  25218430.043    22254066.914 2  17340822.020 1
  25971992.568    -3568323.085 2  -2780503.946 1
  26563691.742     -330487.523 2   -257519.501 1
 91  4 29 22 18  0.0080000  0  5 06 02 19 13 15
  23581590.208    -5827757.690 3  -4541088.366 2
  23059400.905     2598707.212 4   2024983.567 3
  25228804.663    22308623.543 2  17383333.644 1
  25964235.138    -3609035.147 2  -2812227.415 1
  26563015.706     -334048.011 2   -260293.878 1
 91  4 29 22 18 15.0080000  0  5 06 02 19 13 15
  23580890.192    -5831433.922 3  -4543952.951 3
  23063119.835     2618262.801 4   2040221.690 4
  25239191.268    22363246.379 2  17425896.876 1
  25956505.581    -3649696.630 2  -2843911.607 1
  26562348.069     -337502.285 2   -262985.484 1
 91  4 29 22 18 30.0080000  0  5 06 02 19 13 15
  23580200.368    -5835059.753 3  -4546778.277 2
  23066855.551     2637883.625 4   2055510.640 3
  25249611.160    22417935.497 2  17468511.738 1
  25948777.238    -3690313.180 2  -2875560.790
  26561711.311     -340853.419 2   -265596.700 1
 91  4 29 22 18 45.0080000  0  5 06 02 19 13 15
  23579517.140    -5838634.760 3  -4549563.992 3
  23070600.560     2657569.848 4   2070850.541 4
  25260022.352    22472691.178 2  17511178.471 1
  25941047.690    -3730884.577 2  -2907174.790 1
  26561101.530     -344101.144 2   -268127.403 1
 91  4 29 22 19  0.0080000  0  5 06 02 19 13 15
  23578846.205    -5842157.936 3  -4552309.321 3
  23074360.855     2677322.433 4   2086242.171 3
  25270450.629    22527514.207 2  17553897.669 1
  25933340.025    -3771409.377 2  -2938752.427 1
  26560492.954     -347244.088 2   -270576.374 1
 91  4 29 22 19 15.0080000  0  5 06 02 19 13 15
  23578187.860    -5845625.795 3  -4555011.545 2
  23078130.146     2697144.428 4   2101687.882 4
  25280898.100    22582407.737 2  17596671.805 1
  25925641.050    -3811883.830 2  -2970290.816 1
  26559917.952     -350278.540 2   -272940.899 1
 91  4 29 22 19 30.0080000  0  5 06 02 19 13 15
  23577538.206    -5849039.562 3  -4557671.627 3
  23081916.223     2717034.375 4   2117186.540 4
  25291359.654    22637370.370 2  17639499.824 1
  25917947.476    -3852308.944 2  -3001790.776 1
  26559357.940     -353205.561 2   -275221.673 1
 91  4 29 22 19 45.0080000  0  5 06 02 19 13 15
  23576897.853    -5852402.877 3  -4560292.388 3
  23085714.289     2736988.498 4   2132735.195 4
  25301838.300    22692398.260 2  17682378.634 1
  25910270.392    -3892688.201 2  -3033255.009 1
  26558824.007     -356028.966 2   -277421.713 1
 91  4 29 22 20  0.0080000  0  5 06 02 19 13 15
  23576268.590    -5855713.269 3  -4562871.900 2
  23089521.953     2757008.677 4   2148335.337 3
  25312317.845    22747493.431 2  17725309.912 1
  25902585.813    -3933019.212 2  -3064681.708 1
  26558315.856     -358746.196 2   -279538.974 1
 91  4 29 22 20 15.0080000  0  5 06 02 19 13 15
  23575646.821    -5858971.590 3  -4565410.848 3
  23093346.107     2777093.975 4   2163986.213 3
  25322819.578    22802655.045 2  17768292.954 1
  25894922.821    -3973302.305 2  -3096070.990 1
  26557819.406     -361357.760 2   -281573.904 1
 91  4 29 22 20 30.0080000  0  5 06 02 19 13 15
  23575035.243    -5862180.774 3  -4567911.506 3
  23097179.554     2797240.974 4   2179685.170 4
  25333317.106    22857879.814 2  17811325.188 1
  25887270.918    -4013540.254 2  -3127425.132 1
  26557331.943     -363866.806 2   -283529.037 1
 91  4 29 22 20 45.0080000  0  5 06 02 19 13 15
  23574432.958    -5865344.068 3  -4570376.411 3
  23101023.191     2817446.276 4   2195429.549 3
  25343839.230    22913164.190 2  17854403.874 1
  25879620.812    -4053736.012 2  -3158746.453 1
  26556884.650     -366276.395 2   -285406.606 1
 91  4 29 22 21  0.0080000  0  5 06 02 19 13 15
  23573845.670    -5868460.399 3  -4572804.720 2
  23104879.724     2837710.545 4   2211219.889 3
  25354372.434    22968509.148 2  17897529.788 1
  25871974.903    -4093888.689 2  -3190034.055 1
  26556439.757     -368585.172 2   -287205.558 1
 91  4 29 22 21 15.0080000  0  5 06 02 19 13 15
  23573258.069    -5871530.229 3  -4575196.785 3
  23108747.643     2858033.030 4   2227055.587 3
  25364921.527    23023913.827 2  17940702.226 1
  25864339.787    -4133998.313 2  -3221288.201 1
  26556017.950     -370793.479 2   -288926.320 1
 91  4 29 22 21 30.0080000  0  5 06 02 19 13 15
  23572682.474    -5874553.714 3  -4577552.746 3
  23112627.263     2878413.584 4   2242936.531 4
  25375476.919    23079377.823 2  17983920.889 1
  25856720.263    -4174064.847 2  -3252508.782 1
  26555608.734     -372901.475 2   -290568.899 1
 91  4 29 22 21 45.0080000  0  5 06 02 19 13 15
  23572114.365    -5877532.010 3  -4579873.493 3
  23116514.072     2898850.637 4   2258861.502 3
  25386044.605    23134899.851 2  18027184.766 2
  25849097.746    -4214089.478 2  -3283696.690 1
  26555238.493     -374910.388 2   -292134.289 1
 91  4 29 22 22  0.0080000  0  5 06 02 19 13 15
  23571556.752    -5880470.786 3  -4582163.442 2
  23120412.870     2919338.109 4   2274825.762 3
  25396618.888    23190473.852 2  18070489.116 1
  25841499.503    -4254077.703 2  -3314856.143 1
  26554868.252     -376825.794 2   -293626.770 1
 91  4 29 22 22 15.0080000  0  5 06 02 19 13 15
  23571006.328    -5883368.959 3  -4584421.750 3
  23124321.867     2939876.925 4   2290830.033 3
  25407205.455    23246100.644 2  18113834.637 1
  25833886.269    -4294027.938 2  -3345986.196 1
  26554515.687     -378646.320 2   -295045.292 1
 91  4 29 22 22 30.0080000  0  5 06 02 19 13 15
  23570460.110    -5886225.898 3  -4586647.938 3
  23128240.453     2960467.184 4   2306874.382 4
  25417796.524    23301780.594 2  18157221.576 1
  25826293.426    -4333939.774 2  -3377086.192 1
  26554189.813     -380371.233 2   -296389.405 1
 91  4 29 22 22 45.0080000  0  5 06 02 19 13 15
  23569925.880    -5889039.753 3  -4588840.546 2
  23132168.933     2981110.766 4   2322960.282 4
  25428391.790    23357515.481 2  18200651.324 1
  25818703.280    -4373810.988 2  -3408154.646 1
  26553882.532     -381998.538 2   -297657.373 1
 91  4 29 22 23  0.0080000  0  5 06 02 19 13 15
  23569396.144    -5891810.620 3  -4590999.652 3
  23136107.910     3001807.070 4   2339087.267 3
  25439008.337    23413304.872 2  18244123.530 1
  25811127.826    -4413641.485 2  -3439191.268 1
  26553596.523     -383528.463 2   -298849.492 1
 91  4 29 22 23 15.0080000  0  5 06 02 19 13 15
  23568882.000    -5894539.363 3  -4593125.940 3
  23140054.076     3022554.876 4   2355254.388 3
  25449652.176    23469147.384 2  18287637.135 1
  25803558.367    -4453431.929 2  -3470196.732 1
  26553317.425     -384961.800 2   -299966.390 1
 91  4 29 22 23 30.0080000  0  5 06 02 19 13 15
  23568365.761    -5897226.286 3  -4595219.641 3
  23144013.137     3043353.722 4   2371461.277 3
  25460280.414    23525042.688 2  18331191.868 1
  25795994.003    -4493182.441 2  -3501171.000 1
  26553065.897     -386298.575 2   -301007.929 1
 91  4 29 22 23 45.0080000  0  5 06 02 19 13 15
  23567865.106    -5899869.563 3  -4597279.340 3
  23147982.381     3064205.144 4   2387709.126 4
  25470932.943    23580992.280 2  18374788.903 1
  25788435.336    -4532891.172 2  -3532112.752 1
  26552824.561     -387536.903 2   -301972.860 1
 91  4 29 22 24  0.0080000  0  5 06 02 19 13 15
  23567367.748    -5902469.639 3  -4599305.374 3
  23151959.731     3085108.419 4   2403997.382 3
  25481596.257    23636995.548 2  18418427.788 1
  25780885.962    -4572558.211 2  -3563022.049 1
  26552609.914     -388676.982 2   -302861.268 1
 91  4 29 22 24 15.0080000  0  5 06 02 19 13 15
  23566886.288    -5905022.112 3  -4601294.307 3
  23155946.669     3106067.639 4   2420329.236 3
  25492250.880    23693056.527 2  18462111.604 1
  25773347.686    -4612179.001 2  -3593895.337 1
  26552417.744     -389714.715 2   -303669.861 1
 91  4 29 22 24 30.0080000  0  5 06 02 19 13 15
  23566408.414    -5907529.854 3  -4603248.390 3
  23159944.706     3127079.904 4   2436702.430 3
  25502928.886    23749172.162 2  18505838.016 1
  25765817.498    -4651756.198 2  -3624734.582 1
  26552228.575     -390652.969 2   -304400.945 1
 91  4 29 22 24 45.0080000  0  5 06 02 19 13 15
  23565940.443    -5909991.964 3  -4605166.912 3
  23163956.529     3148145.609 4   2453117.252 4
  25513628.478    23805343.056 2  18549607.511 1
  25758295.407    -4691288.811 2  -3655539.037 1
  26552078.983     -391490.438 2   -305053.509 1
 91  4 29 22 25  0.0080000  0  5 06 02 19 13 15
  23565479.059    -5912406.303 3  -4607048.212 3
  23167971.946     3169266.637 4   2469575.191 4
  25524311.885    23861571.181 2  18593421.581 1
  25750772.714    -4730774.520 2  -3686307.144 1
  26551948.272     -392224.930 2   -305625.821 1
 91  4 29 22 25 15.0080000  0  5 06 02 19 13 15
  23565028.773    -5914775.318 3  -4608894.192 3
  23172000.861     3190440.036 4   2486073.945 4
  25535024.068    23917853.678 2  18637278.028 1
  25743271.302    -4770215.677 2  -3717040.373 1
  26551822.360     -392858.935 2   -306119.800 1
 91  4 29 22 25 30.0080000  0  5 06 02 19 13 15
  23564585.678    -5917098.132 3  -4610704.169 3
  23176042.663     3211666.478 4   2502614.019 4
  25545777.625    23974191.280 2  18681177.397 1
  25735779.793    -4809611.150 2  -3747738.051 1
  26551718.924     -393391.463 2   -306534.768 1
 91  4 29 22 25 45.0080000  0  5 06 02 19 13 15
  23564154.579    -5919375.294 3  -4612478.581 3
  23180090.154     3232945.172 4   2519194.811 4
  25556474.818    24030583.027 2  18725118.985 1
  25728295.176    -4848961.261 2  -3778400.405 1
  26551637.387     -393822.752 2   -306870.839 1
 91  4 29 22 26  0.0080000  0  5 06 02 19 13 15
  23563730.067    -5921603.742 3  -4614215.029 3
  23184151.448     3254278.933 4   2535818.512 4
  25567222.678    24087031.719 2  18769104.943 1
  25720809.652    -4888262.696 2  -3809024.794 1
  26551575.029     -394149.829 2   -307125.649 1
 91  4 29 22 26 15.0080000  0  5 06 02 19 13 15
  23563316.654    -5923783.003 3  -4615913.150 3
  23188220.533     3275668.111 4   2552485.396 4
  25577980.432    24143537.658 2  18813135.471 1
  25713341.823    -4927514.813 2  -3839610.796 1
  26551535.757     -394372.135 2   -307298.854 1
 91  4 29 22 26 30.0080000  0  5 06 02 19 13 15
  23562907.141    -5925914.461 3  -4617574.025 3
  23192301.903     3297110.868 4   2569194.037 4
  25588742.984    24200099.059 2  18857209.242 1
  25705882.989    -4966718.872 2  -3870159.332 1
  26551502.480     -394491.038 2   -307391.578 1
 91  4 29 22 26 45.0080000  0  5 06 02 19 13 15
  23562512.609    -5927995.214 3  -4619195.385 3
  23196391.371     3318609.768 4   2585946.423 4
  25599516.321    24256718.546 2  18901328.286 1
  25698427.148    -5005871.881 2  -3900668.084 1
  26551489.889     -394503.670 2   -307401.335 1
 91  4 29 22 27  0.0080000  0  5 06 02 19 13 15
  23562127.675    -5930025.792 3  -4620777.653 3
  23200494.632     3340163.969 4   2602741.889 3
  25610306.750    24313395.322 2  18945491.972 1
  25690986.297    -5044974.294 2  -3931137.414 1
  26551517.469     -394410.240 2   -307328.454 1
 91  4 29 22 27 15.0080000  0  5 06 02 19 13 15
  23561749.337    -5932001.731 3  -4622317.343 3
  23204607.186     3361777.667 4   2619583.732 4
  25621098.384    24370133.709 2  18989703.631 1
  25683552.050    -5084021.672 2  -3961563.826 1
  26551563.634     -394206.288 2   -307169.576 1
 91  4 29 22 27 30.0080000  0  5 06 02 19 13 15
  23561385.395    -5933925.252 3  -4623816.192 3
  23208730.830     3383448.294 4   2636469.935 4
  25631905.304    24426931.210 2  19033961.398 1
  25676136.379    -5123015.711 2  -3991948.699 1
  26551621.499     -393893.991 2   -306926.187 1
 91  4 29 22 27 45.0080000  0  5 06 02 19 13 15
  23561026.540    -5935801.696 3  -4625278.353 3
  23212864.664     3405170.136 4   2653396.044 4
  25642720.617    24483781.869 2  19078260.570 1
  25668721.616    -5161961.710 2  -4022296.173 1
  26551700.941     -393478.892 2   -306602.681 1
 91  4 29 22 28  0.0080000  0  5 06 02 19 13 15
  23560677.282    -5937630.507 3  -4626703.395 3
  23217007.503     3426943.715 4   2670362.460 4
  25653547.020    24540686.468 2  19122601.742 1
  25661325.437    -5200858.620 2  -4052605.365 1
  26551795.373     -392960.200 2   -306198.494 1
 91  4 29 22 28 15.0080000  0  5 06 02 19 13 15
  23560341.217    -5939410.136 3  -4628090.123 3
  23221159.625     3448770.331 4   2687370.208 3
  25664397.409    24597646.019 2  19166985.792 1
  25653934.354    -5239704.963 2  -4082875.137 1
  26551914.689     -392336.244 2   -305712.273 1
 91  4 29 22 28 30.0080000  0  5 06 02 19 13 15
  23560013.241    -5941140.225 3  -4629438.247 3
  23225324.940     3470649.924 4   2704419.245 3
  25675231.603    24654660.710 2  19211412.768 1
  25646548.959    -5278500.248 2  -4113105.107 1
  26552051.699     -391606.591 2   -305143.686 1
 91  4 29 22 28 45.0080000  0  5 06 02 19 13 15
  23559691.563    -5942824.831 3  -4630750.919 3
  23229498.351     3492578.193 4   2721506.196 4
  25686093.988    24711726.112 2  19255879.271 1
  25639179.462    -5317248.438 2  -4143298.464 1
  26552215.984     -390775.402 2   -304495.936 1
 91  4 29 22 29  0.0080000  0  5 06 02 19 13 15
  23559378.280    -5944460.025 3  -4632025.087 3
  23233679.860     3514558.431 4   2738633.647 4
  25696964.462    24768845.630 2  19300387.928 1
  25631815.060    -5355945.639 2  -4173452.015 1
  26552391.359     -389838.658 2   -303766.002 1
 91  4 29 22 29 15.0080000  0  5 06 02 19 13 15
  23559078.494    -5946048.310 3  -4633262.709 3
  23237872.152     3536587.884 4   2755799.452 4
  25707840.633    24826016.488 2  19344936.617 1
  25624455.160    -5394594.161 2  -4203567.669 1
  26552595.823     -388798.828 2   -302955.743 1
 91  4 29 22 29 30.0080000  0  5 06 02 19 13 15
  23558784.091    -5947588.620 3  -4634462.950 3
  23242074.645     3558667.567 4   2773004.399 3
  25718742.883    24883239.871 2  19389526.213 1
  25617112.641    -5433192.316 2  -4233644.069 1
  26552808.376     -387654.544 2   -302064.019 1
 91  4 29 22 29 45.0080000  0  5 06 02 19 13 15
  23558501.991    -5949081.135 3  -4635625.940 3
  23246286.133     3580796.979 4   2790248.090 4
  25729648.135    24940515.233 2  19434156.329 1
  25609773.725    -5471739.922 2  -4263681.080 1
  26553046.109     -386405.843 2   -301091.028 1
 91  4 29 22 30  0.0080000  0  5 06 02 19 13 15
  23558224.384    -5950525.384 3  -4636751.333 3
  23250505.412     3602976.407 4   2807530.749 4
  25740560.280    24997842.570 2  19478826.917 1
  25602451.893    -5510236.602 2  -4293678.379 1
  26553309.031     -385052.410 2   -300036.326 1
 91  4 29 22 30 15.0080000  0  5 06 02 19 13 15
  23557960.563    -5951917.636 3  -4637836.201 3
  23254736.680     3625209.215 4   2824855.022 3
  25751470.924    25055225.303 2  19523540.687 1
  25595136.953    -5548678.601 2  -4323633.111 1
  26553579.143     -383590.428 2   -298897.129 1
 91  4 29 22 30 30.0080000  0  5 06 02 19 13 15
  23557707.238    -5953255.535 3  -4638878.714 3
  23258976.350     3647497.437 4   2842222.460 4
  25762397.762    25112665.713 2  19568299.423 1
  25587832.816    -5587063.475 2  -4353543.360 1
  26553868.738     -382017.868 2   -297671.748 1
 91  4 29 22 30 45.0080000  0  5 06 02 19 13 15
  23557461.705    -5954536.787 3  -4639877.083 3
  23263229.500     3669843.223 4   2859634.758 4
  25773326.100    25170165.853 2  19613104.672 1
  25580540.064    -5625388.581 2  -4383407.025 1
  26554201.208     -380331.897 2   -296357.954 1
 91  4 29 22 31  0.0080000  0  5 06 02 19 13 15
  23557227.872    -5955763.150 3  -4640832.689 3
  23267493.749     3692244.212 4   2877090.062 4
  25784287.411    25227723.349 2  19657954.604 1
  25573257.504    -5663655.680 2  -4413225.411 1
  26554544.471     -378534.204 2   -294957.146 1
 91  4 29 22 31 15.0080000  0  5 06 02 19 13 15
  23557005.722    -5956931.590 3  -4641743.157 3
  23271765.789     3714703.169 4   2894590.543 4
  25795255.614    25285341.016 2  19702851.434 1
  25565986.033    -5701861.733 2  -4442996.315 1
  26554910.516     -376621.986 2   -293467.084
 91  4 29 22 31 30.0080000  0  5 06 02 19 13 15
  23556793.771    -5958043.424 3  -4642609.522 3
  23276051.623     3737218.550 4   2912134.995 4
  25806239.409    25343017.252 2  19747793.899 1
  25558724.160    -5740007.748 2  -4472720.428 1
  26555285.861     -374596.743 2   -291888.918 1
 91  4 29 22 31 45.0080000  0  5 06 02 19 13 15
  23556593.809    -5959099.424 3  -4643432.365 3
  23280346.453     3759789.438 4   2929722.690 4
  25817222.908    25400751.066 2  19792781.257 1
  25551474.284    -5778094.193 2  -4502398.137 1
  26555701.674     -372458.817 2   -290222.940 1
 91  4 29 22 32  0.0080000  0  5 06 02 19 13 15
  23556403.742    -5960099.359 3  -4644211.529 3
  23284650.270     3782415.594 4   2947353.456 4
  25828222.592    25458542.384 2  19837813.380 1
  25544244.789    -5816120.852 2  -4532029.099 1
  26556124.379     -370208.094 2   -288469.134 1
 91  4 29 22 32 15.0080000  0  5 06 02 19 13 15
  23556222.966    -5961041.340 3  -4644945.537 3
  23288966.687     3805098.649 4   2965028.552 3
  25839225.879    25516393.052 2  19882891.777 1
  25537020.390    -5854085.572 2  -4561612.005 1
  26556572.571     -367842.321 2   -286625.719 1
 91  4 29 22 32 30.0080000  0  5 06 02 19 13 15
  23556056.282    -5961922.661 3  -4645632.283 3
  23293296.583     3827841.146 4   2982749.977 4
  25850249.548    25574305.319 2  19928018.162 1
  25529804.987    -5891985.496 2  -4591144.347 1
  26557048.935     -365359.081 2   -284690.653
 91  4 29 22 32 45.0080000  0  5 06 02 19 13 15
  23555902.187    -5962743.136 3  -4646271.605 3
  23297633.381     3850642.656 4   3000517.378 4
  25861276.210    25632278.818 2  19973192.232 1
  25522608.465    -5929820.383 2  -4620626.025 1
  26557539.993     -362758.131 2   -282663.947 1
 91  4 29 22 33  0.0080000  0  5 06 02 19 13 15
  23555754.986    -5963508.625 3  -4646868.091 3
  23301985.770     3873497.222 4   3018326.123 4
  25872319.362    25690307.485 2  20018409.353 1
  25515415.843    -5967596.076 2  -4650061.494 1
  26558061.633     -360045.142 2   -280549.894 1
 91  4 29 22 33 15.0080000  0  5 06 02 19 13 15
  23555621.885    -5964216.074 3  -4647419.340 3
  23306343.858     3896407.475 4   3036178.260 4
  25883364.617    25748394.065 2  20063671.549 1
  25508245.409    -6005309.300 2  -4679448.412 1
  26558597.668     -357217.248 2   -278346.269 1
 91  4 29 22 33 30.0080000  0  5 06 02 19 13 15
  23555500.466    -5964862.518 3  -4647923.062 3
  23310713.026     3919376.508 4   3054076.209 4
  25894437.757    25806541.595 2  20108981.236 1
  25501080.070    -6042956.666 2  -4708783.922 1
  26559157.079     -354271.215 2   -276050.678 1
 91  4 29 22 33 45.0080000  0  5 06 02 19 13 15
  23555386.542    -5965443.123 3  -4648375.477 3
  23315097.192     3942408.697 4   3072023.366 4
  25905511.787    25864754.367 2  20154341.810 1
  25493927.924    -6080533.138 2  -4738064.250 1
  26559744.069     -351202.553 2   -273659.516 1
 91  4 29 22 34  0.0080000  0  5 06 02 19 13 15
  23555288.516    -5965959.330 3  -4648777.714 3
  23319493.949     3965501.988 4   3090018.135 4
  25916614.898    25923030.481 2  20199751.718 1
  25486791.658    -6118040.363 2  -4767290.576 1
  26560348.458     -348012.681 2   -271173.870 1
 91  4 29 22 34 15.0080000  0  5 06 02 19 13 15
  23555202.774    -5966410.586 3  -4649129.347 3
  23323897.302     3988656.735 4   3108060.786 4
  25927693.431    25981370.359 2  20245211.278 1
  25479671.594    -6155477.405 2  -4796462.231 1
  26560989.107     -344700.750 2   -268593.096 1
 91  4 29 22 34 30.0080000  0  5 06 02 19 13 15
  23555132.624    -5966795.902 3  -4649429.585 3
  23328316.840     4011873.836 4   3126152.031 3
  25938816.933    26039774.730 2  20290721.149 1
  25472553.022    -6192843.012 2  -4825578.163 1
  26561636.964     -341265.488 2   -265916.228 1
 91  4 29 22 34 45.0080000  0  5 06 02 19 13 15
  23555066.671    -5967124.126 3  -4649685.343 3
  23332744.781     4035143.916 4   3144284.558 4
  25949945.224    26098234.243 2  20336273.977 1
  25465457.231    -6230146.027 2  -4854645.459 1
  26562308.492     -337716.057 2   -263150.430 1
 91  4 29 22 35  0.0080000  0  5 06 02 19 13 15
  23555014.800    -5967392.708 3  -4649894.620 3
  23337182.903     4058469.352 4   3162460.214 4
  25961082.817    26156751.474 2  20381871.764 1
  25458365.942    -6267383.696 2  -4883661.715 1
  26563002.217     -334049.891 2   -260293.643 1
 91  4 29 22 35 15.0080000  0  5 06 02 19 13 15
  23554977.029    -5967600.399 3  -4650056.455 3
  23341632.124     4081851.161 4   3180679.798 3
  25972222.504    26215327.125 2  20427515.067 1
  25451296.231    -6304554.574 2  -4912625.989 1
  26563722.920     -330265.511 2   -257344.751 1
 91  4 29 22 35 30.0080000  0  5 06 02 19 13 15
  23554947.346    -5967746.676 3  -4650170.432 3
  23346094.232     4105289.488 4   3198943.420 4
  25983386.176    26273961.431 2  20473204.118 1
  25444233.124    -6341658.206 2  -4941537.836 1
  26564466.107     -326362.467 2   -254303.422 1
 91  4 29 22 35 45.0080000  0  5 06 02 19 13 15
  23554932.662    -5967831.391 3  -4650236.441 3
  23350562.945     4128784.122 4   3217250.928 4
  25994560.641    26332654.113 2  20518938.608 1
  25437192.799    -6378694.192 2  -4970396.980 1
  26565236.866     -322340.648 2   -251169.541 1
 91  4 29 22 36  0.0080000  0  5 06 02 19 13 15
  23554927.567    -5967854.639 3  -4650254.560 2
  23355046.935     4152334.788 4   3235602.084 3
  26005736.904    26391404.939 2  20564718.428 1
  25430152.168    -6415662.525 2  -4999203.406 1
  26566025.921     -318200.142 2   -247943.130 1
 91  4 29 22 36 15.0080000  0  5 06 02 19 13 15
  23554934.459    -5967818.325 3  -4650226.249 3
  23359536.929     4175939.366 4   3253995.261 3
  26016911.665    26450211.956 2  20610542.056 1
  25423130.733    -6452564.846 2  -5027958.397 1
  26566831.466     -313942.734 2   -244625.651 1
 91  4 29 22 36 30.0080000  0  5 06 02 19 13 15
  23554954.841    -5967718.523 3  -4650148.482 3
  23364040.708     4199601.348 4   3272433.169 3
  26028140.994    26509078.352 2  20656411.896 1
  25416122.481    -6489397.132 2  -5056658.837 1
  26567666.084     -309564.715 2   -241214.113 1
 91  4 29 22 36 45.0080000  0  5 06 02 19 13 15
  23554985.126    -5967557.713 3  -4650023.176 3
  23368553.186     4223317.900 4   3290913.600 3
  26039330.449    26568001.643 2  20702326.109 1
  25409124.132    -6526161.687 2  -5085306.478 1
  26568522.297     -305068.313 2   -237710.451 1
 91  4 29 22 37  0.0080000  0  5 06 02 19 13 15
  23555027.391    -5967335.914 3  -4649850.345 3
  23373076.753     4247088.793 4   3309436.365 4
  26050561.871    26626981.357 2  20748284.268 1
  25402147.658    -6562858.355 2  -5113901.193 1
  26569406.682     -300453.634 2   -234114.577 1
 91  4 29 22 37 15.0080000  0  5 06 02 19 13 15
  23555080.753    -5967049.779 3  -4649627.373 3
  23377610.521     4270916.799 4   3328003.639 4
  26061796.295    26686020.206 2  20794288.503 1
  25395173.285    -6599483.928 2  -5142440.581 1
  26570294.672     -295717.705 2   -230424.241 1
 91  4 29 22 37 30.0080000  0  5 06 02 19 13 15
  23555149.106    -5966701.358 3  -4649355.867 3
  23382153.868     4294799.929 4   3346613.865 3
  26073049.906    26745116.217 2  20840337.286 1
  25388218.702    -6636039.895 2  -5170925.675 1
  26571216.532     -290862.001 2   -226640.551 1
 91  4 29 22 37 45.0080000  0  5 06 02 19 13 15
  23555225.555    -5966291.690 3  -4649036.645 3
  23386709.518     4318736.683 4   3365265.876 4
  26084290.620    26804267.996 2  20886429.536 1
  25381273.410    -6672527.489 2  -5199357.462 1
  26572165.972     -285887.583 2   -222764.352 1
 91  4 29 22 38  0.0080000  0  5 06 02 19 13 15
  23555313.400    -5965823.466 3  -4648671.795 3
  23391275.961     4342724.058 4   3383957.333 3
  26095565.215    26863472.423 2  20932562.800 1
  25374345.508    -6708949.026 2  -5227737.868 1
  26573141.500     -280797.324 2   -218797.871 1
 91  4 29 22 38 15.0080000  0  5 06 02 19 13 15
  23555416.522    -5965296.674 3  -4648261.306 3
  23395848.694     4366761.924 4   3402688.136 3
  26106840.115    26922729.375 2  20978736.968 1
  25367418.505    -6745304.258 2  -5256066.592 1
  26574123.616     -275591.095 2   -214741.042 1
 91  4 29 22 38 30.0080000  0  5 06 02 19 13 15
  23555527.147    -5964710.112 3  -4647804.238 3
  23400431.916     4390850.943 4   3421458.797 3
  26118128.791    26982039.764 2  21024952.827 1
  25360517.877    -6781592.134 2  -5284342.748 1
  26575147.411     -270267.658 2   -210592.924 1
 91  4 29 22 38 45.0080000  0  5 06 02 19 13 15
  23555648.566    -5964065.172 3  -4647301.688 3
  23405026.235     4414989.506 4   3440268.064 3
  26129420.775    27041401.566 2  21071208.721 1
  25353622.956    -6817813.727 2  -5312567.351 1
  26576190.088     -264828.561 2   -206354.687 1
 91  4 29 22 39  0.0080000  0  5 06 02 19 13 15
  23555779.870    -5963364.656 3  -4646755.824 3
  23409629.847     4439174.707 4   3459113.669 3
  26140740.339    27100811.976 2  21117502.463 1
  25346742.414    -6853971.683 2  -5340742.285 1
  26577245.355     -259276.405 2   -202028.308 1
 91  4 29 22 39 15.0080000  0  5 06 02 19 13 15
  23555927.071    -5962608.569 3  -4646166.661 3
  23414239.758     4463406.123 4   3477995.285 3
  26152033.221    27160270.631 2  21163833.849 1
  25339878.370    -6890065.892 2  -5368867.581 1
  26578319.215     -253611.493 2   -197614.067 1
 91  4 29 22 39 30.0090000  0  5 06 02 19 13 15
  23556081.762    -5961794.732 3  -4645532.501 3
  23418858.363     4487686.983 4   3496915.433 3
  26163372.576    27219783.122 2  21210207.161 1
  25333021.215    -6926096.669 2  -5396943.467 1
  26579411.052     -247831.217 2   -193109.914 1
 91  4 29 22 39 45.0090000  0  5 06 02 19 13 15
  23556246.353    -5960926.803 3  -4644856.183 3
  23423488.952     4512010.456 4   3515868.782 3
  26174693.335    27279337.777 2  21256613.301 1
  25326180.851    -6962062.372 2  -5424968.653 1
  26580535.876     -241939.799 2   -188519.209 1
 91  4 29 22 40  0.0090000  0  5 06 02 19 13 15
  23556419.633    -5960002.127 3  -4644135.652 3
  23428127.046     4536380.301 4   3534858.267 4
  26186040.182    27338940.883 2  21303057.261 1
  25319345.880    -6997962.924 2  -5452943.008 1
  26581680.785     -235934.418 2   -183839.681 1
 91  4 29 22 40 15.0090000  0  5 06 02 19 13 15
  23556607.302    -5959019.108 3  -4643369.661 3
  23432772.931     4560797.887 4   3553884.958 3
  26197397.220    27398593.636 2  21349539.889 1
  25312528.002    -7033796.496 2  -5480865.241 1
  26582840.081     -229813.631 2   -179070.225 1
 91  4 29 22 40 30.0090000  0  5 06 02 19 13 15
  23556809.061    -5957975.644 3  -4642556.566 3
  23437429.905     4585265.045 4   3572950.269 3
  26208758.158    27458297.740 2  21396062.519 1
  25305726.011    -7069560.704 2  -5508733.408 1
  26584029.959     -223575.406 2   -174209.270 1
 91  4 29 22 40 45.0090000  0  5 06 02 19 13 15
  23557019.511    -5956871.479 3  -4641696.177 3
  23442093.179     4609781.733 4   3592054.179 3
  26220124.183    27518053.229 2  21442625.161 1
  25298933.916    -7105255.169 2  -5536547.174 1
  26585242.619     -217218.935 2   -169256.145 1
 91  4 29 22 41  0.0090000  0  5 06 02 19 13 15
  23557238.965    -5955707.027 3  -4640788.808 3
  23446769.044     4634347.041 4   3611195.963 3
  26231510.607    27577859.396 2  21489227.303 1
  25292147.212    -7140880.402 2  -5564307.093 1
  26586462.476     -210745.006 2   -164211.533 1
 91  4 29 22 41 15.0090000  0  5 06 02 19 13 15
  23557471.602    -5954484.712 3  -4639836.356 3
  23451452.098     4658958.436 4   3630373.672 3
  26242899.422    27637713.518 2  21535866.870 1
  25285382.094    -7176438.489 2  -5592014.621 1
  26587723.699     -204156.038 2   -159077.279 1
 91  4 29 22 41 30.0090000  0  5 06 02 19 13 15
  23557714.134    -5953202.771 3  -4638837.434 3
  23456146.546     4683617.358 4   3649588.416 3
  26254297.826    27697617.084 2  21582544.901 1
  25278624.471    -7211927.536 2  -5619668.365 1
  26588999.616     -197450.254 2   -153851.915 1
 91  4 29 22 41 45.0090000  0  5 06 02 19 13 15
  23557970.757    -5951862.716 3  -4637793.227 3
  23460845.192     4708321.971 4   3668838.758 4
  26265704.335    27757567.993 2  21629259.828 1
  25271884.839    -7247349.113 2  -5647269.531 1
  26590298.618     -190629.131 2   -148536.796 1
 91  4 29 22 42  0.0090000  0  5 06 02 19 13 15
  23558238.173    -5950464.874 3  -4636703.998 3
  23465554.037     4733071.917 4   3688124.425 3
  26277117.432    27817565.897 2  21676011.383 1
  25265158.094    -7282703.179 2  -5674818.086 1
  26591621.005     -183692.791 2   -143131.853 1
 91  4 29 22 42 15.0090000  0  5 06 02 19 13 15
  23558516.382    -5949004.973 3  -4635566.410 3
  23470274.269     4757870.944 4   3707448.340 3
  26288545.518    27877614.568 2  21722802.518 1
  25258443.346    -7317985.493 2  -5702310.757 1
  26592957.779     -176637.319 2   -137634.064 1
 91  4 29 22 42 30.0090000  0  5 06 02 19 13 15
  23558804.476    -5947484.219 3  -4634381.413 3
  23475002.894     4782717.644 4   3726809.397 3
  26299992.791    27937712.586 2  21769632.080 1
  25251735.186    -7353196.966 2  -5729748.184 1
  26594320.335     -169463.799 2   -132044.298 1
 91  4 29 22 42 45.0090000  0  5 06 02 19 13 15
  23559105.771    -5945900.099 3  -4633147.022 3
  23479741.413     4807614.072 4   3746209.209 3
  26311429.280    27997862.148 2  21816501.843 1
  25245063.305    -7388334.824 2  -5757128.304 1
  26595715.271     -162169.888 2   -126360.738 1
 91  4 29 22 43  0.0090000  0  5 06 02 19 13 15
  23559418.750    -5944254.679 3  -4631864.868 3
  23484487.428     4832557.768 4   3765645.847 3
  26322892.738    28058060.732 2  21863409.741 1
  25238380.936    -7423401.368 2  -5784452.871 1
  26597121.898     -154757.663 2   -120584.961 1
 91  4 29 22 43 15.0090000  0  5 06 02 19 13 15
  23559744.327    -5942543.052 3  -4630531.138 3
  23489241.233     4857553.524 4   3785123.055 3
  26334347.209    28118313.106 2  21910359.615 1
  25231730.335    -7458391.574 2  -5811717.925 1
  26598558.801     -147222.084 2   -114713.065 1
 91  4 29 22 43 30.0090000  0  5 06 02 19 13 15
  23560082.198    -5940764.707 3  -4629145.407 3
  23494009.732     4882601.470 4   3804640.935 3
  26345825.666    28178619.296 2  21957351.416 1
  25225083.940    -7493304.465 2  -5838922.654 1
  26600021.191     -139562.625 2   -108744.650 1
 91  4 29 22 43 45.0090000  0  5 06 02 19 13 15
  23560433.253    -5938917.169 3  -4627705.764 3
  23498785.726     4907703.858 4   3824201.232 3
  26357323.300    28238981.525 2  22004386.863 1
  25218455.824    -7528137.563 2  -5866065.268 1
  26601500.960     -131776.956 2   -102677.880 1
 91  4 29 22 44  0.0090000  0  5 06 02 19 13 15
  23560798.399    -5937004.697 3  -4626215.519 3
  23503572.216     4932856.181 4   3843800.433 3
  26368809.252    28299395.119 2  22051462.305 1
  25211840.010    -7562895.066 2  -5893149.044 1
  26603003.520     -123869.595 2    -96516.301 1
 91  4 29 22 44 15.0090000  0  5 06 02 19 13 15
  23561175.542    -5935025.657 3  -4624673.409 3
  23508370.092     4958059.757 4   3863439.573 3
  26380312.592    28359861.472 2  22098578.887 1
  25205239.779    -7597575.125 2  -5920172.380 1
  26604533.066     -115838.667 2    -90258.426 1
 91  4 29 22 44 30.0090000  0  5 06 02 19 13 15
  23561565.868    -5932979.968 3  -4623079.370 3
  23513174.268     4983314.287 4   3883118.427 3
  26391834.509    28420380.163 2  22145736.287 1
  25198656.929    -7632177.582 2  -5947135.293 1
  26606083.588     -107684.068 2    -83904.205 1
 91  4 29 22 44 45.0090000  0  5 06 02 19 13 15
  23561967.886    -5930864.139 3  -4621430.662 3
  23517990.738     5008623.229 4   3902839.675 3
  26403359.139    28480954.534 2  22192937.012 1
  25192087.881    -7666698.787 2  -5974034.893 1
  26607666.497      -99402.340 2    -77450.885 1
 91  4 29 22 45  0.0090000  0  5 06 02 19 13 15
  23562381.901    -5928681.264 3  -4619729.714 3
  23522817.695     5033982.809 4   3922600.382 3
  26414891.848    28541580.877 2  22240178.257 1
  25185535.316    -7701141.772 2  -6000873.536 1
  26609263.489      -90997.093 2    -70901.376 1
 91  4 29 22 45 15.0090000  0  5 06 02 19 13 15
  23562810.906    -5926429.152 3  -4617974.823 3
  23527654.843     5059394.957 4   3942402.042 3
  26426432.663    28602261.158 2  22287461.563 1
  25178988.151    -7735504.312 2  -6027649.499 1
  26610882.668      -82465.946 2    -64253.690 1
 91  4 29 22 45 30.0090000  0  5 06 02 19 13 15
  23563252.798    -5924103.299 3  -4616162.464 3
  23532499.791     5084864.113 4   3962248.139 3
  26437999.854    28662999.826 2  22334790.307 1
  25172466.761    -7769781.528 2  -6054358.970 1
  26612529.131      -73804.137 2    -57504.203 1
 91  4 29 22 45 45.0090000  0  5 06 02 19 13 15
  23563708.188    -5921704.540 3  -4614293.293 3
  23537355.829     5110389.025 4   3982137.676 3
  26449571.844    28723795.448 2  22382163.493 1
  25165965.464    -7803974.280 2  -6081002.630 1
  26614207.964      -65012.553 2    -50653.606 1
 91  4 29 22 46  0.0090000  0  5 06 02 19 13 15
  23564180.661    -5919232.363 3  -4612366.921 3
  23542224.457     5135969.841 4   4002070.775 3
  26461145.334    28784648.169 2  22429581.136 1
  25159468.661    -7838081.980 2  -6107580.012 1
  26615906.595      -56090.772 2    -43701.575 1
 91  4 29 22 46 15.0090000  0  5 06 02 19 13 15
  23564663.622    -5916687.794 3  -4610384.139 3
  23547102.081     5161605.244 4   4022046.401 3
  26472744.302    28845556.660 2  22477042.248 1
  25153002.735    -7872105.484 2  -6134091.766 1
  26617618.706      -47040.120 2    -36649.111 1
 91  4 29 22 46 30.0090000  0  5 06 02 19 13 15
  23565161.276    -5914072.846 3  -4608346.509 3
  23551992.295     5187292.836 4   4042062.698 3
  26484334.579    28906518.544 2  22524544.941 1
  25146540.108    -7906046.921 2  -6160539.637 1
  26619376.091      -37862.691 2    -29497.844 1
 91  4 29 22 46 45.0090000  0  5 06 02 19 13 15
  23565673.327    -5911386.965 3  -4606253.616 3
  23556890.606     5213033.104 4   4062120.050 3
  26495950.038    28967534.289 2  22572089.651 1
  25140096.677    -7939905.396 2  -6186922.765 1
  26621141.564      -28557.708 2    -22247.212 1
 91  4 29 22 47  0.0090000  0  5 06 02 19 13 15
  23566198.857    -5908630.470 3  -4604105.684 3
  23561797.607     5238825.303 4   4082217.857 3
  26507568.489    29028602.970 2  22619675.540 1
  25133669.124    -7973681.046 2  -6213241.401 1
  26622935.822      -19125.710 2    -14897.544 1
 91  4 29 22 47 15.0090000  0  5 06 02 19 13 15
  23566736.089    -5905807.187 3  -4601905.728 3
  23566713.307     5264665.457 4   4102353.031 3
  26519201.336    29089720.437 2  22667299.467
  25127254.765    -8007377.476 2  -6239498.316 1
  26624757.066       -9570.552 2     -7452.016 1
 91  4 29 22 47 30.0090000  0  5 06 02 19 13 15
  23567286.809    -5902916.261 3  -4599653.053 3
  23571641.894     5290553.900 4   4122525.833 3
  26530844.078    29150887.294 2  22714961.914 1
  25120861.685    -8040993.688 2  -6265692.681 1
  26626590.892         108.706 2        90.282 1
 91  4 29 22 47 45.0090000  0  5 06 02 19 13 15
  23567851.314    -5899955.556 3  -4597346.007 3
  23576576.772     5316492.599 4   4142737.803 3
  26542499.706    29212105.398 2  22762664.261 1
  25114477.610    -8074527.633 2  -6291823.011 1
  26628465.499        9914.197 2      7730.913 1
 91  4 29 22 48  0.0090000  0  5 06 02 19 13 15
  23568425.121    -5896925.379 3  -4594984.826 3
  23581521.850     5342480.834 4   4162988.364 4
  26554154.140    29273373.961 2  22810405.962 1
  25108118.114    -8107979.490 2  -6317889.363 1
  26630356.291       19845.123 2     15469.319 1
 91  4 29 22 48 15.0090000  0  5 06 02 19 13 15
  23569015.706    -5893826.127 3  -4592569.824 3
  23586477.118     5368518.113 4   4183277.150 3
  26565828.361    29334692.409 2  22858186.478 1
  25101758.016    -8141349.433 2  -6343891.843 1
  26632269.865       29901.350 2     23305.327 1
 91  4 29 22 48 30.0090000  0  5 06 02 19 13 15
  23569618.891    -5890659.307 3  -4590102.170 3
  23591440.484     5394602.483 4   4203602.632 3
  26577510.375    29396058.897 2  22906004.484 1
  25095430.899    -8174638.966 2  -6369831.665 1
  26634199.929       40081.298 2     31237.787 1
 91  4 29 22 48 45.0090000  0  5 06 02 19 13 15
  23570231.673    -5887425.381 3  -4587582.215 3
  23596414.346     5420733.367 4   4223964.355 3
  26589180.094    29457472.566 2  22953859.230 1
  25089107.070    -8207848.457 2  -6395709.170 1
  26636168.069       50384.609 2     39266.326 1
 91  4 29 22 49  0.0090000  0  5 06 02 19 13 15
  23570861.233    -5884126.225 3  -4585011.447 3
  23601396.296     5446908.319 4   4244360.414 3
  26600894.487    29518931.161 2  23001748.956 1
  25082804.235    -8240979.588 2  -6421525.570 1
  26638155.692       60809.250 2     47389.463 1
 91  4 29 22 49 15.0090000  0  5 06 02 19 13 15
  23571500.687    -5880756.887 3  -4582385.983 3
  23606385.444     5473132.068 4   4264794.500 3
  26612586.691    29580439.233 2  23049677.269 1
  25076518.187    -8274027.236 2  -6447276.960 1
  26640161.298       71359.883 2     55610.783 1
 91  4 29 22 49 30.0090000  0  5 06 02 19 13 15
  23572157.531    -5877321.174 3  -4579708.804 3
  23611383.579     5499400.794 4   4285263.637 3
  26624304.678    29641992.836 2  23097641.068 1
  25070241.431    -8306994.898 2  -6472965.974 1
  26642183.700       82032.887 2     63927.355 1
 91  4 29 22 49 45.0090000  0  5 06 02 19 13 15
  23572821.878    -5873818.634 3  -4576979.550 3
  23616390.413     5525714.414 4   4305767.754 3
  26636017.866    29703591.980 2  23145640.312 1
  25063983.564    -8339882.396 2  -6498592.569 1
  26644235.776       92828.417 2     72339.490 1
 91  4 29 22 50  0.0090000  0  5 06 02 19 13 15
  23573503.004    -5870249.321 3  -4574198.256 3
  23621405.640     5552072.601 4   4326306.589 3
  26647761.941    29765236.105 2  23193674.642 1
  25057742.485    -8372689.722 2  -6524156.688 1
  26646319.934      103746.467 2     80847.069 1
 91  4 29 22 50 15.0090000  0  5 06 02 19 13 15
  23574190.429    -5866613.027 3  -4571364.783 3
  23626430.762     5578475.392 4   4346880.184 3
  26659489.517    29826925.245 2  23241744.045 1
  25051515.497    -8405416.322 2  -6549657.877 1
  26648412.189      114787.407 2     89450.382 1
 91  4 29 22 50 30.0090000  0  5 06 02 19 13 15
  23574898.236    -5862908.383 3  -4568478.050 3
  23631465.778     5604923.635 4   4367489.202 3
  26671250.676    29888660.300 2  23289849.233 1
  25045297.505    -8438060.660 2  -6575095.004 1
  26650542.511      125952.417 2     98150.449 1
 91  4 29 22 50 45.0090000  0  5 06 02 19 13 15
  23575614.742    -5859134.341 3  -4565537.236 3
  23636506.186     5631418.122 4   4388134.250 3
  26682989.952    29950442.067 2  23337990.827 1
  25039103.192    -8470621.755 2  -6600467.251 1
  26652687.832      137242.320 2    106947.766 1
 91  4 29 22 51  0.0090000  0  5 06 02 19 13 15
  23576348.934    -5855288.552 3  -4562540.516 3
  23641557.387     5657960.873 4   4408816.906 3
  26694769.093    30012272.535 2  23386170.322 1
  25032922.072    -8503097.219 2  -6625772.737 1
  26654859.826      148659.377 2    115844.186 1
 91  4 29 22 51 15.0090000  0  5 06 02 19 13 15
  23577093.316    -5851373.207 3  -4559489.596 3
  23646614.888     5684549.449 4   4429535.268 3
  26706532.948    30074149.017 2  23434385.701 1
  25026761.936    -8535488.993 2  -6651013.058 1
  26657069.591      160201.252 2    124837.813 1
 91  4 29 22 51 30.0090000  0  5 06 02 19 13 15
  23577853.587    -5847382.336 3  -4556379.819 3
  23651688.277     5711189.478 4   4450293.728 3
  26718324.392    30136077.167 2  23482641.341 1
  25020615.891    -8567791.045 2  -6676183.424 1
  26659279.661      171873.858 2    133933.379 1
 91  4 29 22 51 45.0090000  0  5 06 02 19 13 15
  23578626.754    -5843314.523 3  -4553210.093 3
  23656764.659     5737882.301 4   4471093.324 3
  26730122.423    30198058.445 2  23530938.351 1
  25014486.633    -8600001.669 2  -6701282.544 1
  26661527.205      183678.955 2    143132.173 1
 91  4 29 22 52  0.0090000  0  5 06 02 19 13 15
  23579414.911    -5839168.174 3  -4549979.166 3
  23661855.437     5764628.946 4   4491934.856 3
  26741922.854    30260093.845 2  23579277.564 1
  25008372.068    -8632119.089 2  -6726309.063 1
  26663808.333      195617.763 2    152435.097 1
 91  4 29 22 52 15.0090000  0  5 06 02 19 13 15
  23580221.948    -5834944.237 3  -4546687.782 3
  23666954.312     5791428.481 4   4512817.597 3
  26753738.876    30322181.995 2  23627657.917 1
  25002278.783    -8664144.271 2  -6751263.739 1
  26666098.141      207689.304 2    161841.540 1
 91  4 29 22 52 30.0090000  0  5 06 02 19 13 15
  23581040.390    -5830638.463 3  -4543332.644 3
  23672064.870     5818284.817 4   4533744.608 3
  26765563.885    30384326.850 2  23676082.402 1
  24996204.685    -8696073.055 2  -6776143.231 1
  26668419.439      219897.924 2    171354.722 1
 91  4 29 22 52 45.0090000  0  4 06 02 13 15
  23581872.311    -5826250.013 3  -4539913.059 3
  23677188.027     5845198.331 4   4554716.171 3
  24990146.484    -8727904.347 2  -6800946.838 1
  26670765.010      232244.030 2    180975.098 1
 91  4 29 22 53  0.0090000  0  4 06 02 13 15
  23582728.515    -5821778.804 3  -4536429.003 3
  23682320.171     5872168.771 4   4575732.089 3
  24984105.062    -8759638.053 2  -6825674.351 1
  26673147.462      244727.408 2    190702.410 1
 91  4 29 22 53 15.0090000  0  4 06 02 13 15
  23583588.619    -5817220.372 3  -4532876.975 3
  23687462.811     5899200.403 4   4596795.685 3
  24978089.431    -8791269.408 2  -6850322.109 1
  26675545.201      257352.947 2    200540.474 1
 91  4 29 22 53 30.0090000  0  4 06 02 13 15
  23584479.007    -5812575.966 3  -4529257.958 3
  23692618.338     5926291.469 4   4617905.607 3
  24972085.186    -8822799.593 2  -6874891.055 1
  26677973.224      270119.259 2    210488.240 1
 91  4 29 22 53 45.0090000  0  4 06 02 13 15
  23585378.383    -5807844.498 3  -4525571.101 3
  23697783.769     5953443.278 4   4639062.865 3
  24966108.521    -8854227.528 2  -6899380.296 1
  26680431.820      283027.218 2    220546.420 1
 91  4 29 22 54  0.0090000  0  4 06 02 13 15
  23586295.148    -5803020.664 3  -4521812.265 3
  23702964.782     5980660.440 4   4660271.027 3
  24960145.049    -8885548.018 2  -6923785.826 1
  26682920.998      296081.971 2    230718.941 1
 91  4 29 22 54 15.0090000  0  4 06 02 13 15
  23587229.598    -5798110.085 3  -4517985.838 3
  23708153.883     6007937.243 4   4681525.670 3
  24954202.561    -8916766.487 2  -6948111.878 1
  26685429.065      309277.971 2    241001.509 1
 91  4 29 22 54 30.0090000  0  4 06 02 13 15
  23588181.141    -5793110.473 3  -4514090.037 3
  23713357.983     6035275.370 4   4702828.096 3
  24948284.965    -8947880.421 2  -6972356.455 1
  26687970.105      322617.350 2    251395.895 1
 91  4 29 22 54 45.0090000  0  4 06 02 13 15
  23589150.972    -5788020.099 3  -4510123.516 3
  23718571.079     6062676.415 4   4724179.563 3
  24942384.750    -8978887.914 2  -6996518.103 1
  26690534.528      336101.854 2    261903.320 1
 91  4 29 22 55  0.0090000  0  4 06 02 13 15
  23590134.291    -5782840.623 3  -4506087.555 3
  23723798.257     6090138.495 4   4745578.570 3
  24936504.620    -9009790.456 2  -7020597.989 1
  26693127.133      349729.513 2    272522.251 1
 91  4 29 22 55 15.0090000  0  4 06 02 13 15
  23591138.892    -5777571.226 3  -4501981.529 3
  23729034.735     6117662.090 4   4767025.520 4
  24930641.277    -9040587.410 2  -7044595.539 1
  26695741.324      363501.105 2    283253.368 1
 91  4 29 22 55 30.0090000  0  4 06 02 13 15
  23592158.185    -5772211.486 3  -4497805.101 3
  23734284.101     6145247.513 4   4788520.647 3
  24924805.819    -9071278.217 2  -7068510.453 1
  26698390.886      377417.053 2    294096.979 1
 91  4 29 22 55 45.0090000  0  4 06 02 13 15
  23593198.768    -5766759.863 3  -4493557.089 3
  23739548.151     6172895.761 4   4810064.732 3
  24918982.350    -9101861.123 2  -7092341.231 1
  26701065.935      391478.527 2    305053.942 1
 91  4 29 22 56  0.0090000  0  4 06 02 13 15
  23594251.635    -5761215.405 3  -4489236.724 3
  23744818.806     6200607.745 4   4831658.479 3
  24913184.663    -9132335.089 2  -7116087.148 1
  26703776.058      405686.717 2    316125.306 1
 91  4 29 22 56 15.0090000  0  4 06 02 13 15
  23595323.096    -5755578.483 3  -4484844.314 3
  23750104.748     6228382.595 4   4853301.211 3
  24907406.757    -9162700.398 2  -7139748.361 1
  26706505.368      420040.946 2    327310.437 1
 91  4 29 22 56 30.0090000  0  4 06 02 13 15
  23596414.346    -5749852.623 3  -4480382.603 3
  23755399.676     6256216.489 4   4874989.952 3
  24901649.843    -9192960.590 2  -7163327.707 1
  26709267.363      434537.818 2    338606.686 1
 91  4 29 22 56 45.0090000  0  4 06 02 13 15
  23597519.381    -5744036.127 3  -4475850.271 3
  23760708.704     6284110.781 4   4896725.755 3
  24895910.623    -9223113.757 2  -7186823.636 1
  26712056.029      449178.792 2    350015.203 1
 91  4 29 22 57  0.0090000  0  4 06 02 13 15
  23598644.798    -5738129.514 3  -4471247.724 3
  23766028.822     6312064.752 4   4918508.065 3
  24890191.183    -9253160.325 2  -7210236.511 1
  26714865.986      463963.075 2    361535.451 1
 91  4 29 22 57 15.0090000  0  4 06 02 13 15
  23599785.213    -5732137.004 3  -4466578.224 3
  23771358.834     6340074.024 4   4940333.455 3
  24884494.220    -9283104.471 2  -7233569.563 1
  26717709.516      478886.504 2    373164.103 1
 91  4 29 22 57 30.0090000  0  4 06 02 13 15
  23600942.703    -5726057.032 3  -4461840.581 3
  23776699.333     6368139.774 4   4962202.870 3
  24878815.858    -9312944.615 2  -7256821.597 1
  26720568.638      493950.525 2    384902.303 1
 91  4 29 22 57 45.0090000  0  4 06 02 13 15
  23602116.091    -5719887.757 3  -4457033.356 3
  23782049.134     6396263.641 4   4984117.565 3
  24873156.673    -9342678.489 2  -7279990.818 1
  26723467.931      509156.899 2    396751.442 1
 91  4 29 22 58  0.0090000  0  4 06 02 13 15
  23603302.671    -5713635.024 3  -4452161.100 3
  23787413.313     6424439.440 4   5006072.724 3
  24867516.379    -9372312.043 2  -7303081.863 1
  26726381.315      524499.468 2    408706.681 1
 91  4 29 22 58 15.0090000  0  4 06 02 13 15
  23604510.837    -5707295.815 3  -4447221.454 3
  23792785.302     6452669.894 4   5028070.470 3
  24861901.266    -9401842.077 2  -7326092.250 2
  26729333.071      539981.354 2    420770.408 1
 91  4 29 22 58 30.0090000  0  4 06 02 13 15
  23605734.594    -5700870.492 3  -4442214.704 3
  23798165.972     6480954.211 4   5050110.196 3
  24856297.844    -9431269.123 2  -7349022.355 1
  26732310.611      555601.919 2    432942.408 1
 91  4 29 22 58 45.0090000  0  4 06 02 13 15
  23606973.629    -5694356.751 3  -4437139.060 3
  23803558.935     6509294.570 4   5072193.584 3
  24850717.805    -9460590.532 3  -7371870.183 1
  26735302.538      571363.614 2    445224.217 1
 91  4 29 22 59  0.0090000  0  4 06 02 13 15
  23608228.265    -5687757.081 3  -4431996.453 3
  23808963.599     6537688.144 4   5094318.442 3
  24845158.750    -9489808.916 3  -7394637.717 1
  26738332.838      587263.761 2    457613.918 1
 91  4 29 22 59 15.0090000  0  4 06 02 13 15
  23609502.977    -5681069.438 3  -4426785.297 3
  23814376.648     6566136.743 4   5116486.167 3
  24839617.992    -9518922.203 2  -7417323.355 1
  26741385.021      603304.024 2    470112.878 1
 91  4 29 22 59 30.0090000  0  4 06 02 13 15
  23610791.187    -5674294.032 3  -4421505.756 3
  23819803.491     6594639.751 4   5138696.293 3
  24834103.008    -9547930.271 2  -7439927.019 1
  26744462.698      619484.043 2    482720.701 1
 91  4 29 22 59 45.0090000  0  4 06 02 13 15
  23612096.490    -5667428.757 3  -4416156.193 3
  23825235.735     6623198.983 4   5160950.237 3
  24828598.816    -9576830.857 2  -7462446.909 1
  26747564.649      635806.032 2    495439.129 1
 91  4 29 23  0  0.0090000  0  4 06 02 13 15
  23613421.267    -5660476.569 3  -4410738.908 3
  23830680.866     6651811.371 4   5183245.594 3
  24823118.610    -9605626.917 2  -7484885.362 1
  26750700.174      652266.927 2    508265.782 1
 91  4 29 23  0 15.0090000  0  4 06 02 13 15
  23614759.541    -5653438.096 3  -4405254.382 3
  23836135.586     6680475.923 4   5205581.595 3
  24817660.592    -9634319.133 2  -7507242.894 1
  26753851.892      668865.703 2    521199.946 1
 91  4 29 23  0 30.0090000  0  4 06 02 13 15
  23616115.807    -5646312.123 3  -4399701.671 3
  23841599.607     6709193.572 4   5227958.978 3
  24812218.759    -9662905.958 2  -7529518.329 1
  26757038.686      685603.612 2    534242.478 1
 91  4 29 23  0 45.0100000  0  4 06 02 13 15
  23617487.956    -5639097.467 3  -4394079.862 3
  23847075.916     6737966.723 4   5250379.609 3
  24806797.311    -9691388.579 2  -7551712.507 1
  26760251.562      702482.417 2    547394.809 1
 91  4 29 23  1  0.0100000  0  4 06 02 13 15
  23618877.194    -5631795.706 3  -4388390.202 3
  23852561.514     6766790.586 4   5272839.758 3
  24801401.948    -9719764.033 2  -7573823.233 1
  26763498.315      719499.049 2    560654.490 1
 91  4 29 23  1 15.0100000  0  4 06 02 13 15
  23620283.821    -5624402.796 3  -4382629.468 3
  23858056.710     6795670.447 4   5295343.534 3
  24796019.769    -9748030.160 2  -7595848.751 1
  26766763.355      736658.177 2    574025.211 1
 91  4 29 23  1 30.0100000  0  4 06 02 13 15
  23621709.635    -5616919.549 3  -4376798.367 3
  23863562.097     6824605.164 4   5317890.052 3
  24790664.882    -9776187.974 3  -7617789.872 1
  26770050.880      753958.855 2    587506.308 1
 91  4 29 23  1 45.0100000  0  4 06 02 13 15
  23623149.836    -5609344.175 3  -4370895.484 3
  23869077.683     6853595.985 4   5340480.297 3
  24785326.773    -9804235.546 3  -7639645.076 1
  26773366.282      771402.720 2    601098.962 1
 91  4 29 23  2  0.0100000  0  4 06 02 13 15
  23624608.927    -5601678.760 3  -4364922.421 3
  23874605.258     6882640.746 4   5363112.576 3
  24780009.657    -9832174.676 3  -7661415.799 2
  26776711.969      788987.576 2    614801.426 1
 91  4 29 23  2 15.0100000  0  4 06 02 13 15
  23626086.298    -5593921.084 3  -4358877.477 3
  23880142.421     6911741.347 4   5385788.356 3
  24774713.219    -9860003.373 3  -7683100.453 1
  26780087.931      806715.343 2    628615.295 1
 91  4 29 23  2 30.0100000  0  4 06 02 13 15
  23627580.167    -5586067.611 3  -4352757.883 3
  23885692.184     6940901.127 4   5408510.257 3
  24769438.978    -9887717.832 3  -7704696.107 1
  26783492.373      824589.472 2    642543.215 1
 91  4 29 23  2 45.0100000  0  4 06 02 13 15
  23629094.122    -5578121.147 3  -4346565.829 3
  23891251.832     6970116.785 4   5431275.699 3
  24764186.907    -9915321.059 3  -7726205.072 1
  26786911.804      842606.942 2    656582.779 1
 91  4 29 23  3  0.0100000  0  4 06 02 13 15
  23630622.761    -5570077.799 3  -4340298.282 3
  23896824.070     6999392.261 4   5454087.753 3
  24758952.235    -9942808.770 3  -7747624.056 1
  26790374.111      860771.621 2    670737.133 1
 91  4 29 23  3 15.0100000  0  4 06 02 13 15
  23632172.087    -5561938.671 3  -4333956.097 3
  23902405.008     7028726.083 4   5476945.267 3
  24753746.337    -9970181.990 3  -7768953.791 1
  26793854.399      879082.301 2    685005.166 1
 91  4 29 23  3 30.0100000  0  4 06 02 13 15
  23633739.405    -5553704.850 3  -4327540.127 3
  23907997.637     7058116.771 4   5499847.093 3
  24748558.728    -9997442.003 3  -7790195.322 1
  26797367.067      897537.562 2    699385.918 1
 91  4 29 23  3 45.0100000  0  4 06 02 13 15
  23635322.907    -5545376.457 3  -4321050.469 3
  23913601.355     7087563.808 4   5522792.824 3
  24743394.807   -10024588.502 3  -7811348.409 1
  26800911.215      916137.392 2    713879.324 1
 91  4 29 23  4  0.0100000  0  4 06 02 13 15
  23636924.401    -5536952.014 3  -4314485.973 3
  23919217.673     7117068.532 4   5545783.522 3
  24738249.768   -10051620.143 3  -7832411.976 1
  26804476.347      934883.157 2    728486.404 1
 91  4 29 23  4 15.0100000  0  4 06 02 13 15
  23638547.777    -5528433.725 3  -4307848.339 3
  23924842.672     7146628.439 4   5568817.209 3
  24733126.916   -10078539.090 3  -7853387.748 1
  26808071.162      953772.325 2    743205.239 1
 91  4 29 23  4 30.0100000  0  4 06 02 13 15
  23640186.440    -5519820.906 3  -4301137.048 3
  23930476.972     7176243.988 4   5591894.248 3
  24728026.243   -10105344.514 3  -7874275.055 1
  26811693.251      972805.423 2    758036.205 1
 91  4 29 23  4 45.0100000  0  4 06 02 13 15
  23641843.391    -5511110.365 3  -4294349.605 3
  23936123.566     7205918.140 4   5615016.954 3
  24722949.556   -10132033.371 3  -7895071.539 1
  26815343.828      991985.437 2    772981.690 1
 91  4 29 23  5  0.0100000  0  4 06 02 13 15
  23643520.435    -5502306.869 3  -4287489.757 3
  23941780.351     7235645.938 4   5638181.473 3
  24717890.564   -10158610.092 3  -7915780.652 1
  26819024.375     1011307.494 2    788037.812 1
 91  4 29 23  5 15.0100000  0  4 06 02 13 15
  23645212.757    -5493407.801 3  -4280555.395 3
  23947449.124     7265429.549 4   5661389.470 3
  24712855.242   -10185071.868 3  -7936400.158 1
  26822726.212     1030774.389 2    803206.856 1
 91  4 29 23  5 30.0100000  0  4 06 02 13 15
  23646925.775    -5484411.670 3  -4273545.422 3
  23953125.400     7295269.966 4   5684641.726 3
  24707839.421   -10211417.446 3  -7956929.159 1
  26826455.333     1050386.988 2    818489.448 1
 91  4 29 23  5 45.0100000  0  4 06 02 13 15
  23648655.275    -5475319.397 3  -4266460.536 3
  23958816.353     7325166.301 4   5707937.573 3
  24702850.570   -10237647.295 3  -7977367.981 1
  26830213.830     1070144.539 2    833884.933 1
 91  4 29 23  6  0.0100000  0  4 06 02 13 15
  23650403.063    -5466132.070 3  -4259301.578 3
  23964516.615     7355117.101 4   5731275.857 3
  24697880.312   -10263762.786 3  -7997717.675 1
  26834005.309     1090045.596 2    849392.273 1
 91  4 29 23  6 15.0100000  0  4 06 02 13 15
  23652169.147    -5456849.733 3  -4252068.587 3
  23970224.956     7385122.247 4   5754656.480 3
  24692931.343   -10289763.582 3  -8017977.998 1
  26837817.466     1110090.181 2    865011.456 1
 91  4 29 23  6 30.0100000  0  4 06 02 13 15
  23653955.308    -5447473.226 3  -4244762.213 3
  23975944.099     7415180.563 4   5778078.540 3
  24688006.045   -10315650.584 3  -8038149.651 2
  26841660.205     1130277.099 2    880741.527 1
 91  4 29 23  6 45.0100000  0  4 06 02 13 15
  23655755.263    -5438001.857 3  -4237381.925 3
  23981676.129     7445292.368 4   5801542.284 3
  24683102.045   -10341423.146 3  -8058232.134 1
  26845525.733     1150606.794 2    896582.892 1
 91  4 29 23  7  0.0100000  0  4 06 02 13 15
  23657574.404    -5428435.035 3  -4229927.258 3
  23987413.263     7475458.015 4   5825047.985 3
  24678220.521   -10367080.560 3  -8078224.882 1
  26849427.227     1171079.871 2    912535.917 1
 91  4 29 23  7 15.0100000  0  4 06 02 13 15
  23659416.030    -5418775.104 3  -4222400.037 3
  23993165.675     7505674.839 4   5848593.551 3
  24673355.793   -10392625.107 3  -8098129.696 1
  26853350.009     1191693.937 2    928598.845 1
 91  4 29 23  7 30.0100000  0  4 06 02 13 15
  23661270.544    -5409021.620 3  -4214799.910 3
  23998924.692     7535942.994 4   5872179.125 3
  24668520.137   -10418056.531 3  -8117946.367 2
  26857303.374     1212449.047 2    944771.672 1
 91  4 29 23  7 45.0100000  0  4 06 02 13 15
  23663144.845    -5399173.785 3  -4207126.266 3
  24004692.696     7566262.995 4   5895805.098 3
  24663702.176   -10443373.602 3  -8137673.913 2
  26861268.133     1233345.869 2    961054.939 1
 91  4 29 23  8  0.0100000  0  4 06 02 13 15
  23665037.138    -5389231.197 3  -4199378.794 3
  24010471.196     7596635.133 4   5919471.696 3
  24658905.495   -10468576.150 3  -8157312.232 2
  26865280.854     1254384.558 2    977448.733 1
 91  4 29 23  8 15.0100000  0  4 06 02 13 15
  23666946.811    -5379196.245 3  -4191559.346 3
  24016262.592     7627056.695 4   5943176.795 3
  24654130.696   -10493666.453 3  -8176863.068 2
  26869299.875     1275562.767 2    993951.226 1
 91  4 29 23  8 30.0100000  0  4 06 02 13 15
  23668874.179    -5369068.762 3  -4183667.795 3
  24022061.770     7657527.548 4   5966920.313 3
  24649376.288   -10518644.144 3  -8196326.190 2
  26873360.261     1296880.377 2   1010562.369 1
 91  4 29 23  8 45.0100000  0  4 06 02 13 15
  23670817.436    -5358850.948 3  -4175705.864 3
  24027869.351     7688045.101 4   5990700.217 3
  24644645.866   -10543511.426 3  -8215703.249 1
  26877452.730     1318334.974 2   1027280.237 1
 91  4 29 23  9  0.0100000  0  4 06 02 13 15
  23672778.378    -5348542.307 3  -4167673.156 3
  24033685.325     7718609.670 4   6014516.757 3
  24639937.623   -10568267.715 3  -8234993.829 2
  26881548.191     1339926.933 2   1044105.155 1
 91  4 29 23  9 15.0100000  0  4 06 02 13 15
  23674761.508    -5338142.252 3  -4159569.210 3
  24039509.091     7749221.565 4   6038370.169 3
  24635244.073   -10592912.215 3  -8254197.287 2
  26885692.226     1361656.705 2   1061037.476 1
 91  4 29 23  9 30.0100000  0  4 06 02 13 15
  23676756.024    -5327650.268 3  -4151393.632 3
  24045345.151     7779880.922 4   6062260.572 3
  24630577.806   -10617444.291 3  -8273313.178 2
  26889852.445     1383524.670 2   1078077.451 1
 91  4 29 23  9 45.0100000  0  4 06 02 13 15
  23678766.429    -5317064.121 3  -4143144.688 3
  24051187.213     7810589.744 4   6086189.517 3
  24625931.921   -10641861.782 3  -8292339.757 1
  26894038.743     1405532.649 2   1095226.470 1
 91  4 29 23 10  0.0100000  0  4 06 02 13 15
  23680801.421    -5306382.399 3  -4134821.261 3
  24057041.560     7841349.380 4   6110158.060 3
  24621306.427   -10666163.318 3  -8311275.982 1
  26898254.123     1427681.915 2   1112485.696 1
 91  4 29 23 10 15.0100000  0  4 06 02 13 15
  23682853.200    -5295606.376 3  -4126424.364 3
  24062906.099     7872158.317 4   6134165.014 3
  24616701.611   -10690350.043 3  -8330122.742 2
  26902494.988     1449971.308 2   1129854.047 1
 91  4 29 23 10 30.0100000  0  4 06 02 13 15
  23684921.766    -5284732.861 3  -4117951.490 3
  24068777.530     7903019.362 4   6158212.576 3
  24612122.281   -10714418.891 3  -8348877.650 1
  26906767.333     1472403.686 2   1147333.819 1
 91  4 29 23 10 45.0100000  0  4 06 02 13 15
  23687008.629    -5273767.322 3  -4109406.917 3
  24074658.262     7933926.870 4   6182296.345 3
  24607566.335   -10738375.043 3  -8367544.743 2
  26911052.863     1494973.435 2   1164920.662
 91  4 29 23 11  0.0100000  0  4 06 02 13 15
  23689114.966    -5262702.413 3  -4100784.913 3
  24080549.778     7964887.790 4   6206421.729 3
  24603027.481   -10762211.254 3  -8386118.400 1
  26915381.869     1517687.766 2   1182620.113 1
 91  4 29 23 11 15.0100000  0  4 06 02 13 15
  23691240.795    -5251540.629 3  -4092087.410 3
  24086452.995     7995899.345 4   6230586.563 3
  24598515.299   -10785929.766 3  -8404600.327 2
  26919733.953     1540543.741 2   1200430.039 1
 91  4 29 23 11 30.0100000  0  4 06 02 13 15
  23693380.113    -5240281.095 3  -4083313.745 3
  24092362.503     8026962.142 4   6254791.342 3
  24594022.313   -10809529.703 3  -8422989.864 1
  26924107.327     1563542.163 2   1218350.875 1
 91  4 29 23 11 45.0100000  0  4 06 02 13 15
  23695542.518    -5228925.669 3  -4074465.362 3
  24098284.304     8058074.134 4   6279034.448 3
  24589555.101   -10833012.837 3  -8441288.380 2
  26928514.877     1586681.072 2   1236381.181 1
 91  4 29 23 12  0.0100000  0  4 06 02 13 15
  23697722.007    -5217473.471 3  -4065541.570 3
  24104214.202     8089235.864 4   6303316.302 3
  24585110.382   -10856378.191 3  -8459495.105 2
  26932933.219     1609961.166 2   1254521.535 1
 91  4 29 23 12 15.0100000  0  4 06 02 13 15
  23699918.588    -5205924.991 3  -4056542.745 3
  24110151.586     8120446.688 4   6327636.417 3
  24580686.647   -10879626.419 3  -8477610.582 2
  26937402.220     1633381.636 2   1272771.204 1
 91  4 29 23 12 30.0100000  0  4 06 02 13 15
  23702136.755    -5194280.938 3  -4047469.456 3
  24116100.967     8151705.714 4   6351994.094 3
  24576282.692   -10902758.137 3  -8495635.272 1
  26941882.023     1656941.517 2   1291129.542 1
 91  4 29 23 12 45.0100000  0  4 06 02 13 15
  23704367.512    -5182537.349 3  -4038318.606 3
  24122059.946     8183016.591 4   6376392.170 3
  24571906.326   -10925769.471 3  -8513566.136 1
  26946392.703     1680644.700 2   1309599.563 1
 91  4 29 23 13  0.0100000  0  4 06 02 13 15
  23706623.747    -5170694.830 3  -4029090.669 3
  24128028.811     8214378.373 4   6400829.912 3
  24567548.239   -10948660.553 3  -8531403.318 1
  26950929.463     1704490.537 2   1328180.721 1
 91  4 29 23 13 15.0100000  0  4 06 02 13 15
  23708895.573    -5158755.758 3  -4019787.489 3
  24134005.179     8245788.517 4   6425305.340 3
  24563215.341   -10971433.998 3  -8549148.842 2
  26955489.004     1728476.412 2   1346871.083 1
 91  4 29 23 13 30.0100000  0  4 06 02 13 15
  23711185.085    -5146718.961 3  -4010408.162 3
  24139992.628     8277247.900 4   6449819.139 3
  24558904.326   -10994088.772 3  -8566801.869 2
  26960083.324     1752603.133 2   1365671.146 1
 91  4 29 23 13 45.0100000  0  4 06 02 13 15
  23713495.590    -5134581.365 3  -4000950.293 3
  24145986.978     8308759.250 4   6474373.428 3
  24554614.897   -11016621.518 3  -8584359.822 2
  26964704.325     1776873.601 2   1384583.179 1
 91  4 29 23 14  0.0100000  0  4 06 02 13 15
  23715824.374    -5122345.117 3  -3991415.553 3
  24151994.224     8340320.379 4   6498966.508 3
  24550350.945   -11039034.047 3  -8601824.104 1
  26969344.809     1801285.641 2   1403605.543 1
 91  4 29 23 14 15.0100000  0  4 06 02 13 15
  23718170.556    -5110009.616 3  -3981803.462 3
  24158009.262     8371931.405 4   6523598.459 3
  24546110.978   -11061326.056 3  -8619194.476 2
  26974023.675     1825839.305 2   1422738.279 1
 91  4 29 23 14 30.0100000  0  4 06 02 13 15
  23720536.814    -5097571.457 3  -3972111.392 3
  24164034.491     8403595.660 4   6548271.898 3
  24541889.604   -11083493.863 3  -8636468.059 1
  26978724.720     1850538.211 2   1441984.161 1
 91  4 29 23 14 45.0100000  0  4 06 02 13 15
  23722925.557    -5085029.264 3  -3962338.252 3
  24170069.605     8435314.139 4   6572987.593 3
  24537694.607   -11105536.248 3  -8653643.920 2
  26983447.351     1875383.648 2   1461344.281 1
 91  4 29 23 15  0.0100000  0  4 06 02 13 15
  23725329.892    -5072385.285 3  -3952485.805 3
  24176114.927     8467084.360 4   6597743.605 3
  24533525.994   -11127455.484 3  -8670723.791 2
  26988202.954     1900372.522 2   1480816.158 1
 91  4 29 23 15 15.0100000  0  4 06 02 13 15
  23727756.117    -5059634.810 3  -3942550.361 3
  24182170.729     8498911.040 4   6622543.602 3
  24529379.561   -11149246.446 3  -8687703.748 2
  26992990.343     1925509.835 2   1500403.659 1
 91  4 29 23 15 30.0100000  0  4 06 02 13 15
  23730203.022    -5046780.592 3  -3932534.086 3
  24188238.230     8530790.858 4   6647385.016 3
  24525256.816   -11170912.317 3  -8704586.197 2
  26997801.411     1950792.437 2   1520104.408 1
 91  4 29 23 15 45.0100000  0  4 06 02 13 15
  23732667.612    -5033819.639 3  -3922434.643 3
  24194317.721     8562726.532 4   6672269.958 3
  24521155.657   -11192450.109 3  -8721368.859 2
  27002636.160     1976223.223 2   1539920.561 1
 91  4 29 23 16  0.0100000  0  4 06 02 13 15
  23735154.094    -5020753.354 3  -3912253.124 3
  24200402.009     8594716.656 4   6697197.327 3
  24517083.579   -11213860.699 3  -8738052.412 2
  27007511.393     2001800.609 2   1559851.005 1
 91  4 29 23 16 15.0100000  0  4 06 02 13 15
  23737661.856    -5007585.669 3  -3901992.597 3
  24206500.686     8626756.886 4   6722163.730 3
  24513032.781   -11235148.427 3  -8754640.222 2
  27012398.902     2027520.371 2   1579892.378 1
 91  4 29 23 16 30.0100000  0  4 06 02 13 15
  23740186.414    -4994315.644 3  -3891652.307 3
  24212606.264     8658847.828 4   6747169.653 3
  24509004.172   -11256312.237 3  -8771131.461 1
  27017316.103     2053383.059 2   1600045.108 1
 91  4 29 23 16 45.0100000  0  4 06 02 13 15
  23742731.048    -4980941.203 3  -3881230.662 3
  24218724.424     8690991.420 4   6772216.603 3
  24504999.242   -11277349.718 3  -8787524.276 2
  27022262.079     2079390.931 2   1620311.012 1
 91  4 29 23 17  0.0100000  0  4 06 02 13 15
  23745296.073    -4967463.742 3  -3870728.741 3
  24224849.485     8723185.915 4   6797303.215 3
  24501020.994   -11298262.322 3  -8803819.780 1
  27027243.733     2105542.270 2   1640688.673 1
 91  4 29 23 17 15.0100000  0  4 06 02 13 15
  23747879.682    -4953885.221 3  -3860148.068 3
  24230986.238     8755429.266 4   6822427.905 3
  24497065.239   -11319052.044 3  -8820019.530 2
  27032246.963     2131834.682 2   1661176.279 1
 91  4 29 23 17 30.0100000  0  4 06 02 13 15
  23750483.682    -4940202.990 3  -3849486.592 3
  24237132.580     8787723.826 4   6847592.495 3
  24493131.061   -11339716.494 3  -8836121.663 2
  27037280.478     2158270.892 2   1681775.912 1
 91  4 29 23 17 45.0100000  0  4 06 02 13 15
  23753107.768    -4926417.995 3  -3838745.045 3
  24243287.324     8820068.564 4   6872796.182 3
  24489222.963   -11360256.040 3  -8852126.473 2
  27042342.176     2184849.730 2   1702486.740 1
 91  4 29 23 18  0.0100000  0  4 06 02 13 15
  23755748.937    -4912530.911 3  -3827923.943 3
  24249450.759     8852462.370 4   6898038.097 3
  24485338.850   -11380671.781 3  -8868034.816 1
  27047425.756     2211569.985 2   1723307.711 1
 91  4 29 23 18 15.0100000  0  4 06 02 13 15
  23758412.294    -4898541.721 3  -3817023.260 3
  24255624.079     8884905.032 4   6923318.086 3
  24481479.621   -11400963.270 3  -8883846.336 2
  27052536.619     2238431.789 2   1744238.988 1
 91  4 29 23 18 30.0100000  0  4 06 02 13 15
  23761091.836    -4884453.588 3  -3806045.498 3
  24261807.598     8917393.097 4   6948633.458 3
  24477639.883   -11421133.705 3  -8899563.519 1
  27057675.665     2265431.426 2   1765277.678 1
 91  4 29 23 18 45.0100000  0  4 06 02 13 15
  23763792.370    -4870265.834 3  -3794990.107 3
  24267996.213     8949927.081 4   6973984.600 3
  24473826.522   -11441182.452 3  -8915185.895 2
  27062833.888     2292569.370 2   1786424.140 1
 91  4 29 23 19  0.0100000  0  4 06 02 13 15
  23766512.388    -4855976.230 3  -3783855.351 3
  24274201.624     8982508.918 4   6999373.035 3
  24470030.253   -11461107.196 3  -8930711.640 2
  27068029.289     2319847.933 2   1807680.152 1
 91  4 29 23 19 15.0100000  0  4 06 02 13 15
  23769250.388    -4841584.492 3  -3772641.010 3
  24280408.221     9015138.659 4   7024798.806 3
  24466265.456   -11480907.838 3  -8946140.678 1
  27073246.581     2347266.932 2   1829045.586 1
 91  4 29 23 19 30.0100000  0  4 06 02 13 15
  23772006.083    -4827090.319 3  -3761346.853 3
  24286628.613     9047816.339 4   7050261.931 3
  24462520.151   -11500583.946 3  -8961472.684 2
  27078481.856     2374826.571 2   1850520.659 1
 91  4 29 23 19 45.0100000  0  4 06 02 13 15
  23774786.060    -4812494.734 3  -3749973.673 3
  24292852.905     9080540.655 4   7075761.393 3
  24458797.627   -11520136.462 3  -8976708.379 2
  27083761.498     2402525.465 2   1872104.227 1
 91  4 29 23 20  0.0100000  0  4 06 02 13 15
  23777584.019    -4797795.131 3  -3738519.446 3
  24299089.491     9113314.191 4   7101299.199 3
  24455102.988   -11539562.521 3  -8991845.535 2
  27089057.639     2430366.336 2   1893798.457 1
 91  4 29 23 20 15.0100000  0  4 06 02 13 15
  23780402.674    -4782995.045 3  -3726986.914 3
  24305335.064     9146133.056 4   7126872.336 3
  24451429.927   -11558865.859 3  -9006887.078 2
  27094391.246     2458345.145 2   1915600.116 1
 91  4 29 23 20 30.0100000  0  4 06 02 13 15
  23783236.005    -4768088.846 3  -3715371.693 3
  24311589.640     9179002.762 4   7152485.082 3
  24447780.257   -11578040.799 3  -9021828.559 2
  27099737.146     2486467.257 2   1937513.436 1
 91  4 29 23 20 45.0100000  0  4 06 02 13 15
  23786092.728    -4753081.074 3  -3703677.331 3
  24317852.602     9211918.604 4   7178133.789 3
  24444156.362   -11597091.889 3  -9036673.526 2
  27105115.120     2514728.226 2   1959535.030 1
 91  4 29 23 21  0.0100000  0  4 06 02 13 15
  23788966.840    -4737970.756 3  -3691903.063 3
  24324126.060     9244881.090 4   7203818.826 3
  24440554.052   -11616018.047 3  -9051421.155 1
  27110514.985     2543128.604 2   1981665.176 1
 91  4 29 23 21 15.0110000  0  4 06 02 13 15
  24091653.198    -4722762.574 3  -3680052.535 3
  24630199.165     9277885.273 4   7229536.364 3
  24736767.890   -11634823.961 3  -9066075.067 2
  27415744.774     2571663.417 2   2003900.082 1
 91  4 29 23 21 30.0110000  0  4 06 02 13 15
  23794771.719    -4707454.007 3  -3668123.786 3
  24336697.252     9310934.706 4   7255289.159 3
  24433421.393   -11653509.425 3  -9080635.146 2
  27121403.741     2600335.965 2   2026242.368 1
 91  4 29 23 21 45.0110000  0  4 06 02 13 15
  23797706.392    -4692045.541 3  -3656117.189 3
  24342992.000     9344026.317 4   7281074.824 3
  24429887.139   -11672070.321 3  -9095098.152 2
  27126887.847     2629143.661 2   2048689.928 1
 91  4 29 23 22  0.0110000  0  4 06 02 13 15
  23800656.944    -4676537.619 3  -3644033.101 3
  24349298.430     9377160.581 4   7306893.719 3
  24426378.075   -11690509.461 3  -9109466.281 2
  27132391.140     2658086.723 2   2071242.952 1
 91  4 29 23 22 15.0110000  0  4 06 02 13 15
  23803628.193    -4660931.665 3  -3631872.619 3
  24355610.261     9410335.772 4   7332744.510 3
  24422893.580   -11708828.208 3  -9123740.601 2
  27137928.600     2687163.391 2   2093900.102 1
 91  4 29 23 22 30.0110000  0  4 06 02 13 15
  23806616.525    -4645231.322 3  -3619638.590 3
  24361931.087     9443548.292 4   7358624.394 3
  24419424.381   -11727029.932 3  -9137923.749 2
  27143481.660     2716369.896 2   2116658.417 1
 91  4 29 23 22 45.0110000  0  4 06 02 13 15
  23809618.643    -4629441.005 3  -3607334.448 3
  24368258.807     9476793.299 4   7384529.583 3
  24415986.069   -11745119.145 3  -9152019.203 2
  27149061.996     2745701.732 2   2139514.367 1
 91  4 29 23 23  0.0110000  0  4 06 02 13 15
  23812642.347    -4613557.523 3  -3594957.717 3
  24374589.519     9510073.672 4   7410462.323 3
  24412564.535   -11763092.754 3  -9166024.578 2
  27154664.214     2775161.558 2   2162470.137 1
 91  4 29 23 23 15.0110000  0  4 06 02 13 15
  23815683.449    -4597583.620 3  -3582510.522 3
  24380929.532     9543386.463 4   7436420.331 3
  24409166.087   -11780953.449 3  -9179941.972 2
  27160295.818     2804746.663 2   2185523.453 1
 91  4 29 23 23 30.0110000  0  4 06 02 13 15
  23818741.329    -4581515.377 3  -3569989.813 3
  24387276.141     9576735.484 4   7462406.584 3
  24405790.726   -11798697.229 3  -9193768.265 2
  27165954.103     2834460.626 2   2208677.218 1
 91  4 29 23 23 45.0110000  0  4 06 02 13 15
  23821813.902    -4565355.379 3  -3557397.609 3
  24393628.745     9610117.897 4   7488418.841 3
  24402436.943   -11816326.707 3  -9207505.500 2
  27171625.572     2864300.739 2   2231929.226 1
 91  4 29 23 24  0.0110000  0  4 06 02 13 15
  23824907.460    -4549100.752 3  -3544731.672 3
  24399987.342     9643536.354 4   7514459.189 3
  24399103.253   -11833838.907 3  -9221151.339 2
  27177341.417     2894269.467 2   2255281.530 1
 91  4 29 23 24 15.0110000  0  4 06 02 13 15
  23828019.008    -4532746.778 3  -3531988.322 3
  24406352.536     9676995.361 4   7540531.127 3
  24395794.744   -11851228.886 3  -9234701.938 2
  27183062.960     2924371.207 2   2278737.420 1
 91  4 29 23 24 30.0110000  0  4 06 02 13 15
  23831151.540    -4516295.859 3  -3519169.424 3
  24412729.718     9710492.206 4   7566632.556 3
  24392507.516   -11868499.285 3  -9248159.363 2
  27188814.176     2954603.527 2   2302295.054 1
 91  4 29 23 24 45.0110000  0  4 06 02 13 15
  23834301.453    -4499746.440 3  -3506273.765 3
  24419111.097     9744028.127 4   7592764.438 3
  24389243.976   -11885648.560 3  -9261522.411 2
  27194599.875     2984967.714 2   2325955.474 1
 91  4 29 23 25  0.0110000  0  4 06 02 13 15
  23837468.763    -4483096.813 3  -3493300.037 3
  24425499.081     9777604.882 4   7618928.130 3
  24386002.319   -11902674.921 3  -9274789.674 2
  27200398.460     3015464.946 2   2349719.526 1
 91  4 29 23 25 15.0110000  0  4 06 02 13 15
  23840657.354    -4466346.915 3  -3480248.176 3
  24431896.950     9811222.174 4   7645123.407 3
  24382788.844   -11919578.290 3  -9287961.109 2
  27206225.218     3046095.316 2   2373587.400 1
 91  4 29 23 25 30.0110000  0  4 06 02 13 15
  23843860.935    -4449498.124 3  -3467119.247 3
  24438302.018     9844878.495 4   7671349.102 3
  24379592.758   -11936360.094 3  -9301037.803 2
  27212085.569     3076857.116 2   2397557.595 1
 91  4 29 23 25 45.0110000  0  4 06 02 13 15
  23847085.508    -4432549.854 3  -3453912.804 3
  24444712.774     9878574.094 4   7697605.415 3
  24376421.556   -11953019.971 3  -9314019.496 2
  27217957.000     3107750.621 2   2421630.472 1
 91  4 29 23 26  0.0110000  0  4 06 02 13 15
  23850330.464    -4415497.597 3  -3440625.337 3
  24451131.933     9912313.412 4   7723895.779 3
  24373275.230   -11969553.108 3  -9326902.426 2
  27223870.704     3138780.373 2   2445809.485 1
 91  4 29 23 26 15.0110000  0  4 06 02 13 15
  23853598.793    -4398340.993 3  -3427256.556 3
  24457563.079     9946096.553 4   7750220.296 3
  24370155.890   -11985959.027 3  -9339686.243 2
  27229786.808     3169946.244 2   2470094.597 1
 91  4 29 23 26 30.0110000  0  4 06 02 13 15
  23856881.528    -4381082.004 3  -3413807.997 3
  24463995.727     9979921.216 4   7776577.168 3
  24367057.534   -12002239.881 3  -9352372.588 2
  27235755.079     3201246.011 2   2494483.977 1
 91  4 29 23 26 45.0110000  0  4 06 02 13 15
  23860183.136    -4363719.026 3  -3400278.395 3
  24470446.366    10013788.934 4   7802967.594 3
  24363982.867   -12018393.872 3  -9364960.085 2
  27241739.535     3232681.298 2   2518979.024 1
 91  4 29 23 27  0.0110000  0  4 06 02 13 15
  23863508.135    -4346250.335 3  -3386666.436 3
  24476899.692    10047701.236 4   7829392.750 3
  24360934.575   -12034419.630 3  -9377447.652 2
  27247754.276     3264253.291 2   2543580.583 1
 91  4 29 23 27 15.0110000  0  4 06 02 13 15
  23866853.525    -4328676.043 3  -3372972.184 3
  24483359.623    10081657.693 4   7855852.311 3
  24357907.268   -12050317.003 3  -9389835.198 2
  27253777.105     3295961.747 2   2568288.482 1
 91  4 29 23 27 30.0110000  0  4 06 02 13 15
  23870217.491    -4310998.724 3  -3359197.654 3
  24489828.846    10115655.535 4   7882344.129 3
  24354908.448   -12066088.514 3  -9402124.658 2
  27259836.510     3327803.710 2   2593100.380 1
 91  4 29 23 27 45.0110000  0  4 06 02 13 15
  23873600.652    -4293218.663 3  -3345343.058 3
  24496306.463    10149694.337 4   7908867.868 3
  24351930.612   -12081734.436 3  -9414316.258 2
  27265918.094     3359778.988 2   2618016.166 1
